<?xml version="1.0" encoding="UTF-8" standalone="no" ?>
<gpx xmlns="http://www.topografix.com/GPX/1/1" xmlns:xsi="http://www.w3.org/2001/XMLSchema-instance" xsi:schemaLocation="http://www.topografix.com/GPX/1/1 http://www.topografix.com/GPX/1/1/gpx.xsd" version="1.1" creator="VisuGPX - https://www.visugpx.com">
  <metadata>
    <name>grande traversée du lac lde Sanguinet</name>
    <desc><![CDATA[Une des premières traversées du Lac de Sanguinet par vent de force 4.]]></desc>
  </metadata>
  <trk>
    <name><![CDATA[ONmove 100 - 23/04/2016]]></name>
    <trkseg>
      <trkpt lat="44.49356" lon="-1.08031">
        <ele>20</ele>
        <time>2016-04-23T12:53:14Z</time>
      </trkpt>
      <trkpt lat="44.4934" lon="-1.0807">
        <ele>20</ele>
        <time>2016-04-23T12:53:39Z</time>
      </trkpt>
      <trkpt lat="44.49337" lon="-1.08076">
        <ele>20</ele>
        <time>2016-04-23T12:53:42Z</time>
      </trkpt>
      <trkpt lat="44.49333" lon="-1.08083">
        <ele>20</ele>
        <time>2016-04-23T12:53:45Z</time>
      </trkpt>
      <trkpt lat="44.4933" lon="-1.0809">
        <ele>20</ele>
        <time>2016-04-23T12:53:48Z</time>
      </trkpt>
      <trkpt lat="44.49326" lon="-1.08097">
        <ele>20</ele>
        <time>2016-04-23T12:53:51Z</time>
      </trkpt>
      <trkpt lat="44.49322" lon="-1.08103">
        <ele>20</ele>
        <time>2016-04-23T12:53:54Z</time>
      </trkpt>
      <trkpt lat="44.49317" lon="-1.08109">
        <ele>20</ele>
        <time>2016-04-23T12:53:57Z</time>
      </trkpt>
      <trkpt lat="44.49313" lon="-1.08115">
        <ele>20</ele>
        <time>2016-04-23T12:54:00Z</time>
      </trkpt>
      <trkpt lat="44.49309" lon="-1.0812">
        <ele>20</ele>
        <time>2016-04-23T12:54:02Z</time>
      </trkpt>
      <trkpt lat="44.49306" lon="-1.08124">
        <ele>20</ele>
        <time>2016-04-23T12:54:04Z</time>
      </trkpt>
      <trkpt lat="44.49303" lon="-1.0813">
        <ele>20</ele>
        <time>2016-04-23T12:54:06Z</time>
      </trkpt>
      <trkpt lat="44.493" lon="-1.08136">
        <ele>20</ele>
        <time>2016-04-23T12:54:08Z</time>
      </trkpt>
      <trkpt lat="44.49296" lon="-1.08141">
        <ele>20</ele>
        <time>2016-04-23T12:54:10Z</time>
      </trkpt>
      <trkpt lat="44.49293" lon="-1.08147">
        <ele>20</ele>
        <time>2016-04-23T12:54:12Z</time>
      </trkpt>
      <trkpt lat="44.49291" lon="-1.08154">
        <ele>20</ele>
        <time>2016-04-23T12:54:14Z</time>
      </trkpt>
      <trkpt lat="44.49288" lon="-1.08161">
        <ele>20</ele>
        <time>2016-04-23T12:54:16Z</time>
      </trkpt>
      <trkpt lat="44.49285" lon="-1.08167">
        <ele>20</ele>
        <time>2016-04-23T12:54:18Z</time>
      </trkpt>
      <trkpt lat="44.49283" lon="-1.08174">
        <ele>20</ele>
        <time>2016-04-23T12:54:20Z</time>
      </trkpt>
      <trkpt lat="44.49281" lon="-1.08181">
        <ele>20</ele>
        <time>2016-04-23T12:54:22Z</time>
      </trkpt>
      <trkpt lat="44.49279" lon="-1.08187">
        <ele>20</ele>
        <time>2016-04-23T12:54:24Z</time>
      </trkpt>
      <trkpt lat="44.49277" lon="-1.08194">
        <ele>20</ele>
        <time>2016-04-23T12:54:26Z</time>
      </trkpt>
      <trkpt lat="44.49274" lon="-1.082">
        <ele>20</ele>
        <time>2016-04-23T12:54:28Z</time>
      </trkpt>
      <trkpt lat="44.49271" lon="-1.08206">
        <ele>20</ele>
        <time>2016-04-23T12:54:30Z</time>
      </trkpt>
      <trkpt lat="44.49269" lon="-1.08212">
        <ele>20</ele>
        <time>2016-04-23T12:54:32Z</time>
      </trkpt>
      <trkpt lat="44.49267" lon="-1.08219">
        <ele>20</ele>
        <time>2016-04-23T12:54:34Z</time>
      </trkpt>
      <trkpt lat="44.49265" lon="-1.08225">
        <ele>20</ele>
        <time>2016-04-23T12:54:36Z</time>
      </trkpt>
      <trkpt lat="44.49262" lon="-1.08231">
        <ele>20</ele>
        <time>2016-04-23T12:54:38Z</time>
      </trkpt>
      <trkpt lat="44.49259" lon="-1.08238">
        <ele>20</ele>
        <time>2016-04-23T12:54:40Z</time>
      </trkpt>
      <trkpt lat="44.49256" lon="-1.08244">
        <ele>20</ele>
        <time>2016-04-23T12:54:42Z</time>
      </trkpt>
      <trkpt lat="44.49254" lon="-1.08251">
        <ele>20</ele>
        <time>2016-04-23T12:54:44Z</time>
      </trkpt>
      <trkpt lat="44.49252" lon="-1.08258">
        <ele>20</ele>
        <time>2016-04-23T12:54:46Z</time>
      </trkpt>
      <trkpt lat="44.4925" lon="-1.08264">
        <ele>20</ele>
        <time>2016-04-23T12:54:48Z</time>
      </trkpt>
      <trkpt lat="44.49247" lon="-1.08271">
        <ele>20</ele>
        <time>2016-04-23T12:54:50Z</time>
      </trkpt>
      <trkpt lat="44.49245" lon="-1.08278">
        <ele>20</ele>
        <time>2016-04-23T12:54:52Z</time>
      </trkpt>
      <trkpt lat="44.49242" lon="-1.08285">
        <ele>20</ele>
        <time>2016-04-23T12:54:54Z</time>
      </trkpt>
      <trkpt lat="44.49239" lon="-1.08292">
        <ele>20</ele>
        <time>2016-04-23T12:54:56Z</time>
      </trkpt>
      <trkpt lat="44.49236" lon="-1.08298">
        <ele>20</ele>
        <time>2016-04-23T12:54:58Z</time>
      </trkpt>
      <trkpt lat="44.49233" lon="-1.08305">
        <ele>20</ele>
        <time>2016-04-23T12:55:00Z</time>
      </trkpt>
      <trkpt lat="44.49231" lon="-1.08311">
        <ele>20</ele>
        <time>2016-04-23T12:55:02Z</time>
      </trkpt>
      <trkpt lat="44.49227" lon="-1.08317">
        <ele>20</ele>
        <time>2016-04-23T12:55:04Z</time>
      </trkpt>
      <trkpt lat="44.49225" lon="-1.08323">
        <ele>20</ele>
        <time>2016-04-23T12:55:06Z</time>
      </trkpt>
      <trkpt lat="44.49222" lon="-1.0833">
        <ele>20</ele>
        <time>2016-04-23T12:55:08Z</time>
      </trkpt>
      <trkpt lat="44.49219" lon="-1.08336">
        <ele>20</ele>
        <time>2016-04-23T12:55:10Z</time>
      </trkpt>
      <trkpt lat="44.49216" lon="-1.08343">
        <ele>20</ele>
        <time>2016-04-23T12:55:12Z</time>
      </trkpt>
      <trkpt lat="44.49213" lon="-1.08349">
        <ele>20</ele>
        <time>2016-04-23T12:55:14Z</time>
      </trkpt>
      <trkpt lat="44.4921" lon="-1.08356">
        <ele>20</ele>
        <time>2016-04-23T12:55:16Z</time>
      </trkpt>
      <trkpt lat="44.49207" lon="-1.08361">
        <ele>20</ele>
        <time>2016-04-23T12:55:18Z</time>
      </trkpt>
      <trkpt lat="44.49204" lon="-1.08367">
        <ele>20</ele>
        <time>2016-04-23T12:55:20Z</time>
      </trkpt>
      <trkpt lat="44.492" lon="-1.08373">
        <ele>20</ele>
        <time>2016-04-23T12:55:22Z</time>
      </trkpt>
      <trkpt lat="44.49197" lon="-1.08379">
        <ele>20</ele>
        <time>2016-04-23T12:55:24Z</time>
      </trkpt>
      <trkpt lat="44.49194" lon="-1.08385">
        <ele>20</ele>
        <time>2016-04-23T12:55:26Z</time>
      </trkpt>
      <trkpt lat="44.49191" lon="-1.08391">
        <ele>20</ele>
        <time>2016-04-23T12:55:28Z</time>
      </trkpt>
      <trkpt lat="44.49187" lon="-1.08397">
        <ele>20</ele>
        <time>2016-04-23T12:55:30Z</time>
      </trkpt>
      <trkpt lat="44.49183" lon="-1.08404">
        <ele>20</ele>
        <time>2016-04-23T12:55:32Z</time>
      </trkpt>
      <trkpt lat="44.4918" lon="-1.08411">
        <ele>20</ele>
        <time>2016-04-23T12:55:34Z</time>
      </trkpt>
      <trkpt lat="44.49177" lon="-1.08417">
        <ele>20</ele>
        <time>2016-04-23T12:55:36Z</time>
      </trkpt>
      <trkpt lat="44.49173" lon="-1.08424">
        <ele>20</ele>
        <time>2016-04-23T12:55:38Z</time>
      </trkpt>
      <trkpt lat="44.49169" lon="-1.08429">
        <ele>20</ele>
        <time>2016-04-23T12:55:40Z</time>
      </trkpt>
      <trkpt lat="44.49167" lon="-1.08434">
        <ele>20</ele>
        <time>2016-04-23T12:55:42Z</time>
      </trkpt>
      <trkpt lat="44.49163" lon="-1.08442">
        <ele>20</ele>
        <time>2016-04-23T12:55:45Z</time>
      </trkpt>
      <trkpt lat="44.49159" lon="-1.08449">
        <ele>20</ele>
        <time>2016-04-23T12:55:48Z</time>
      </trkpt>
      <trkpt lat="44.49156" lon="-1.08456">
        <ele>20</ele>
        <time>2016-04-23T12:55:51Z</time>
      </trkpt>
      <trkpt lat="44.49153" lon="-1.08462">
        <ele>20</ele>
        <time>2016-04-23T12:55:54Z</time>
      </trkpt>
      <trkpt lat="44.49149" lon="-1.08469">
        <ele>20</ele>
        <time>2016-04-23T12:55:57Z</time>
      </trkpt>
      <trkpt lat="44.49146" lon="-1.08476">
        <ele>20</ele>
        <time>2016-04-23T12:56:00Z</time>
      </trkpt>
      <trkpt lat="44.49142" lon="-1.08484">
        <ele>20</ele>
        <time>2016-04-23T12:56:03Z</time>
      </trkpt>
      <trkpt lat="44.49139" lon="-1.0849">
        <ele>20</ele>
        <time>2016-04-23T12:56:06Z</time>
      </trkpt>
      <trkpt lat="44.49135" lon="-1.08499">
        <ele>20</ele>
        <time>2016-04-23T12:56:09Z</time>
      </trkpt>
      <trkpt lat="44.49132" lon="-1.08507">
        <ele>20</ele>
        <time>2016-04-23T12:56:12Z</time>
      </trkpt>
      <trkpt lat="44.49129" lon="-1.08512">
        <ele>20</ele>
        <time>2016-04-23T12:56:14Z</time>
      </trkpt>
      <trkpt lat="44.49127" lon="-1.0852">
        <ele>20</ele>
        <time>2016-04-23T12:56:17Z</time>
      </trkpt>
      <trkpt lat="44.49123" lon="-1.08527">
        <ele>20</ele>
        <time>2016-04-23T12:56:20Z</time>
      </trkpt>
      <trkpt lat="44.4912" lon="-1.08535">
        <ele>20</ele>
        <time>2016-04-23T12:56:23Z</time>
      </trkpt>
      <trkpt lat="44.49117" lon="-1.08541">
        <ele>20</ele>
        <time>2016-04-23T12:56:25Z</time>
      </trkpt>
      <trkpt lat="44.49113" lon="-1.08549">
        <ele>20</ele>
        <time>2016-04-23T12:56:28Z</time>
      </trkpt>
      <trkpt lat="44.4911" lon="-1.08556">
        <ele>20</ele>
        <time>2016-04-23T12:56:31Z</time>
      </trkpt>
      <trkpt lat="44.49107" lon="-1.08564">
        <ele>20</ele>
        <time>2016-04-23T12:56:34Z</time>
      </trkpt>
      <trkpt lat="44.49104" lon="-1.0857">
        <ele>20</ele>
        <time>2016-04-23T12:56:36Z</time>
      </trkpt>
      <trkpt lat="44.49099" lon="-1.08583">
        <ele>20</ele>
        <time>2016-04-23T12:56:41Z</time>
      </trkpt>
      <trkpt lat="44.49095" lon="-1.08589">
        <ele>20</ele>
        <time>2016-04-23T12:56:44Z</time>
      </trkpt>
      <trkpt lat="44.49091" lon="-1.08596">
        <ele>20</ele>
        <time>2016-04-23T12:56:47Z</time>
      </trkpt>
      <trkpt lat="44.49088" lon="-1.08601">
        <ele>20</ele>
        <time>2016-04-23T12:56:49Z</time>
      </trkpt>
      <trkpt lat="44.49085" lon="-1.08609">
        <ele>20</ele>
        <time>2016-04-23T12:56:52Z</time>
      </trkpt>
      <trkpt lat="44.49083" lon="-1.08615">
        <ele>20</ele>
        <time>2016-04-23T12:56:54Z</time>
      </trkpt>
      <trkpt lat="44.49079" lon="-1.08622">
        <ele>20</ele>
        <time>2016-04-23T12:56:57Z</time>
      </trkpt>
      <trkpt lat="44.49076" lon="-1.08629">
        <ele>20</ele>
        <time>2016-04-23T12:56:59Z</time>
      </trkpt>
      <trkpt lat="44.49073" lon="-1.08634">
        <ele>20</ele>
        <time>2016-04-23T12:57:01Z</time>
      </trkpt>
      <trkpt lat="44.49067" lon="-1.08647">
        <ele>20</ele>
        <time>2016-04-23T12:57:06Z</time>
      </trkpt>
      <trkpt lat="44.49063" lon="-1.08655">
        <ele>20</ele>
        <time>2016-04-23T12:57:09Z</time>
      </trkpt>
      <trkpt lat="44.49061" lon="-1.08661">
        <ele>20</ele>
        <time>2016-04-23T12:57:11Z</time>
      </trkpt>
      <trkpt lat="44.49059" lon="-1.08666">
        <ele>20</ele>
        <time>2016-04-23T12:57:13Z</time>
      </trkpt>
      <trkpt lat="44.49056" lon="-1.08674">
        <ele>20</ele>
        <time>2016-04-23T12:57:16Z</time>
      </trkpt>
      <trkpt lat="44.49053" lon="-1.08682">
        <ele>20</ele>
        <time>2016-04-23T12:57:19Z</time>
      </trkpt>
      <trkpt lat="44.4905" lon="-1.0869">
        <ele>20</ele>
        <time>2016-04-23T12:57:22Z</time>
      </trkpt>
      <trkpt lat="44.49047" lon="-1.08696">
        <ele>20</ele>
        <time>2016-04-23T12:57:24Z</time>
      </trkpt>
      <trkpt lat="44.49045" lon="-1.08704">
        <ele>20</ele>
        <time>2016-04-23T12:57:27Z</time>
      </trkpt>
      <trkpt lat="44.49041" lon="-1.08712">
        <ele>20</ele>
        <time>2016-04-23T12:57:30Z</time>
      </trkpt>
      <trkpt lat="44.49039" lon="-1.08719">
        <ele>20</ele>
        <time>2016-04-23T12:57:33Z</time>
      </trkpt>
      <trkpt lat="44.49037" lon="-1.08727">
        <ele>20</ele>
        <time>2016-04-23T12:57:36Z</time>
      </trkpt>
      <trkpt lat="44.49034" lon="-1.08734">
        <ele>20</ele>
        <time>2016-04-23T12:57:39Z</time>
      </trkpt>
      <trkpt lat="44.49033" lon="-1.08741">
        <ele>20</ele>
        <time>2016-04-23T12:57:42Z</time>
      </trkpt>
      <trkpt lat="44.4903" lon="-1.08748">
        <ele>20</ele>
        <time>2016-04-23T12:57:45Z</time>
      </trkpt>
      <trkpt lat="44.49027" lon="-1.08757">
        <ele>20</ele>
        <time>2016-04-23T12:57:48Z</time>
      </trkpt>
      <trkpt lat="44.49024" lon="-1.08765">
        <ele>20</ele>
        <time>2016-04-23T12:57:51Z</time>
      </trkpt>
      <trkpt lat="44.49022" lon="-1.0877">
        <ele>20</ele>
        <time>2016-04-23T12:57:53Z</time>
      </trkpt>
      <trkpt lat="44.4902" lon="-1.08776">
        <ele>20</ele>
        <time>2016-04-23T12:57:55Z</time>
      </trkpt>
      <trkpt lat="44.49018" lon="-1.08782">
        <ele>20</ele>
        <time>2016-04-23T12:57:57Z</time>
      </trkpt>
      <trkpt lat="44.49016" lon="-1.0879">
        <ele>20</ele>
        <time>2016-04-23T12:58:00Z</time>
      </trkpt>
      <trkpt lat="44.49014" lon="-1.08796">
        <ele>20</ele>
        <time>2016-04-23T12:58:02Z</time>
      </trkpt>
      <trkpt lat="44.49012" lon="-1.08805">
        <ele>20</ele>
        <time>2016-04-23T12:58:05Z</time>
      </trkpt>
      <trkpt lat="44.4901" lon="-1.08813">
        <ele>20</ele>
        <time>2016-04-23T12:58:08Z</time>
      </trkpt>
      <trkpt lat="44.49008" lon="-1.0882">
        <ele>20</ele>
        <time>2016-04-23T12:58:10Z</time>
      </trkpt>
      <trkpt lat="44.49006" lon="-1.08828">
        <ele>20</ele>
        <time>2016-04-23T12:58:13Z</time>
      </trkpt>
      <trkpt lat="44.49004" lon="-1.08834">
        <ele>20</ele>
        <time>2016-04-23T12:58:15Z</time>
      </trkpt>
      <trkpt lat="44.49002" lon="-1.08841">
        <ele>20</ele>
        <time>2016-04-23T12:58:17Z</time>
      </trkpt>
      <trkpt lat="44.49001" lon="-1.08848">
        <ele>20</ele>
        <time>2016-04-23T12:58:19Z</time>
      </trkpt>
      <trkpt lat="44.49" lon="-1.08855">
        <ele>20</ele>
        <time>2016-04-23T12:58:21Z</time>
      </trkpt>
      <trkpt lat="44.48999" lon="-1.08862">
        <ele>20</ele>
        <time>2016-04-23T12:58:23Z</time>
      </trkpt>
      <trkpt lat="44.48996" lon="-1.08877">
        <ele>20</ele>
        <time>2016-04-23T12:58:28Z</time>
      </trkpt>
      <trkpt lat="44.48995" lon="-1.08884">
        <ele>20</ele>
        <time>2016-04-23T12:58:30Z</time>
      </trkpt>
      <trkpt lat="44.48994" lon="-1.0889">
        <ele>20</ele>
        <time>2016-04-23T12:58:32Z</time>
      </trkpt>
      <trkpt lat="44.48992" lon="-1.08897">
        <ele>20</ele>
        <time>2016-04-23T12:58:34Z</time>
      </trkpt>
      <trkpt lat="44.4899" lon="-1.08904">
        <ele>20</ele>
        <time>2016-04-23T12:58:36Z</time>
      </trkpt>
      <trkpt lat="44.48989" lon="-1.0891">
        <ele>20</ele>
        <time>2016-04-23T12:58:38Z</time>
      </trkpt>
      <trkpt lat="44.48988" lon="-1.08917">
        <ele>20</ele>
        <time>2016-04-23T12:58:40Z</time>
      </trkpt>
      <trkpt lat="44.48986" lon="-1.08923">
        <ele>20</ele>
        <time>2016-04-23T12:58:42Z</time>
      </trkpt>
      <trkpt lat="44.48984" lon="-1.0893">
        <ele>20</ele>
        <time>2016-04-23T12:58:44Z</time>
      </trkpt>
      <trkpt lat="44.48982" lon="-1.08936">
        <ele>20</ele>
        <time>2016-04-23T12:58:46Z</time>
      </trkpt>
      <trkpt lat="44.4898" lon="-1.08942">
        <ele>20</ele>
        <time>2016-04-23T12:58:48Z</time>
      </trkpt>
      <trkpt lat="44.48979" lon="-1.08949">
        <ele>20</ele>
        <time>2016-04-23T12:58:50Z</time>
      </trkpt>
      <trkpt lat="44.48978" lon="-1.08955">
        <ele>20</ele>
        <time>2016-04-23T12:58:52Z</time>
      </trkpt>
      <trkpt lat="44.48976" lon="-1.08961">
        <ele>20</ele>
        <time>2016-04-23T12:58:54Z</time>
      </trkpt>
      <trkpt lat="44.48974" lon="-1.08967">
        <ele>20</ele>
        <time>2016-04-23T12:58:56Z</time>
      </trkpt>
      <trkpt lat="44.48971" lon="-1.08976">
        <ele>20</ele>
        <time>2016-04-23T12:58:59Z</time>
      </trkpt>
      <trkpt lat="44.4897" lon="-1.08982">
        <ele>20</ele>
        <time>2016-04-23T12:59:01Z</time>
      </trkpt>
      <trkpt lat="44.48967" lon="-1.08988">
        <ele>20</ele>
        <time>2016-04-23T12:59:03Z</time>
      </trkpt>
      <trkpt lat="44.48964" lon="-1.08996">
        <ele>20</ele>
        <time>2016-04-23T12:59:06Z</time>
      </trkpt>
      <trkpt lat="44.48962" lon="-1.09002">
        <ele>20</ele>
        <time>2016-04-23T12:59:08Z</time>
      </trkpt>
      <trkpt lat="44.4896" lon="-1.09008">
        <ele>20</ele>
        <time>2016-04-23T12:59:10Z</time>
      </trkpt>
      <trkpt lat="44.48959" lon="-1.09014">
        <ele>20</ele>
        <time>2016-04-23T12:59:12Z</time>
      </trkpt>
      <trkpt lat="44.48956" lon="-1.0902">
        <ele>20</ele>
        <time>2016-04-23T12:59:14Z</time>
      </trkpt>
      <trkpt lat="44.48954" lon="-1.09026">
        <ele>20</ele>
        <time>2016-04-23T12:59:16Z</time>
      </trkpt>
      <trkpt lat="44.48952" lon="-1.09032">
        <ele>20</ele>
        <time>2016-04-23T12:59:18Z</time>
      </trkpt>
      <trkpt lat="44.48949" lon="-1.09038">
        <ele>20</ele>
        <time>2016-04-23T12:59:20Z</time>
      </trkpt>
      <trkpt lat="44.48948" lon="-1.09044">
        <ele>20</ele>
        <time>2016-04-23T12:59:22Z</time>
      </trkpt>
      <trkpt lat="44.48945" lon="-1.09052">
        <ele>20</ele>
        <time>2016-04-23T12:59:25Z</time>
      </trkpt>
      <trkpt lat="44.48942" lon="-1.09059">
        <ele>20</ele>
        <time>2016-04-23T12:59:28Z</time>
      </trkpt>
      <trkpt lat="44.4894" lon="-1.09068">
        <ele>20</ele>
        <time>2016-04-23T12:59:31Z</time>
      </trkpt>
      <trkpt lat="44.48938" lon="-1.09074">
        <ele>20</ele>
        <time>2016-04-23T12:59:33Z</time>
      </trkpt>
      <trkpt lat="44.48935" lon="-1.09082">
        <ele>20</ele>
        <time>2016-04-23T12:59:36Z</time>
      </trkpt>
      <trkpt lat="44.48933" lon="-1.09088">
        <ele>20</ele>
        <time>2016-04-23T12:59:38Z</time>
      </trkpt>
      <trkpt lat="44.48931" lon="-1.09094">
        <ele>20</ele>
        <time>2016-04-23T12:59:40Z</time>
      </trkpt>
      <trkpt lat="44.48928" lon="-1.091">
        <ele>20</ele>
        <time>2016-04-23T12:59:42Z</time>
      </trkpt>
      <trkpt lat="44.48926" lon="-1.09106">
        <ele>20</ele>
        <time>2016-04-23T12:59:44Z</time>
      </trkpt>
      <trkpt lat="44.48922" lon="-1.09118">
        <ele>20</ele>
        <time>2016-04-23T12:59:48Z</time>
      </trkpt>
      <trkpt lat="44.48921" lon="-1.09124">
        <ele>20</ele>
        <time>2016-04-23T12:59:50Z</time>
      </trkpt>
      <trkpt lat="44.48918" lon="-1.09132">
        <ele>20</ele>
        <time>2016-04-23T12:59:53Z</time>
      </trkpt>
      <trkpt lat="44.48916" lon="-1.09141">
        <ele>20</ele>
        <time>2016-04-23T12:59:56Z</time>
      </trkpt>
      <trkpt lat="44.48911" lon="-1.09154">
        <ele>20</ele>
        <time>2016-04-23T13:00:01Z</time>
      </trkpt>
      <trkpt lat="44.48908" lon="-1.09162">
        <ele>20</ele>
        <time>2016-04-23T13:00:04Z</time>
      </trkpt>
      <trkpt lat="44.48906" lon="-1.0917">
        <ele>20</ele>
        <time>2016-04-23T13:00:07Z</time>
      </trkpt>
      <trkpt lat="44.48903" lon="-1.09177">
        <ele>20</ele>
        <time>2016-04-23T13:00:10Z</time>
      </trkpt>
      <trkpt lat="44.489" lon="-1.09186">
        <ele>20</ele>
        <time>2016-04-23T13:00:13Z</time>
      </trkpt>
      <trkpt lat="44.48898" lon="-1.09191">
        <ele>20</ele>
        <time>2016-04-23T13:00:15Z</time>
      </trkpt>
      <trkpt lat="44.48895" lon="-1.09197">
        <ele>20</ele>
        <time>2016-04-23T13:00:17Z</time>
      </trkpt>
      <trkpt lat="44.48893" lon="-1.09204">
        <ele>20</ele>
        <time>2016-04-23T13:00:19Z</time>
      </trkpt>
      <trkpt lat="44.48892" lon="-1.0921">
        <ele>20</ele>
        <time>2016-04-23T13:00:21Z</time>
      </trkpt>
      <trkpt lat="44.4889" lon="-1.09217">
        <ele>20</ele>
        <time>2016-04-23T13:00:23Z</time>
      </trkpt>
      <trkpt lat="44.48888" lon="-1.09223">
        <ele>20</ele>
        <time>2016-04-23T13:00:25Z</time>
      </trkpt>
      <trkpt lat="44.48886" lon="-1.09229">
        <ele>20</ele>
        <time>2016-04-23T13:00:27Z</time>
      </trkpt>
      <trkpt lat="44.48883" lon="-1.09235">
        <ele>20</ele>
        <time>2016-04-23T13:00:29Z</time>
      </trkpt>
      <trkpt lat="44.48881" lon="-1.09241">
        <ele>20</ele>
        <time>2016-04-23T13:00:31Z</time>
      </trkpt>
      <trkpt lat="44.4888" lon="-1.09247">
        <ele>20</ele>
        <time>2016-04-23T13:00:33Z</time>
      </trkpt>
      <trkpt lat="44.48877" lon="-1.09255">
        <ele>20</ele>
        <time>2016-04-23T13:00:36Z</time>
      </trkpt>
      <trkpt lat="44.48874" lon="-1.09263">
        <ele>20</ele>
        <time>2016-04-23T13:00:39Z</time>
      </trkpt>
      <trkpt lat="44.48872" lon="-1.09272">
        <ele>20</ele>
        <time>2016-04-23T13:00:42Z</time>
      </trkpt>
      <trkpt lat="44.4887" lon="-1.09281">
        <ele>20</ele>
        <time>2016-04-23T13:00:45Z</time>
      </trkpt>
      <trkpt lat="44.48869" lon="-1.09287">
        <ele>20</ele>
        <time>2016-04-23T13:00:47Z</time>
      </trkpt>
      <trkpt lat="44.48868" lon="-1.09294">
        <ele>20</ele>
        <time>2016-04-23T13:00:49Z</time>
      </trkpt>
      <trkpt lat="44.48866" lon="-1.09301">
        <ele>20</ele>
        <time>2016-04-23T13:00:51Z</time>
      </trkpt>
      <trkpt lat="44.48864" lon="-1.09307">
        <ele>20</ele>
        <time>2016-04-23T13:00:53Z</time>
      </trkpt>
      <trkpt lat="44.48862" lon="-1.09314">
        <ele>20</ele>
        <time>2016-04-23T13:00:55Z</time>
      </trkpt>
      <trkpt lat="44.4886" lon="-1.0932">
        <ele>20</ele>
        <time>2016-04-23T13:00:57Z</time>
      </trkpt>
      <trkpt lat="44.48859" lon="-1.09326">
        <ele>20</ele>
        <time>2016-04-23T13:00:59Z</time>
      </trkpt>
      <trkpt lat="44.48857" lon="-1.09335">
        <ele>20</ele>
        <time>2016-04-23T13:01:02Z</time>
      </trkpt>
      <trkpt lat="44.48855" lon="-1.0934">
        <ele>20</ele>
        <time>2016-04-23T13:01:04Z</time>
      </trkpt>
      <trkpt lat="44.48853" lon="-1.09346">
        <ele>20</ele>
        <time>2016-04-23T13:01:06Z</time>
      </trkpt>
      <trkpt lat="44.4885" lon="-1.09354">
        <ele>20</ele>
        <time>2016-04-23T13:01:09Z</time>
      </trkpt>
      <trkpt lat="44.48846" lon="-1.09362">
        <ele>20</ele>
        <time>2016-04-23T13:01:12Z</time>
      </trkpt>
      <trkpt lat="44.48844" lon="-1.09367">
        <ele>20</ele>
        <time>2016-04-23T13:01:14Z</time>
      </trkpt>
      <trkpt lat="44.48841" lon="-1.09373">
        <ele>20</ele>
        <time>2016-04-23T13:01:16Z</time>
      </trkpt>
      <trkpt lat="44.48837" lon="-1.0938">
        <ele>20</ele>
        <time>2016-04-23T13:01:19Z</time>
      </trkpt>
      <trkpt lat="44.48834" lon="-1.09386">
        <ele>20</ele>
        <time>2016-04-23T13:01:21Z</time>
      </trkpt>
      <trkpt lat="44.48832" lon="-1.09392">
        <ele>20</ele>
        <time>2016-04-23T13:01:23Z</time>
      </trkpt>
      <trkpt lat="44.48829" lon="-1.09398">
        <ele>20</ele>
        <time>2016-04-23T13:01:25Z</time>
      </trkpt>
      <trkpt lat="44.48826" lon="-1.09404">
        <ele>20</ele>
        <time>2016-04-23T13:01:27Z</time>
      </trkpt>
      <trkpt lat="44.48824" lon="-1.0941">
        <ele>20</ele>
        <time>2016-04-23T13:01:29Z</time>
      </trkpt>
      <trkpt lat="44.48822" lon="-1.09416">
        <ele>20</ele>
        <time>2016-04-23T13:01:31Z</time>
      </trkpt>
      <trkpt lat="44.4882" lon="-1.09422">
        <ele>20</ele>
        <time>2016-04-23T13:01:33Z</time>
      </trkpt>
      <trkpt lat="44.48817" lon="-1.09427">
        <ele>20</ele>
        <time>2016-04-23T13:01:35Z</time>
      </trkpt>
      <trkpt lat="44.48814" lon="-1.09433">
        <ele>20</ele>
        <time>2016-04-23T13:01:37Z</time>
      </trkpt>
      <trkpt lat="44.48811" lon="-1.09439">
        <ele>20</ele>
        <time>2016-04-23T13:01:39Z</time>
      </trkpt>
      <trkpt lat="44.48808" lon="-1.09445">
        <ele>20</ele>
        <time>2016-04-23T13:01:41Z</time>
      </trkpt>
      <trkpt lat="44.48806" lon="-1.09451">
        <ele>20</ele>
        <time>2016-04-23T13:01:43Z</time>
      </trkpt>
      <trkpt lat="44.48804" lon="-1.09458">
        <ele>20</ele>
        <time>2016-04-23T13:01:45Z</time>
      </trkpt>
      <trkpt lat="44.48802" lon="-1.09464">
        <ele>20</ele>
        <time>2016-04-23T13:01:47Z</time>
      </trkpt>
      <trkpt lat="44.48799" lon="-1.0947">
        <ele>20</ele>
        <time>2016-04-23T13:01:49Z</time>
      </trkpt>
      <trkpt lat="44.48795" lon="-1.09484">
        <ele>20</ele>
        <time>2016-04-23T13:01:54Z</time>
      </trkpt>
      <trkpt lat="44.48792" lon="-1.09493">
        <ele>20</ele>
        <time>2016-04-23T13:01:57Z</time>
      </trkpt>
      <trkpt lat="44.4879" lon="-1.09502">
        <ele>20</ele>
        <time>2016-04-23T13:02:00Z</time>
      </trkpt>
      <trkpt lat="44.48788" lon="-1.0951">
        <ele>20</ele>
        <time>2016-04-23T13:02:03Z</time>
      </trkpt>
      <trkpt lat="44.48785" lon="-1.09519">
        <ele>20</ele>
        <time>2016-04-23T13:02:06Z</time>
      </trkpt>
      <trkpt lat="44.48783" lon="-1.09527">
        <ele>20</ele>
        <time>2016-04-23T13:02:09Z</time>
      </trkpt>
      <trkpt lat="44.4878" lon="-1.09535">
        <ele>20</ele>
        <time>2016-04-23T13:02:12Z</time>
      </trkpt>
      <trkpt lat="44.48777" lon="-1.09544">
        <ele>20</ele>
        <time>2016-04-23T13:02:15Z</time>
      </trkpt>
      <trkpt lat="44.48775" lon="-1.09552">
        <ele>20</ele>
        <time>2016-04-23T13:02:18Z</time>
      </trkpt>
      <trkpt lat="44.48772" lon="-1.0956">
        <ele>20</ele>
        <time>2016-04-23T13:02:21Z</time>
      </trkpt>
      <trkpt lat="44.4877" lon="-1.0957">
        <ele>20</ele>
        <time>2016-04-23T13:02:24Z</time>
      </trkpt>
      <trkpt lat="44.48768" lon="-1.09576">
        <ele>20</ele>
        <time>2016-04-23T13:02:26Z</time>
      </trkpt>
      <trkpt lat="44.48767" lon="-1.09582">
        <ele>20</ele>
        <time>2016-04-23T13:02:28Z</time>
      </trkpt>
      <trkpt lat="44.48765" lon="-1.09589">
        <ele>20</ele>
        <time>2016-04-23T13:02:30Z</time>
      </trkpt>
      <trkpt lat="44.48763" lon="-1.09595">
        <ele>20</ele>
        <time>2016-04-23T13:02:32Z</time>
      </trkpt>
      <trkpt lat="44.48762" lon="-1.09601">
        <ele>20</ele>
        <time>2016-04-23T13:02:34Z</time>
      </trkpt>
      <trkpt lat="44.4876" lon="-1.09608">
        <ele>20</ele>
        <time>2016-04-23T13:02:36Z</time>
      </trkpt>
      <trkpt lat="44.48758" lon="-1.09614">
        <ele>20</ele>
        <time>2016-04-23T13:02:38Z</time>
      </trkpt>
      <trkpt lat="44.48756" lon="-1.0962">
        <ele>20</ele>
        <time>2016-04-23T13:02:40Z</time>
      </trkpt>
      <trkpt lat="44.48755" lon="-1.09626">
        <ele>20</ele>
        <time>2016-04-23T13:02:42Z</time>
      </trkpt>
      <trkpt lat="44.48753" lon="-1.09632">
        <ele>20</ele>
        <time>2016-04-23T13:02:44Z</time>
      </trkpt>
      <trkpt lat="44.4875" lon="-1.09641">
        <ele>20</ele>
        <time>2016-04-23T13:02:47Z</time>
      </trkpt>
      <trkpt lat="44.48748" lon="-1.09647">
        <ele>20</ele>
        <time>2016-04-23T13:02:49Z</time>
      </trkpt>
      <trkpt lat="44.48746" lon="-1.09656">
        <ele>20</ele>
        <time>2016-04-23T13:02:52Z</time>
      </trkpt>
      <trkpt lat="44.48745" lon="-1.09662">
        <ele>20</ele>
        <time>2016-04-23T13:02:54Z</time>
      </trkpt>
      <trkpt lat="44.48743" lon="-1.09668">
        <ele>20</ele>
        <time>2016-04-23T13:02:56Z</time>
      </trkpt>
      <trkpt lat="44.48742" lon="-1.09677">
        <ele>20</ele>
        <time>2016-04-23T13:02:59Z</time>
      </trkpt>
      <trkpt lat="44.4874" lon="-1.09686">
        <ele>20</ele>
        <time>2016-04-23T13:03:02Z</time>
      </trkpt>
      <trkpt lat="44.48738" lon="-1.09694">
        <ele>20</ele>
        <time>2016-04-23T13:03:05Z</time>
      </trkpt>
      <trkpt lat="44.48736" lon="-1.09701">
        <ele>20</ele>
        <time>2016-04-23T13:03:07Z</time>
      </trkpt>
      <trkpt lat="44.48734" lon="-1.09707">
        <ele>20</ele>
        <time>2016-04-23T13:03:09Z</time>
      </trkpt>
      <trkpt lat="44.48733" lon="-1.09714">
        <ele>20</ele>
        <time>2016-04-23T13:03:11Z</time>
      </trkpt>
      <trkpt lat="44.48732" lon="-1.0972">
        <ele>20</ele>
        <time>2016-04-23T13:03:13Z</time>
      </trkpt>
      <trkpt lat="44.4873" lon="-1.09727">
        <ele>20</ele>
        <time>2016-04-23T13:03:15Z</time>
      </trkpt>
      <trkpt lat="44.48729" lon="-1.09734">
        <ele>20</ele>
        <time>2016-04-23T13:03:17Z</time>
      </trkpt>
      <trkpt lat="44.48727" lon="-1.09741">
        <ele>20</ele>
        <time>2016-04-23T13:03:19Z</time>
      </trkpt>
      <trkpt lat="44.48726" lon="-1.09748">
        <ele>20</ele>
        <time>2016-04-23T13:03:21Z</time>
      </trkpt>
      <trkpt lat="44.48725" lon="-1.09754">
        <ele>20</ele>
        <time>2016-04-23T13:03:23Z</time>
      </trkpt>
      <trkpt lat="44.48723" lon="-1.0976">
        <ele>20</ele>
        <time>2016-04-23T13:03:25Z</time>
      </trkpt>
      <trkpt lat="44.48722" lon="-1.09767">
        <ele>20</ele>
        <time>2016-04-23T13:03:27Z</time>
      </trkpt>
      <trkpt lat="44.4872" lon="-1.09773">
        <ele>20</ele>
        <time>2016-04-23T13:03:29Z</time>
      </trkpt>
      <trkpt lat="44.48718" lon="-1.09781">
        <ele>20</ele>
        <time>2016-04-23T13:03:32Z</time>
      </trkpt>
      <trkpt lat="44.48716" lon="-1.09789">
        <ele>20</ele>
        <time>2016-04-23T13:03:35Z</time>
      </trkpt>
      <trkpt lat="44.48714" lon="-1.09797">
        <ele>20</ele>
        <time>2016-04-23T13:03:38Z</time>
      </trkpt>
      <trkpt lat="44.48711" lon="-1.09805">
        <ele>20</ele>
        <time>2016-04-23T13:03:41Z</time>
      </trkpt>
      <trkpt lat="44.48709" lon="-1.09811">
        <ele>20</ele>
        <time>2016-04-23T13:03:43Z</time>
      </trkpt>
      <trkpt lat="44.48708" lon="-1.09817">
        <ele>20</ele>
        <time>2016-04-23T13:03:45Z</time>
      </trkpt>
      <trkpt lat="44.48706" lon="-1.09823">
        <ele>20</ele>
        <time>2016-04-23T13:03:47Z</time>
      </trkpt>
      <trkpt lat="44.48704" lon="-1.09829">
        <ele>20</ele>
        <time>2016-04-23T13:03:49Z</time>
      </trkpt>
      <trkpt lat="44.48702" lon="-1.09835">
        <ele>20</ele>
        <time>2016-04-23T13:03:51Z</time>
      </trkpt>
      <trkpt lat="44.487" lon="-1.09841">
        <ele>20</ele>
        <time>2016-04-23T13:03:53Z</time>
      </trkpt>
      <trkpt lat="44.48698" lon="-1.09847">
        <ele>20</ele>
        <time>2016-04-23T13:03:55Z</time>
      </trkpt>
      <trkpt lat="44.48696" lon="-1.09856">
        <ele>20</ele>
        <time>2016-04-23T13:03:58Z</time>
      </trkpt>
      <trkpt lat="44.48694" lon="-1.09862">
        <ele>20</ele>
        <time>2016-04-23T13:04:00Z</time>
      </trkpt>
      <trkpt lat="44.48691" lon="-1.09871">
        <ele>20</ele>
        <time>2016-04-23T13:04:03Z</time>
      </trkpt>
      <trkpt lat="44.48689" lon="-1.09879">
        <ele>20</ele>
        <time>2016-04-23T13:04:06Z</time>
      </trkpt>
      <trkpt lat="44.48687" lon="-1.09886">
        <ele>20</ele>
        <time>2016-04-23T13:04:08Z</time>
      </trkpt>
      <trkpt lat="44.48686" lon="-1.09892">
        <ele>20</ele>
        <time>2016-04-23T13:04:10Z</time>
      </trkpt>
      <trkpt lat="44.48685" lon="-1.09898">
        <ele>20</ele>
        <time>2016-04-23T13:04:12Z</time>
      </trkpt>
      <trkpt lat="44.48684" lon="-1.09905">
        <ele>20</ele>
        <time>2016-04-23T13:04:14Z</time>
      </trkpt>
      <trkpt lat="44.48683" lon="-1.09912">
        <ele>20</ele>
        <time>2016-04-23T13:04:16Z</time>
      </trkpt>
      <trkpt lat="44.48682" lon="-1.09918">
        <ele>20</ele>
        <time>2016-04-23T13:04:18Z</time>
      </trkpt>
      <trkpt lat="44.48679" lon="-1.09926">
        <ele>20</ele>
        <time>2016-04-23T13:04:21Z</time>
      </trkpt>
      <trkpt lat="44.48678" lon="-1.09932">
        <ele>20</ele>
        <time>2016-04-23T13:04:23Z</time>
      </trkpt>
      <trkpt lat="44.48676" lon="-1.09939">
        <ele>20</ele>
        <time>2016-04-23T13:04:25Z</time>
      </trkpt>
      <trkpt lat="44.48675" lon="-1.09945">
        <ele>20</ele>
        <time>2016-04-23T13:04:27Z</time>
      </trkpt>
      <trkpt lat="44.48674" lon="-1.09951">
        <ele>20</ele>
        <time>2016-04-23T13:04:29Z</time>
      </trkpt>
      <trkpt lat="44.48672" lon="-1.09957">
        <ele>20</ele>
        <time>2016-04-23T13:04:31Z</time>
      </trkpt>
      <trkpt lat="44.4867" lon="-1.09963">
        <ele>20</ele>
        <time>2016-04-23T13:04:33Z</time>
      </trkpt>
      <trkpt lat="44.48668" lon="-1.09969">
        <ele>20</ele>
        <time>2016-04-23T13:04:35Z</time>
      </trkpt>
      <trkpt lat="44.48666" lon="-1.09975">
        <ele>20</ele>
        <time>2016-04-23T13:04:37Z</time>
      </trkpt>
      <trkpt lat="44.48664" lon="-1.09981">
        <ele>20</ele>
        <time>2016-04-23T13:04:39Z</time>
      </trkpt>
      <trkpt lat="44.48662" lon="-1.09988">
        <ele>20</ele>
        <time>2016-04-23T13:04:41Z</time>
      </trkpt>
      <trkpt lat="44.48661" lon="-1.09994">
        <ele>20</ele>
        <time>2016-04-23T13:04:43Z</time>
      </trkpt>
      <trkpt lat="44.48659" lon="-1.1">
        <ele>20</ele>
        <time>2016-04-23T13:04:45Z</time>
      </trkpt>
      <trkpt lat="44.48657" lon="-1.10006">
        <ele>20</ele>
        <time>2016-04-23T13:04:47Z</time>
      </trkpt>
      <trkpt lat="44.48656" lon="-1.10013">
        <ele>20</ele>
        <time>2016-04-23T13:04:49Z</time>
      </trkpt>
      <trkpt lat="44.48654" lon="-1.1002">
        <ele>20</ele>
        <time>2016-04-23T13:04:51Z</time>
      </trkpt>
      <trkpt lat="44.48651" lon="-1.10027">
        <ele>20</ele>
        <time>2016-04-23T13:04:53Z</time>
      </trkpt>
      <trkpt lat="44.48649" lon="-1.10033">
        <ele>20</ele>
        <time>2016-04-23T13:04:55Z</time>
      </trkpt>
      <trkpt lat="44.48647" lon="-1.1004">
        <ele>20</ele>
        <time>2016-04-23T13:04:57Z</time>
      </trkpt>
      <trkpt lat="44.48645" lon="-1.10046">
        <ele>20</ele>
        <time>2016-04-23T13:04:59Z</time>
      </trkpt>
      <trkpt lat="44.48643" lon="-1.10052">
        <ele>20</ele>
        <time>2016-04-23T13:05:01Z</time>
      </trkpt>
      <trkpt lat="44.48643" lon="-1.1006">
        <ele>20</ele>
        <time>2016-04-23T13:05:04Z</time>
      </trkpt>
      <trkpt lat="44.48645" lon="-1.10065">
        <ele>20</ele>
        <time>2016-04-23T13:05:07Z</time>
      </trkpt>
      <trkpt lat="44.48649" lon="-1.10069">
        <ele>20</ele>
        <time>2016-04-23T13:05:18Z</time>
      </trkpt>
      <trkpt lat="44.48658" lon="-1.10068">
        <ele>20</ele>
        <time>2016-04-23T13:05:28Z</time>
      </trkpt>
      <trkpt lat="44.48664" lon="-1.10068">
        <ele>20</ele>
        <time>2016-04-23T13:05:31Z</time>
      </trkpt>
      <trkpt lat="44.48671" lon="-1.10068">
        <ele>20</ele>
        <time>2016-04-23T13:05:34Z</time>
      </trkpt>
      <trkpt lat="44.48676" lon="-1.10067">
        <ele>20</ele>
        <time>2016-04-23T13:05:36Z</time>
      </trkpt>
      <trkpt lat="44.48681" lon="-1.10066">
        <ele>20</ele>
        <time>2016-04-23T13:05:38Z</time>
      </trkpt>
      <trkpt lat="44.48686" lon="-1.10065">
        <ele>20</ele>
        <time>2016-04-23T13:05:40Z</time>
      </trkpt>
      <trkpt lat="44.48692" lon="-1.10065">
        <ele>20</ele>
        <time>2016-04-23T13:05:42Z</time>
      </trkpt>
      <trkpt lat="44.48697" lon="-1.10064">
        <ele>20</ele>
        <time>2016-04-23T13:05:44Z</time>
      </trkpt>
      <trkpt lat="44.48703" lon="-1.10063">
        <ele>20</ele>
        <time>2016-04-23T13:05:46Z</time>
      </trkpt>
      <trkpt lat="44.48709" lon="-1.10062">
        <ele>20</ele>
        <time>2016-04-23T13:05:48Z</time>
      </trkpt>
      <trkpt lat="44.48714" lon="-1.1006">
        <ele>20</ele>
        <time>2016-04-23T13:05:50Z</time>
      </trkpt>
      <trkpt lat="44.4872" lon="-1.10058">
        <ele>20</ele>
        <time>2016-04-23T13:05:52Z</time>
      </trkpt>
      <trkpt lat="44.48726" lon="-1.10057">
        <ele>20</ele>
        <time>2016-04-23T13:05:54Z</time>
      </trkpt>
      <trkpt lat="44.48731" lon="-1.10056">
        <ele>20</ele>
        <time>2016-04-23T13:05:56Z</time>
      </trkpt>
      <trkpt lat="44.48737" lon="-1.10054">
        <ele>20</ele>
        <time>2016-04-23T13:05:58Z</time>
      </trkpt>
      <trkpt lat="44.48743" lon="-1.10054">
        <ele>20</ele>
        <time>2016-04-23T13:06:00Z</time>
      </trkpt>
      <trkpt lat="44.48748" lon="-1.10053">
        <ele>20</ele>
        <time>2016-04-23T13:06:02Z</time>
      </trkpt>
      <trkpt lat="44.48754" lon="-1.10053">
        <ele>20</ele>
        <time>2016-04-23T13:06:04Z</time>
      </trkpt>
      <trkpt lat="44.4876" lon="-1.10053">
        <ele>20</ele>
        <time>2016-04-23T13:06:06Z</time>
      </trkpt>
      <trkpt lat="44.48766" lon="-1.10052">
        <ele>20</ele>
        <time>2016-04-23T13:06:08Z</time>
      </trkpt>
      <trkpt lat="44.48772" lon="-1.10051">
        <ele>20</ele>
        <time>2016-04-23T13:06:10Z</time>
      </trkpt>
      <trkpt lat="44.48777" lon="-1.1005">
        <ele>20</ele>
        <time>2016-04-23T13:06:12Z</time>
      </trkpt>
      <trkpt lat="44.48783" lon="-1.10048">
        <ele>20</ele>
        <time>2016-04-23T13:06:14Z</time>
      </trkpt>
      <trkpt lat="44.48788" lon="-1.10048">
        <ele>20</ele>
        <time>2016-04-23T13:06:16Z</time>
      </trkpt>
      <trkpt lat="44.48794" lon="-1.10046">
        <ele>20</ele>
        <time>2016-04-23T13:06:18Z</time>
      </trkpt>
      <trkpt lat="44.48799" lon="-1.10045">
        <ele>20</ele>
        <time>2016-04-23T13:06:20Z</time>
      </trkpt>
      <trkpt lat="44.48805" lon="-1.10043">
        <ele>20</ele>
        <time>2016-04-23T13:06:22Z</time>
      </trkpt>
      <trkpt lat="44.48811" lon="-1.10042">
        <ele>20</ele>
        <time>2016-04-23T13:06:24Z</time>
      </trkpt>
      <trkpt lat="44.48816" lon="-1.10042">
        <ele>20</ele>
        <time>2016-04-23T13:06:26Z</time>
      </trkpt>
      <trkpt lat="44.48822" lon="-1.10042">
        <ele>20</ele>
        <time>2016-04-23T13:06:28Z</time>
      </trkpt>
      <trkpt lat="44.48828" lon="-1.10041">
        <ele>20</ele>
        <time>2016-04-23T13:06:30Z</time>
      </trkpt>
      <trkpt lat="44.48833" lon="-1.1004">
        <ele>20</ele>
        <time>2016-04-23T13:06:32Z</time>
      </trkpt>
      <trkpt lat="44.48838" lon="-1.10038">
        <ele>20</ele>
        <time>2016-04-23T13:06:34Z</time>
      </trkpt>
      <trkpt lat="44.48844" lon="-1.10037">
        <ele>20</ele>
        <time>2016-04-23T13:06:36Z</time>
      </trkpt>
      <trkpt lat="44.4885" lon="-1.10036">
        <ele>20</ele>
        <time>2016-04-23T13:06:38Z</time>
      </trkpt>
      <trkpt lat="44.48855" lon="-1.10035">
        <ele>20</ele>
        <time>2016-04-23T13:06:40Z</time>
      </trkpt>
      <trkpt lat="44.48861" lon="-1.10034">
        <ele>20</ele>
        <time>2016-04-23T13:06:42Z</time>
      </trkpt>
      <trkpt lat="44.48867" lon="-1.10034">
        <ele>20</ele>
        <time>2016-04-23T13:06:44Z</time>
      </trkpt>
      <trkpt lat="44.48873" lon="-1.10034">
        <ele>20</ele>
        <time>2016-04-23T13:06:46Z</time>
      </trkpt>
      <trkpt lat="44.48879" lon="-1.10034">
        <ele>20</ele>
        <time>2016-04-23T13:06:48Z</time>
      </trkpt>
      <trkpt lat="44.48884" lon="-1.10032">
        <ele>20</ele>
        <time>2016-04-23T13:06:50Z</time>
      </trkpt>
      <trkpt lat="44.4889" lon="-1.10031">
        <ele>20</ele>
        <time>2016-04-23T13:06:52Z</time>
      </trkpt>
      <trkpt lat="44.48896" lon="-1.10029">
        <ele>20</ele>
        <time>2016-04-23T13:06:54Z</time>
      </trkpt>
      <trkpt lat="44.48902" lon="-1.10029">
        <ele>20</ele>
        <time>2016-04-23T13:06:56Z</time>
      </trkpt>
      <trkpt lat="44.48907" lon="-1.10027">
        <ele>20</ele>
        <time>2016-04-23T13:06:58Z</time>
      </trkpt>
      <trkpt lat="44.48913" lon="-1.10025">
        <ele>20</ele>
        <time>2016-04-23T13:07:00Z</time>
      </trkpt>
      <trkpt lat="44.48918" lon="-1.10024">
        <ele>20</ele>
        <time>2016-04-23T13:07:02Z</time>
      </trkpt>
      <trkpt lat="44.48923" lon="-1.10022">
        <ele>20</ele>
        <time>2016-04-23T13:07:04Z</time>
      </trkpt>
      <trkpt lat="44.48928" lon="-1.1002">
        <ele>20</ele>
        <time>2016-04-23T13:07:06Z</time>
      </trkpt>
      <trkpt lat="44.48934" lon="-1.10019">
        <ele>20</ele>
        <time>2016-04-23T13:07:08Z</time>
      </trkpt>
      <trkpt lat="44.48939" lon="-1.10019">
        <ele>20</ele>
        <time>2016-04-23T13:07:10Z</time>
      </trkpt>
      <trkpt lat="44.48944" lon="-1.10019">
        <ele>20</ele>
        <time>2016-04-23T13:07:12Z</time>
      </trkpt>
      <trkpt lat="44.48949" lon="-1.10018">
        <ele>20</ele>
        <time>2016-04-23T13:07:14Z</time>
      </trkpt>
      <trkpt lat="44.48954" lon="-1.10017">
        <ele>20</ele>
        <time>2016-04-23T13:07:16Z</time>
      </trkpt>
      <trkpt lat="44.48959" lon="-1.10016">
        <ele>20</ele>
        <time>2016-04-23T13:07:18Z</time>
      </trkpt>
      <trkpt lat="44.48964" lon="-1.10016">
        <ele>20</ele>
        <time>2016-04-23T13:07:20Z</time>
      </trkpt>
      <trkpt lat="44.48969" lon="-1.10015">
        <ele>20</ele>
        <time>2016-04-23T13:07:22Z</time>
      </trkpt>
      <trkpt lat="44.48976" lon="-1.10015">
        <ele>20</ele>
        <time>2016-04-23T13:07:25Z</time>
      </trkpt>
      <trkpt lat="44.4898" lon="-1.10015">
        <ele>20</ele>
        <time>2016-04-23T13:07:27Z</time>
      </trkpt>
      <trkpt lat="44.48985" lon="-1.10015">
        <ele>20</ele>
        <time>2016-04-23T13:07:29Z</time>
      </trkpt>
      <trkpt lat="44.4899" lon="-1.10015">
        <ele>20</ele>
        <time>2016-04-23T13:07:31Z</time>
      </trkpt>
      <trkpt lat="44.48995" lon="-1.10015">
        <ele>20</ele>
        <time>2016-04-23T13:07:33Z</time>
      </trkpt>
      <trkpt lat="44.49" lon="-1.10015">
        <ele>20</ele>
        <time>2016-04-23T13:07:35Z</time>
      </trkpt>
      <trkpt lat="44.49004" lon="-1.10015">
        <ele>20</ele>
        <time>2016-04-23T13:07:37Z</time>
      </trkpt>
      <trkpt lat="44.49009" lon="-1.10015">
        <ele>20</ele>
        <time>2016-04-23T13:07:39Z</time>
      </trkpt>
      <trkpt lat="44.49014" lon="-1.10014">
        <ele>20</ele>
        <time>2016-04-23T13:07:41Z</time>
      </trkpt>
      <trkpt lat="44.49019" lon="-1.10014">
        <ele>20</ele>
        <time>2016-04-23T13:07:43Z</time>
      </trkpt>
      <trkpt lat="44.49024" lon="-1.10014">
        <ele>20</ele>
        <time>2016-04-23T13:07:45Z</time>
      </trkpt>
      <trkpt lat="44.49029" lon="-1.10014">
        <ele>20</ele>
        <time>2016-04-23T13:07:47Z</time>
      </trkpt>
      <trkpt lat="44.49034" lon="-1.10014">
        <ele>20</ele>
        <time>2016-04-23T13:07:49Z</time>
      </trkpt>
      <trkpt lat="44.49038" lon="-1.10015">
        <ele>20</ele>
        <time>2016-04-23T13:07:51Z</time>
      </trkpt>
      <trkpt lat="44.49043" lon="-1.10016">
        <ele>20</ele>
        <time>2016-04-23T13:07:53Z</time>
      </trkpt>
      <trkpt lat="44.49048" lon="-1.10017">
        <ele>20</ele>
        <time>2016-04-23T13:07:55Z</time>
      </trkpt>
      <trkpt lat="44.49054" lon="-1.10019">
        <ele>20</ele>
        <time>2016-04-23T13:07:57Z</time>
      </trkpt>
      <trkpt lat="44.49059" lon="-1.1002">
        <ele>20</ele>
        <time>2016-04-23T13:07:59Z</time>
      </trkpt>
      <trkpt lat="44.49064" lon="-1.1002">
        <ele>20</ele>
        <time>2016-04-23T13:08:01Z</time>
      </trkpt>
      <trkpt lat="44.49069" lon="-1.1002">
        <ele>20</ele>
        <time>2016-04-23T13:08:03Z</time>
      </trkpt>
      <trkpt lat="44.4908" lon="-1.10019">
        <ele>20</ele>
        <time>2016-04-23T13:08:08Z</time>
      </trkpt>
      <trkpt lat="44.49085" lon="-1.1002">
        <ele>20</ele>
        <time>2016-04-23T13:08:10Z</time>
      </trkpt>
      <trkpt lat="44.49096" lon="-1.1002">
        <ele>20</ele>
        <time>2016-04-23T13:08:15Z</time>
      </trkpt>
      <trkpt lat="44.49101" lon="-1.1002">
        <ele>20</ele>
        <time>2016-04-23T13:08:17Z</time>
      </trkpt>
      <trkpt lat="44.4911" lon="-1.10019">
        <ele>20</ele>
        <time>2016-04-23T13:08:21Z</time>
      </trkpt>
      <trkpt lat="44.49115" lon="-1.10019">
        <ele>20</ele>
        <time>2016-04-23T13:08:23Z</time>
      </trkpt>
      <trkpt lat="44.4912" lon="-1.10019">
        <ele>20</ele>
        <time>2016-04-23T13:08:25Z</time>
      </trkpt>
      <trkpt lat="44.49124" lon="-1.10019">
        <ele>20</ele>
        <time>2016-04-23T13:08:27Z</time>
      </trkpt>
      <trkpt lat="44.49135" lon="-1.1002">
        <ele>20</ele>
        <time>2016-04-23T13:08:32Z</time>
      </trkpt>
      <trkpt lat="44.49144" lon="-1.1002">
        <ele>20</ele>
        <time>2016-04-23T13:08:36Z</time>
      </trkpt>
      <trkpt lat="44.49153" lon="-1.1002">
        <ele>20</ele>
        <time>2016-04-23T13:08:40Z</time>
      </trkpt>
      <trkpt lat="44.4916" lon="-1.10021">
        <ele>20</ele>
        <time>2016-04-23T13:08:43Z</time>
      </trkpt>
      <trkpt lat="44.49166" lon="-1.10021">
        <ele>20</ele>
        <time>2016-04-23T13:08:46Z</time>
      </trkpt>
      <trkpt lat="44.4917" lon="-1.10023">
        <ele>20</ele>
        <time>2016-04-23T13:08:49Z</time>
      </trkpt>
      <trkpt lat="44.49174" lon="-1.10028">
        <ele>20</ele>
        <time>2016-04-23T13:08:55Z</time>
      </trkpt>
      <trkpt lat="44.49173" lon="-1.10035">
        <ele>20</ele>
        <time>2016-04-23T13:08:59Z</time>
      </trkpt>
      <trkpt lat="44.4917" lon="-1.10043">
        <ele>20</ele>
        <time>2016-04-23T13:09:03Z</time>
      </trkpt>
      <trkpt lat="44.49167" lon="-1.1005">
        <ele>20</ele>
        <time>2016-04-23T13:09:06Z</time>
      </trkpt>
      <trkpt lat="44.49164" lon="-1.10058">
        <ele>20</ele>
        <time>2016-04-23T13:09:09Z</time>
      </trkpt>
      <trkpt lat="44.49162" lon="-1.10065">
        <ele>20</ele>
        <time>2016-04-23T13:09:11Z</time>
      </trkpt>
      <trkpt lat="44.4916" lon="-1.1007">
        <ele>20</ele>
        <time>2016-04-23T13:09:13Z</time>
      </trkpt>
      <trkpt lat="44.49158" lon="-1.10076">
        <ele>20</ele>
        <time>2016-04-23T13:09:15Z</time>
      </trkpt>
      <trkpt lat="44.49155" lon="-1.10084">
        <ele>20</ele>
        <time>2016-04-23T13:09:18Z</time>
      </trkpt>
      <trkpt lat="44.49153" lon="-1.10092">
        <ele>20</ele>
        <time>2016-04-23T13:09:21Z</time>
      </trkpt>
      <trkpt lat="44.49149" lon="-1.101">
        <ele>20</ele>
        <time>2016-04-23T13:09:24Z</time>
      </trkpt>
      <trkpt lat="44.49147" lon="-1.10106">
        <ele>20</ele>
        <time>2016-04-23T13:09:26Z</time>
      </trkpt>
      <trkpt lat="44.49144" lon="-1.10115">
        <ele>20</ele>
        <time>2016-04-23T13:09:29Z</time>
      </trkpt>
      <trkpt lat="44.49143" lon="-1.10121">
        <ele>20</ele>
        <time>2016-04-23T13:09:31Z</time>
      </trkpt>
      <trkpt lat="44.49141" lon="-1.10127">
        <ele>20</ele>
        <time>2016-04-23T13:09:33Z</time>
      </trkpt>
      <trkpt lat="44.49138" lon="-1.10135">
        <ele>20</ele>
        <time>2016-04-23T13:09:36Z</time>
      </trkpt>
      <trkpt lat="44.49136" lon="-1.10141">
        <ele>20</ele>
        <time>2016-04-23T13:09:39Z</time>
      </trkpt>
      <trkpt lat="44.49134" lon="-1.10147">
        <ele>20</ele>
        <time>2016-04-23T13:09:42Z</time>
      </trkpt>
      <trkpt lat="44.49131" lon="-1.10155">
        <ele>20</ele>
        <time>2016-04-23T13:09:45Z</time>
      </trkpt>
      <trkpt lat="44.49128" lon="-1.10163">
        <ele>20</ele>
        <time>2016-04-23T13:09:48Z</time>
      </trkpt>
      <trkpt lat="44.49126" lon="-1.10171">
        <ele>20</ele>
        <time>2016-04-23T13:09:51Z</time>
      </trkpt>
      <trkpt lat="44.49122" lon="-1.10186">
        <ele>20</ele>
        <time>2016-04-23T13:09:56Z</time>
      </trkpt>
      <trkpt lat="44.4912" lon="-1.10194">
        <ele>20</ele>
        <time>2016-04-23T13:09:59Z</time>
      </trkpt>
      <trkpt lat="44.49117" lon="-1.10202">
        <ele>20</ele>
        <time>2016-04-23T13:10:02Z</time>
      </trkpt>
      <trkpt lat="44.49115" lon="-1.1021">
        <ele>20</ele>
        <time>2016-04-23T13:10:05Z</time>
      </trkpt>
      <trkpt lat="44.49112" lon="-1.10219">
        <ele>20</ele>
        <time>2016-04-23T13:10:08Z</time>
      </trkpt>
      <trkpt lat="44.4911" lon="-1.10227">
        <ele>20</ele>
        <time>2016-04-23T13:10:11Z</time>
      </trkpt>
      <trkpt lat="44.49108" lon="-1.10235">
        <ele>20</ele>
        <time>2016-04-23T13:10:14Z</time>
      </trkpt>
      <trkpt lat="44.49106" lon="-1.10245">
        <ele>20</ele>
        <time>2016-04-23T13:10:17Z</time>
      </trkpt>
      <trkpt lat="44.49105" lon="-1.10252">
        <ele>20</ele>
        <time>2016-04-23T13:10:19Z</time>
      </trkpt>
      <trkpt lat="44.49104" lon="-1.10258">
        <ele>20</ele>
        <time>2016-04-23T13:10:21Z</time>
      </trkpt>
      <trkpt lat="44.49102" lon="-1.10264">
        <ele>20</ele>
        <time>2016-04-23T13:10:23Z</time>
      </trkpt>
      <trkpt lat="44.491" lon="-1.1027">
        <ele>20</ele>
        <time>2016-04-23T13:10:25Z</time>
      </trkpt>
      <trkpt lat="44.49098" lon="-1.10276">
        <ele>20</ele>
        <time>2016-04-23T13:10:27Z</time>
      </trkpt>
      <trkpt lat="44.49097" lon="-1.10283">
        <ele>20</ele>
        <time>2016-04-23T13:10:29Z</time>
      </trkpt>
      <trkpt lat="44.49095" lon="-1.10289">
        <ele>20</ele>
        <time>2016-04-23T13:10:31Z</time>
      </trkpt>
      <trkpt lat="44.49094" lon="-1.10296">
        <ele>20</ele>
        <time>2016-04-23T13:10:33Z</time>
      </trkpt>
      <trkpt lat="44.49092" lon="-1.10303">
        <ele>20</ele>
        <time>2016-04-23T13:10:35Z</time>
      </trkpt>
      <trkpt lat="44.49091" lon="-1.1031">
        <ele>20</ele>
        <time>2016-04-23T13:10:37Z</time>
      </trkpt>
      <trkpt lat="44.49089" lon="-1.10316">
        <ele>20</ele>
        <time>2016-04-23T13:10:39Z</time>
      </trkpt>
      <trkpt lat="44.49087" lon="-1.10322">
        <ele>20</ele>
        <time>2016-04-23T13:10:41Z</time>
      </trkpt>
      <trkpt lat="44.49085" lon="-1.10331">
        <ele>20</ele>
        <time>2016-04-23T13:10:44Z</time>
      </trkpt>
      <trkpt lat="44.49083" lon="-1.10339">
        <ele>20</ele>
        <time>2016-04-23T13:10:47Z</time>
      </trkpt>
      <trkpt lat="44.49081" lon="-1.10347">
        <ele>20</ele>
        <time>2016-04-23T13:10:50Z</time>
      </trkpt>
      <trkpt lat="44.49079" lon="-1.10356">
        <ele>20</ele>
        <time>2016-04-23T13:10:53Z</time>
      </trkpt>
      <trkpt lat="44.49078" lon="-1.10363">
        <ele>20</ele>
        <time>2016-04-23T13:10:55Z</time>
      </trkpt>
      <trkpt lat="44.49075" lon="-1.10377">
        <ele>20</ele>
        <time>2016-04-23T13:11:00Z</time>
      </trkpt>
      <trkpt lat="44.49073" lon="-1.10384">
        <ele>20</ele>
        <time>2016-04-23T13:11:02Z</time>
      </trkpt>
      <trkpt lat="44.49071" lon="-1.1039">
        <ele>20</ele>
        <time>2016-04-23T13:11:04Z</time>
      </trkpt>
      <trkpt lat="44.4907" lon="-1.10396">
        <ele>20</ele>
        <time>2016-04-23T13:11:06Z</time>
      </trkpt>
      <trkpt lat="44.49068" lon="-1.10403">
        <ele>20</ele>
        <time>2016-04-23T13:11:08Z</time>
      </trkpt>
      <trkpt lat="44.49067" lon="-1.10409">
        <ele>20</ele>
        <time>2016-04-23T13:11:10Z</time>
      </trkpt>
      <trkpt lat="44.49065" lon="-1.10415">
        <ele>20</ele>
        <time>2016-04-23T13:11:12Z</time>
      </trkpt>
      <trkpt lat="44.49063" lon="-1.10424">
        <ele>20</ele>
        <time>2016-04-23T13:11:15Z</time>
      </trkpt>
      <trkpt lat="44.49059" lon="-1.10432">
        <ele>20</ele>
        <time>2016-04-23T13:11:18Z</time>
      </trkpt>
      <trkpt lat="44.49056" lon="-1.10444">
        <ele>20</ele>
        <time>2016-04-23T13:11:22Z</time>
      </trkpt>
      <trkpt lat="44.49054" lon="-1.1045">
        <ele>20</ele>
        <time>2016-04-23T13:11:24Z</time>
      </trkpt>
      <trkpt lat="44.4905" lon="-1.10465">
        <ele>20</ele>
        <time>2016-04-23T13:11:29Z</time>
      </trkpt>
      <trkpt lat="44.49047" lon="-1.10472">
        <ele>20</ele>
        <time>2016-04-23T13:11:32Z</time>
      </trkpt>
      <trkpt lat="44.49044" lon="-1.10479">
        <ele>20</ele>
        <time>2016-04-23T13:11:35Z</time>
      </trkpt>
      <trkpt lat="44.49041" lon="-1.10487">
        <ele>20</ele>
        <time>2016-04-23T13:11:38Z</time>
      </trkpt>
      <trkpt lat="44.49038" lon="-1.10495">
        <ele>20</ele>
        <time>2016-04-23T13:11:41Z</time>
      </trkpt>
      <trkpt lat="44.49035" lon="-1.10502">
        <ele>20</ele>
        <time>2016-04-23T13:11:44Z</time>
      </trkpt>
      <trkpt lat="44.49032" lon="-1.1051">
        <ele>20</ele>
        <time>2016-04-23T13:11:47Z</time>
      </trkpt>
      <trkpt lat="44.49029" lon="-1.10518">
        <ele>20</ele>
        <time>2016-04-23T13:11:50Z</time>
      </trkpt>
      <trkpt lat="44.49026" lon="-1.10526">
        <ele>20</ele>
        <time>2016-04-23T13:11:53Z</time>
      </trkpt>
      <trkpt lat="44.49024" lon="-1.10534">
        <ele>20</ele>
        <time>2016-04-23T13:11:56Z</time>
      </trkpt>
      <trkpt lat="44.49022" lon="-1.10542">
        <ele>20</ele>
        <time>2016-04-23T13:11:59Z</time>
      </trkpt>
      <trkpt lat="44.49019" lon="-1.1055">
        <ele>20</ele>
        <time>2016-04-23T13:12:02Z</time>
      </trkpt>
      <trkpt lat="44.49017" lon="-1.10558">
        <ele>20</ele>
        <time>2016-04-23T13:12:05Z</time>
      </trkpt>
      <trkpt lat="44.49014" lon="-1.10566">
        <ele>20</ele>
        <time>2016-04-23T13:12:08Z</time>
      </trkpt>
      <trkpt lat="44.49013" lon="-1.10572">
        <ele>20</ele>
        <time>2016-04-23T13:12:10Z</time>
      </trkpt>
      <trkpt lat="44.4901" lon="-1.10581">
        <ele>20</ele>
        <time>2016-04-23T13:12:13Z</time>
      </trkpt>
      <trkpt lat="44.49007" lon="-1.10589">
        <ele>20</ele>
        <time>2016-04-23T13:12:16Z</time>
      </trkpt>
      <trkpt lat="44.49005" lon="-1.10598">
        <ele>20</ele>
        <time>2016-04-23T13:12:19Z</time>
      </trkpt>
      <trkpt lat="44.49003" lon="-1.10604">
        <ele>20</ele>
        <time>2016-04-23T13:12:21Z</time>
      </trkpt>
      <trkpt lat="44.49001" lon="-1.1061">
        <ele>20</ele>
        <time>2016-04-23T13:12:23Z</time>
      </trkpt>
      <trkpt lat="44.48999" lon="-1.10616">
        <ele>20</ele>
        <time>2016-04-23T13:12:25Z</time>
      </trkpt>
      <trkpt lat="44.48995" lon="-1.1063">
        <ele>20</ele>
        <time>2016-04-23T13:12:30Z</time>
      </trkpt>
      <trkpt lat="44.48992" lon="-1.10638">
        <ele>20</ele>
        <time>2016-04-23T13:12:33Z</time>
      </trkpt>
      <trkpt lat="44.48991" lon="-1.10644">
        <ele>20</ele>
        <time>2016-04-23T13:12:35Z</time>
      </trkpt>
      <trkpt lat="44.48988" lon="-1.10653">
        <ele>20</ele>
        <time>2016-04-23T13:12:38Z</time>
      </trkpt>
      <trkpt lat="44.48986" lon="-1.10659">
        <ele>20</ele>
        <time>2016-04-23T13:12:40Z</time>
      </trkpt>
      <trkpt lat="44.48984" lon="-1.10666">
        <ele>20</ele>
        <time>2016-04-23T13:12:42Z</time>
      </trkpt>
      <trkpt lat="44.48983" lon="-1.10672">
        <ele>20</ele>
        <time>2016-04-23T13:12:44Z</time>
      </trkpt>
      <trkpt lat="44.48982" lon="-1.10678">
        <ele>20</ele>
        <time>2016-04-23T13:12:46Z</time>
      </trkpt>
      <trkpt lat="44.4898" lon="-1.10685">
        <ele>20</ele>
        <time>2016-04-23T13:12:48Z</time>
      </trkpt>
      <trkpt lat="44.48979" lon="-1.10691">
        <ele>20</ele>
        <time>2016-04-23T13:12:50Z</time>
      </trkpt>
      <trkpt lat="44.48977" lon="-1.107">
        <ele>20</ele>
        <time>2016-04-23T13:12:53Z</time>
      </trkpt>
      <trkpt lat="44.48975" lon="-1.10707">
        <ele>20</ele>
        <time>2016-04-23T13:12:55Z</time>
      </trkpt>
      <trkpt lat="44.48974" lon="-1.10714">
        <ele>20</ele>
        <time>2016-04-23T13:12:57Z</time>
      </trkpt>
      <trkpt lat="44.48972" lon="-1.1072">
        <ele>20</ele>
        <time>2016-04-23T13:12:59Z</time>
      </trkpt>
      <trkpt lat="44.48971" lon="-1.10727">
        <ele>20</ele>
        <time>2016-04-23T13:13:01Z</time>
      </trkpt>
      <trkpt lat="44.48969" lon="-1.10736">
        <ele>20</ele>
        <time>2016-04-23T13:13:04Z</time>
      </trkpt>
      <trkpt lat="44.48968" lon="-1.10742">
        <ele>20</ele>
        <time>2016-04-23T13:13:06Z</time>
      </trkpt>
      <trkpt lat="44.48967" lon="-1.10749">
        <ele>20</ele>
        <time>2016-04-23T13:13:08Z</time>
      </trkpt>
      <trkpt lat="44.48966" lon="-1.10755">
        <ele>20</ele>
        <time>2016-04-23T13:13:10Z</time>
      </trkpt>
      <trkpt lat="44.48965" lon="-1.10762">
        <ele>20</ele>
        <time>2016-04-23T13:13:12Z</time>
      </trkpt>
      <trkpt lat="44.48963" lon="-1.10769">
        <ele>20</ele>
        <time>2016-04-23T13:13:14Z</time>
      </trkpt>
      <trkpt lat="44.48962" lon="-1.10775">
        <ele>20</ele>
        <time>2016-04-23T13:13:16Z</time>
      </trkpt>
      <trkpt lat="44.4896" lon="-1.10782">
        <ele>20</ele>
        <time>2016-04-23T13:13:18Z</time>
      </trkpt>
      <trkpt lat="44.48959" lon="-1.10788">
        <ele>20</ele>
        <time>2016-04-23T13:13:20Z</time>
      </trkpt>
      <trkpt lat="44.48958" lon="-1.10795">
        <ele>20</ele>
        <time>2016-04-23T13:13:22Z</time>
      </trkpt>
      <trkpt lat="44.48956" lon="-1.10801">
        <ele>20</ele>
        <time>2016-04-23T13:13:24Z</time>
      </trkpt>
      <trkpt lat="44.48955" lon="-1.10808">
        <ele>20</ele>
        <time>2016-04-23T13:13:26Z</time>
      </trkpt>
      <trkpt lat="44.48953" lon="-1.10815">
        <ele>20</ele>
        <time>2016-04-23T13:13:28Z</time>
      </trkpt>
      <trkpt lat="44.48951" lon="-1.10821">
        <ele>20</ele>
        <time>2016-04-23T13:13:30Z</time>
      </trkpt>
      <trkpt lat="44.4895" lon="-1.10828">
        <ele>20</ele>
        <time>2016-04-23T13:13:32Z</time>
      </trkpt>
      <trkpt lat="44.48948" lon="-1.10835">
        <ele>20</ele>
        <time>2016-04-23T13:13:34Z</time>
      </trkpt>
      <trkpt lat="44.48946" lon="-1.10841">
        <ele>20</ele>
        <time>2016-04-23T13:13:36Z</time>
      </trkpt>
      <trkpt lat="44.48945" lon="-1.10848">
        <ele>20</ele>
        <time>2016-04-23T13:13:38Z</time>
      </trkpt>
      <trkpt lat="44.48944" lon="-1.10854">
        <ele>20</ele>
        <time>2016-04-23T13:13:40Z</time>
      </trkpt>
      <trkpt lat="44.48942" lon="-1.1086">
        <ele>20</ele>
        <time>2016-04-23T13:13:42Z</time>
      </trkpt>
      <trkpt lat="44.48941" lon="-1.10867">
        <ele>20</ele>
        <time>2016-04-23T13:13:44Z</time>
      </trkpt>
      <trkpt lat="44.48939" lon="-1.10873">
        <ele>20</ele>
        <time>2016-04-23T13:13:46Z</time>
      </trkpt>
      <trkpt lat="44.48937" lon="-1.1088">
        <ele>20</ele>
        <time>2016-04-23T13:13:48Z</time>
      </trkpt>
      <trkpt lat="44.48935" lon="-1.10886">
        <ele>20</ele>
        <time>2016-04-23T13:13:50Z</time>
      </trkpt>
      <trkpt lat="44.48933" lon="-1.10893">
        <ele>20</ele>
        <time>2016-04-23T13:13:52Z</time>
      </trkpt>
      <trkpt lat="44.48931" lon="-1.109">
        <ele>20</ele>
        <time>2016-04-23T13:13:54Z</time>
      </trkpt>
      <trkpt lat="44.4893" lon="-1.10907">
        <ele>20</ele>
        <time>2016-04-23T13:13:56Z</time>
      </trkpt>
      <trkpt lat="44.48929" lon="-1.10913">
        <ele>20</ele>
        <time>2016-04-23T13:13:58Z</time>
      </trkpt>
      <trkpt lat="44.48928" lon="-1.1092">
        <ele>20</ele>
        <time>2016-04-23T13:14:00Z</time>
      </trkpt>
      <trkpt lat="44.48927" lon="-1.10927">
        <ele>20</ele>
        <time>2016-04-23T13:14:02Z</time>
      </trkpt>
      <trkpt lat="44.48925" lon="-1.10936">
        <ele>20</ele>
        <time>2016-04-23T13:14:05Z</time>
      </trkpt>
      <trkpt lat="44.48924" lon="-1.10942">
        <ele>20</ele>
        <time>2016-04-23T13:14:07Z</time>
      </trkpt>
      <trkpt lat="44.48922" lon="-1.10949">
        <ele>20</ele>
        <time>2016-04-23T13:14:09Z</time>
      </trkpt>
      <trkpt lat="44.4892" lon="-1.10955">
        <ele>20</ele>
        <time>2016-04-23T13:14:11Z</time>
      </trkpt>
      <trkpt lat="44.48919" lon="-1.10961">
        <ele>20</ele>
        <time>2016-04-23T13:14:13Z</time>
      </trkpt>
      <trkpt lat="44.48917" lon="-1.10967">
        <ele>20</ele>
        <time>2016-04-23T13:14:15Z</time>
      </trkpt>
      <trkpt lat="44.48916" lon="-1.10973">
        <ele>20</ele>
        <time>2016-04-23T13:14:17Z</time>
      </trkpt>
      <trkpt lat="44.48914" lon="-1.1098">
        <ele>20</ele>
        <time>2016-04-23T13:14:19Z</time>
      </trkpt>
      <trkpt lat="44.4891" lon="-1.10991">
        <ele>20</ele>
        <time>2016-04-23T13:14:23Z</time>
      </trkpt>
      <trkpt lat="44.48908" lon="-1.10998">
        <ele>20</ele>
        <time>2016-04-23T13:14:25Z</time>
      </trkpt>
      <trkpt lat="44.48906" lon="-1.11004">
        <ele>20</ele>
        <time>2016-04-23T13:14:27Z</time>
      </trkpt>
      <trkpt lat="44.48904" lon="-1.1101">
        <ele>20</ele>
        <time>2016-04-23T13:14:29Z</time>
      </trkpt>
      <trkpt lat="44.48902" lon="-1.11017">
        <ele>20</ele>
        <time>2016-04-23T13:14:31Z</time>
      </trkpt>
      <trkpt lat="44.48899" lon="-1.11023">
        <ele>20</ele>
        <time>2016-04-23T13:14:33Z</time>
      </trkpt>
      <trkpt lat="44.48897" lon="-1.11029">
        <ele>20</ele>
        <time>2016-04-23T13:14:35Z</time>
      </trkpt>
      <trkpt lat="44.48895" lon="-1.11035">
        <ele>20</ele>
        <time>2016-04-23T13:14:37Z</time>
      </trkpt>
      <trkpt lat="44.48893" lon="-1.11042">
        <ele>20</ele>
        <time>2016-04-23T13:14:39Z</time>
      </trkpt>
      <trkpt lat="44.48891" lon="-1.11048">
        <ele>20</ele>
        <time>2016-04-23T13:14:41Z</time>
      </trkpt>
      <trkpt lat="44.4889" lon="-1.11056">
        <ele>20</ele>
        <time>2016-04-23T13:14:43Z</time>
      </trkpt>
      <trkpt lat="44.48889" lon="-1.11063">
        <ele>20</ele>
        <time>2016-04-23T13:14:45Z</time>
      </trkpt>
      <trkpt lat="44.48888" lon="-1.1107">
        <ele>20</ele>
        <time>2016-04-23T13:14:47Z</time>
      </trkpt>
      <trkpt lat="44.48886" lon="-1.11077">
        <ele>20</ele>
        <time>2016-04-23T13:14:49Z</time>
      </trkpt>
      <trkpt lat="44.48884" lon="-1.11085">
        <ele>20</ele>
        <time>2016-04-23T13:14:51Z</time>
      </trkpt>
      <trkpt lat="44.48882" lon="-1.11092">
        <ele>20</ele>
        <time>2016-04-23T13:14:53Z</time>
      </trkpt>
      <trkpt lat="44.4888" lon="-1.111">
        <ele>20</ele>
        <time>2016-04-23T13:14:55Z</time>
      </trkpt>
      <trkpt lat="44.48878" lon="-1.11106">
        <ele>20</ele>
        <time>2016-04-23T13:14:57Z</time>
      </trkpt>
      <trkpt lat="44.48877" lon="-1.11113">
        <ele>20</ele>
        <time>2016-04-23T13:14:59Z</time>
      </trkpt>
      <trkpt lat="44.48875" lon="-1.1112">
        <ele>20</ele>
        <time>2016-04-23T13:15:01Z</time>
      </trkpt>
      <trkpt lat="44.48874" lon="-1.11126">
        <ele>20</ele>
        <time>2016-04-23T13:15:03Z</time>
      </trkpt>
      <trkpt lat="44.48873" lon="-1.11133">
        <ele>20</ele>
        <time>2016-04-23T13:15:05Z</time>
      </trkpt>
      <trkpt lat="44.48871" lon="-1.11139">
        <ele>20</ele>
        <time>2016-04-23T13:15:07Z</time>
      </trkpt>
      <trkpt lat="44.48869" lon="-1.11146">
        <ele>20</ele>
        <time>2016-04-23T13:15:09Z</time>
      </trkpt>
      <trkpt lat="44.48868" lon="-1.11153">
        <ele>20</ele>
        <time>2016-04-23T13:15:11Z</time>
      </trkpt>
      <trkpt lat="44.48867" lon="-1.1116">
        <ele>20</ele>
        <time>2016-04-23T13:15:13Z</time>
      </trkpt>
      <trkpt lat="44.48865" lon="-1.11167">
        <ele>20</ele>
        <time>2016-04-23T13:15:15Z</time>
      </trkpt>
      <trkpt lat="44.48864" lon="-1.11174">
        <ele>20</ele>
        <time>2016-04-23T13:15:17Z</time>
      </trkpt>
      <trkpt lat="44.48862" lon="-1.11181">
        <ele>20</ele>
        <time>2016-04-23T13:15:19Z</time>
      </trkpt>
      <trkpt lat="44.48859" lon="-1.11188">
        <ele>20</ele>
        <time>2016-04-23T13:15:21Z</time>
      </trkpt>
      <trkpt lat="44.48857" lon="-1.11195">
        <ele>20</ele>
        <time>2016-04-23T13:15:23Z</time>
      </trkpt>
      <trkpt lat="44.48854" lon="-1.11203">
        <ele>20</ele>
        <time>2016-04-23T13:15:25Z</time>
      </trkpt>
      <trkpt lat="44.48852" lon="-1.11209">
        <ele>20</ele>
        <time>2016-04-23T13:15:27Z</time>
      </trkpt>
      <trkpt lat="44.48851" lon="-1.11216">
        <ele>20</ele>
        <time>2016-04-23T13:15:29Z</time>
      </trkpt>
      <trkpt lat="44.48849" lon="-1.11223">
        <ele>20</ele>
        <time>2016-04-23T13:15:31Z</time>
      </trkpt>
      <trkpt lat="44.48847" lon="-1.1123">
        <ele>20</ele>
        <time>2016-04-23T13:15:33Z</time>
      </trkpt>
      <trkpt lat="44.48845" lon="-1.11237">
        <ele>20</ele>
        <time>2016-04-23T13:15:35Z</time>
      </trkpt>
      <trkpt lat="44.48844" lon="-1.11244">
        <ele>20</ele>
        <time>2016-04-23T13:15:37Z</time>
      </trkpt>
      <trkpt lat="44.48843" lon="-1.11251">
        <ele>20</ele>
        <time>2016-04-23T13:15:39Z</time>
      </trkpt>
      <trkpt lat="44.48841" lon="-1.11258">
        <ele>20</ele>
        <time>2016-04-23T13:15:41Z</time>
      </trkpt>
      <trkpt lat="44.48839" lon="-1.11265">
        <ele>20</ele>
        <time>2016-04-23T13:15:43Z</time>
      </trkpt>
      <trkpt lat="44.48837" lon="-1.11271">
        <ele>20</ele>
        <time>2016-04-23T13:15:45Z</time>
      </trkpt>
      <trkpt lat="44.48836" lon="-1.11278">
        <ele>20</ele>
        <time>2016-04-23T13:15:47Z</time>
      </trkpt>
      <trkpt lat="44.48834" lon="-1.11285">
        <ele>20</ele>
        <time>2016-04-23T13:15:49Z</time>
      </trkpt>
      <trkpt lat="44.48832" lon="-1.11292">
        <ele>20</ele>
        <time>2016-04-23T13:15:51Z</time>
      </trkpt>
      <trkpt lat="44.48831" lon="-1.113">
        <ele>20</ele>
        <time>2016-04-23T13:15:53Z</time>
      </trkpt>
      <trkpt lat="44.48828" lon="-1.11307">
        <ele>20</ele>
        <time>2016-04-23T13:15:55Z</time>
      </trkpt>
      <trkpt lat="44.48826" lon="-1.11313">
        <ele>20</ele>
        <time>2016-04-23T13:15:57Z</time>
      </trkpt>
      <trkpt lat="44.48825" lon="-1.11319">
        <ele>20</ele>
        <time>2016-04-23T13:15:59Z</time>
      </trkpt>
      <trkpt lat="44.48822" lon="-1.11327">
        <ele>20</ele>
        <time>2016-04-23T13:16:01Z</time>
      </trkpt>
      <trkpt lat="44.4882" lon="-1.11333">
        <ele>20</ele>
        <time>2016-04-23T13:16:03Z</time>
      </trkpt>
      <trkpt lat="44.48818" lon="-1.1134">
        <ele>20</ele>
        <time>2016-04-23T13:16:05Z</time>
      </trkpt>
      <trkpt lat="44.48816" lon="-1.11347">
        <ele>20</ele>
        <time>2016-04-23T13:16:07Z</time>
      </trkpt>
      <trkpt lat="44.48814" lon="-1.11353">
        <ele>20</ele>
        <time>2016-04-23T13:16:09Z</time>
      </trkpt>
      <trkpt lat="44.48812" lon="-1.1136">
        <ele>20</ele>
        <time>2016-04-23T13:16:11Z</time>
      </trkpt>
      <trkpt lat="44.4881" lon="-1.11367">
        <ele>20</ele>
        <time>2016-04-23T13:16:13Z</time>
      </trkpt>
      <trkpt lat="44.48808" lon="-1.11373">
        <ele>20</ele>
        <time>2016-04-23T13:16:15Z</time>
      </trkpt>
      <trkpt lat="44.48807" lon="-1.1138">
        <ele>20</ele>
        <time>2016-04-23T13:16:17Z</time>
      </trkpt>
      <trkpt lat="44.48805" lon="-1.11386">
        <ele>20</ele>
        <time>2016-04-23T13:16:19Z</time>
      </trkpt>
      <trkpt lat="44.48802" lon="-1.11391">
        <ele>20</ele>
        <time>2016-04-23T13:16:21Z</time>
      </trkpt>
      <trkpt lat="44.48799" lon="-1.11399">
        <ele>20</ele>
        <time>2016-04-23T13:16:24Z</time>
      </trkpt>
      <trkpt lat="44.48796" lon="-1.11404">
        <ele>20</ele>
        <time>2016-04-23T13:16:26Z</time>
      </trkpt>
      <trkpt lat="44.48794" lon="-1.1141">
        <ele>20</ele>
        <time>2016-04-23T13:16:28Z</time>
      </trkpt>
      <trkpt lat="44.48791" lon="-1.11416">
        <ele>20</ele>
        <time>2016-04-23T13:16:30Z</time>
      </trkpt>
      <trkpt lat="44.48789" lon="-1.11422">
        <ele>20</ele>
        <time>2016-04-23T13:16:32Z</time>
      </trkpt>
      <trkpt lat="44.48787" lon="-1.11429">
        <ele>20</ele>
        <time>2016-04-23T13:16:34Z</time>
      </trkpt>
      <trkpt lat="44.48785" lon="-1.11434">
        <ele>20</ele>
        <time>2016-04-23T13:16:36Z</time>
      </trkpt>
      <trkpt lat="44.48782" lon="-1.11441">
        <ele>20</ele>
        <time>2016-04-23T13:16:38Z</time>
      </trkpt>
      <trkpt lat="44.4878" lon="-1.11447">
        <ele>20</ele>
        <time>2016-04-23T13:16:40Z</time>
      </trkpt>
      <trkpt lat="44.48777" lon="-1.11453">
        <ele>20</ele>
        <time>2016-04-23T13:16:42Z</time>
      </trkpt>
      <trkpt lat="44.48775" lon="-1.11459">
        <ele>20</ele>
        <time>2016-04-23T13:16:44Z</time>
      </trkpt>
      <trkpt lat="44.48772" lon="-1.11465">
        <ele>20</ele>
        <time>2016-04-23T13:16:46Z</time>
      </trkpt>
      <trkpt lat="44.4877" lon="-1.11471">
        <ele>20</ele>
        <time>2016-04-23T13:16:48Z</time>
      </trkpt>
      <trkpt lat="44.48767" lon="-1.11476">
        <ele>20</ele>
        <time>2016-04-23T13:16:50Z</time>
      </trkpt>
      <trkpt lat="44.48765" lon="-1.11482">
        <ele>20</ele>
        <time>2016-04-23T13:16:52Z</time>
      </trkpt>
      <trkpt lat="44.48762" lon="-1.11488">
        <ele>20</ele>
        <time>2016-04-23T13:16:54Z</time>
      </trkpt>
      <trkpt lat="44.48759" lon="-1.11493">
        <ele>20</ele>
        <time>2016-04-23T13:16:56Z</time>
      </trkpt>
      <trkpt lat="44.48756" lon="-1.11498">
        <ele>20</ele>
        <time>2016-04-23T13:16:58Z</time>
      </trkpt>
      <trkpt lat="44.48753" lon="-1.11506">
        <ele>20</ele>
        <time>2016-04-23T13:17:01Z</time>
      </trkpt>
      <trkpt lat="44.4875" lon="-1.11514">
        <ele>20</ele>
        <time>2016-04-23T13:17:04Z</time>
      </trkpt>
      <trkpt lat="44.48747" lon="-1.11522">
        <ele>20</ele>
        <time>2016-04-23T13:17:07Z</time>
      </trkpt>
      <trkpt lat="44.48743" lon="-1.1153">
        <ele>20</ele>
        <time>2016-04-23T13:17:10Z</time>
      </trkpt>
      <trkpt lat="44.48739" lon="-1.11538">
        <ele>20</ele>
        <time>2016-04-23T13:17:13Z</time>
      </trkpt>
      <trkpt lat="44.48737" lon="-1.11545">
        <ele>20</ele>
        <time>2016-04-23T13:17:16Z</time>
      </trkpt>
      <trkpt lat="44.48734" lon="-1.11553">
        <ele>20</ele>
        <time>2016-04-23T13:17:19Z</time>
      </trkpt>
      <trkpt lat="44.48732" lon="-1.11561">
        <ele>20</ele>
        <time>2016-04-23T13:17:22Z</time>
      </trkpt>
      <trkpt lat="44.48729" lon="-1.11569">
        <ele>20</ele>
        <time>2016-04-23T13:17:25Z</time>
      </trkpt>
      <trkpt lat="44.48726" lon="-1.11578">
        <ele>20</ele>
        <time>2016-04-23T13:17:28Z</time>
      </trkpt>
      <trkpt lat="44.48723" lon="-1.11586">
        <ele>20</ele>
        <time>2016-04-23T13:17:31Z</time>
      </trkpt>
      <trkpt lat="44.48722" lon="-1.11593">
        <ele>20</ele>
        <time>2016-04-23T13:17:33Z</time>
      </trkpt>
      <trkpt lat="44.48719" lon="-1.11601">
        <ele>20</ele>
        <time>2016-04-23T13:17:36Z</time>
      </trkpt>
      <trkpt lat="44.48717" lon="-1.11608">
        <ele>20</ele>
        <time>2016-04-23T13:17:38Z</time>
      </trkpt>
      <trkpt lat="44.48715" lon="-1.11614">
        <ele>20</ele>
        <time>2016-04-23T13:17:40Z</time>
      </trkpt>
      <trkpt lat="44.48713" lon="-1.11621">
        <ele>20</ele>
        <time>2016-04-23T13:17:42Z</time>
      </trkpt>
      <trkpt lat="44.48711" lon="-1.11627">
        <ele>20</ele>
        <time>2016-04-23T13:17:44Z</time>
      </trkpt>
      <trkpt lat="44.48709" lon="-1.11634">
        <ele>20</ele>
        <time>2016-04-23T13:17:46Z</time>
      </trkpt>
      <trkpt lat="44.48707" lon="-1.11641">
        <ele>20</ele>
        <time>2016-04-23T13:17:48Z</time>
      </trkpt>
      <trkpt lat="44.48706" lon="-1.11647">
        <ele>20</ele>
        <time>2016-04-23T13:17:50Z</time>
      </trkpt>
      <trkpt lat="44.48704" lon="-1.11654">
        <ele>20</ele>
        <time>2016-04-23T13:17:52Z</time>
      </trkpt>
      <trkpt lat="44.48702" lon="-1.11661">
        <ele>20</ele>
        <time>2016-04-23T13:17:54Z</time>
      </trkpt>
      <trkpt lat="44.487" lon="-1.11668">
        <ele>20</ele>
        <time>2016-04-23T13:17:56Z</time>
      </trkpt>
      <trkpt lat="44.48698" lon="-1.11675">
        <ele>20</ele>
        <time>2016-04-23T13:17:58Z</time>
      </trkpt>
      <trkpt lat="44.48696" lon="-1.11682">
        <ele>20</ele>
        <time>2016-04-23T13:18:00Z</time>
      </trkpt>
      <trkpt lat="44.48694" lon="-1.11689">
        <ele>20</ele>
        <time>2016-04-23T13:18:02Z</time>
      </trkpt>
      <trkpt lat="44.48691" lon="-1.11697">
        <ele>20</ele>
        <time>2016-04-23T13:18:04Z</time>
      </trkpt>
      <trkpt lat="44.48689" lon="-1.11705">
        <ele>20</ele>
        <time>2016-04-23T13:18:06Z</time>
      </trkpt>
      <trkpt lat="44.48686" lon="-1.11712">
        <ele>20</ele>
        <time>2016-04-23T13:18:08Z</time>
      </trkpt>
      <trkpt lat="44.48684" lon="-1.11719">
        <ele>20</ele>
        <time>2016-04-23T13:18:10Z</time>
      </trkpt>
      <trkpt lat="44.48681" lon="-1.11726">
        <ele>20</ele>
        <time>2016-04-23T13:18:12Z</time>
      </trkpt>
      <trkpt lat="44.48679" lon="-1.11733">
        <ele>20</ele>
        <time>2016-04-23T13:18:14Z</time>
      </trkpt>
      <trkpt lat="44.48677" lon="-1.1174">
        <ele>20</ele>
        <time>2016-04-23T13:18:16Z</time>
      </trkpt>
      <trkpt lat="44.48674" lon="-1.11747">
        <ele>20</ele>
        <time>2016-04-23T13:18:18Z</time>
      </trkpt>
      <trkpt lat="44.48672" lon="-1.11753">
        <ele>20</ele>
        <time>2016-04-23T13:18:20Z</time>
      </trkpt>
      <trkpt lat="44.4867" lon="-1.1176">
        <ele>20</ele>
        <time>2016-04-23T13:18:22Z</time>
      </trkpt>
      <trkpt lat="44.48667" lon="-1.11766">
        <ele>20</ele>
        <time>2016-04-23T13:18:24Z</time>
      </trkpt>
      <trkpt lat="44.48665" lon="-1.11772">
        <ele>20</ele>
        <time>2016-04-23T13:18:26Z</time>
      </trkpt>
      <trkpt lat="44.48663" lon="-1.11778">
        <ele>20</ele>
        <time>2016-04-23T13:18:28Z</time>
      </trkpt>
      <trkpt lat="44.4866" lon="-1.11784">
        <ele>20</ele>
        <time>2016-04-23T13:18:30Z</time>
      </trkpt>
      <trkpt lat="44.48658" lon="-1.1179">
        <ele>20</ele>
        <time>2016-04-23T13:18:32Z</time>
      </trkpt>
      <trkpt lat="44.48656" lon="-1.11796">
        <ele>20</ele>
        <time>2016-04-23T13:18:34Z</time>
      </trkpt>
      <trkpt lat="44.48654" lon="-1.11802">
        <ele>20</ele>
        <time>2016-04-23T13:18:36Z</time>
      </trkpt>
      <trkpt lat="44.48653" lon="-1.11808">
        <ele>20</ele>
        <time>2016-04-23T13:18:38Z</time>
      </trkpt>
      <trkpt lat="44.4865" lon="-1.11814">
        <ele>20</ele>
        <time>2016-04-23T13:18:40Z</time>
      </trkpt>
      <trkpt lat="44.48648" lon="-1.11821">
        <ele>20</ele>
        <time>2016-04-23T13:18:42Z</time>
      </trkpt>
      <trkpt lat="44.48645" lon="-1.11827">
        <ele>20</ele>
        <time>2016-04-23T13:18:44Z</time>
      </trkpt>
      <trkpt lat="44.48643" lon="-1.11834">
        <ele>20</ele>
        <time>2016-04-23T13:18:46Z</time>
      </trkpt>
      <trkpt lat="44.4864" lon="-1.11841">
        <ele>20</ele>
        <time>2016-04-23T13:18:48Z</time>
      </trkpt>
      <trkpt lat="44.48638" lon="-1.11847">
        <ele>20</ele>
        <time>2016-04-23T13:18:50Z</time>
      </trkpt>
      <trkpt lat="44.48635" lon="-1.11854">
        <ele>20</ele>
        <time>2016-04-23T13:18:52Z</time>
      </trkpt>
      <trkpt lat="44.48633" lon="-1.1186">
        <ele>20</ele>
        <time>2016-04-23T13:18:54Z</time>
      </trkpt>
      <trkpt lat="44.4863" lon="-1.11866">
        <ele>20</ele>
        <time>2016-04-23T13:18:56Z</time>
      </trkpt>
      <trkpt lat="44.48627" lon="-1.11872">
        <ele>20</ele>
        <time>2016-04-23T13:18:58Z</time>
      </trkpt>
      <trkpt lat="44.48624" lon="-1.11877">
        <ele>20</ele>
        <time>2016-04-23T13:19:00Z</time>
      </trkpt>
      <trkpt lat="44.48621" lon="-1.11883">
        <ele>20</ele>
        <time>2016-04-23T13:19:02Z</time>
      </trkpt>
      <trkpt lat="44.48619" lon="-1.11889">
        <ele>20</ele>
        <time>2016-04-23T13:19:04Z</time>
      </trkpt>
      <trkpt lat="44.48616" lon="-1.11896">
        <ele>20</ele>
        <time>2016-04-23T13:19:06Z</time>
      </trkpt>
      <trkpt lat="44.48614" lon="-1.11902">
        <ele>20</ele>
        <time>2016-04-23T13:19:08Z</time>
      </trkpt>
      <trkpt lat="44.48611" lon="-1.11909">
        <ele>20</ele>
        <time>2016-04-23T13:19:10Z</time>
      </trkpt>
      <trkpt lat="44.48609" lon="-1.11915">
        <ele>20</ele>
        <time>2016-04-23T13:19:12Z</time>
      </trkpt>
      <trkpt lat="44.48606" lon="-1.11922">
        <ele>20</ele>
        <time>2016-04-23T13:19:14Z</time>
      </trkpt>
      <trkpt lat="44.48604" lon="-1.11927">
        <ele>20</ele>
        <time>2016-04-23T13:19:16Z</time>
      </trkpt>
      <trkpt lat="44.48602" lon="-1.11933">
        <ele>20</ele>
        <time>2016-04-23T13:19:18Z</time>
      </trkpt>
      <trkpt lat="44.48599" lon="-1.1194">
        <ele>20</ele>
        <time>2016-04-23T13:19:20Z</time>
      </trkpt>
      <trkpt lat="44.48598" lon="-1.11946">
        <ele>20</ele>
        <time>2016-04-23T13:19:22Z</time>
      </trkpt>
      <trkpt lat="44.48595" lon="-1.11953">
        <ele>20</ele>
        <time>2016-04-23T13:19:24Z</time>
      </trkpt>
      <trkpt lat="44.48593" lon="-1.11959">
        <ele>20</ele>
        <time>2016-04-23T13:19:26Z</time>
      </trkpt>
      <trkpt lat="44.4859" lon="-1.11966">
        <ele>20</ele>
        <time>2016-04-23T13:19:28Z</time>
      </trkpt>
      <trkpt lat="44.48588" lon="-1.11973">
        <ele>20</ele>
        <time>2016-04-23T13:19:30Z</time>
      </trkpt>
      <trkpt lat="44.48585" lon="-1.11979">
        <ele>20</ele>
        <time>2016-04-23T13:19:32Z</time>
      </trkpt>
      <trkpt lat="44.48583" lon="-1.11986">
        <ele>20</ele>
        <time>2016-04-23T13:19:34Z</time>
      </trkpt>
      <trkpt lat="44.4858" lon="-1.11991">
        <ele>20</ele>
        <time>2016-04-23T13:19:36Z</time>
      </trkpt>
      <trkpt lat="44.48577" lon="-1.11998">
        <ele>20</ele>
        <time>2016-04-23T13:19:38Z</time>
      </trkpt>
      <trkpt lat="44.48575" lon="-1.12005">
        <ele>20</ele>
        <time>2016-04-23T13:19:40Z</time>
      </trkpt>
      <trkpt lat="44.48572" lon="-1.12011">
        <ele>20</ele>
        <time>2016-04-23T13:19:42Z</time>
      </trkpt>
      <trkpt lat="44.48569" lon="-1.12017">
        <ele>20</ele>
        <time>2016-04-23T13:19:44Z</time>
      </trkpt>
      <trkpt lat="44.48567" lon="-1.12024">
        <ele>20</ele>
        <time>2016-04-23T13:19:46Z</time>
      </trkpt>
      <trkpt lat="44.48564" lon="-1.12031">
        <ele>20</ele>
        <time>2016-04-23T13:19:48Z</time>
      </trkpt>
      <trkpt lat="44.48562" lon="-1.12037">
        <ele>20</ele>
        <time>2016-04-23T13:19:50Z</time>
      </trkpt>
      <trkpt lat="44.48559" lon="-1.12044">
        <ele>20</ele>
        <time>2016-04-23T13:19:52Z</time>
      </trkpt>
      <trkpt lat="44.48556" lon="-1.12049">
        <ele>20</ele>
        <time>2016-04-23T13:19:54Z</time>
      </trkpt>
      <trkpt lat="44.48554" lon="-1.12055">
        <ele>20</ele>
        <time>2016-04-23T13:19:56Z</time>
      </trkpt>
      <trkpt lat="44.48551" lon="-1.12061">
        <ele>20</ele>
        <time>2016-04-23T13:19:58Z</time>
      </trkpt>
      <trkpt lat="44.48548" lon="-1.12067">
        <ele>20</ele>
        <time>2016-04-23T13:20:00Z</time>
      </trkpt>
      <trkpt lat="44.48545" lon="-1.12074">
        <ele>20</ele>
        <time>2016-04-23T13:20:02Z</time>
      </trkpt>
      <trkpt lat="44.48542" lon="-1.12081">
        <ele>20</ele>
        <time>2016-04-23T13:20:04Z</time>
      </trkpt>
      <trkpt lat="44.48539" lon="-1.12088">
        <ele>20</ele>
        <time>2016-04-23T13:20:06Z</time>
      </trkpt>
      <trkpt lat="44.48537" lon="-1.12094">
        <ele>20</ele>
        <time>2016-04-23T13:20:08Z</time>
      </trkpt>
      <trkpt lat="44.48535" lon="-1.121">
        <ele>20</ele>
        <time>2016-04-23T13:20:10Z</time>
      </trkpt>
      <trkpt lat="44.48532" lon="-1.12107">
        <ele>20</ele>
        <time>2016-04-23T13:20:12Z</time>
      </trkpt>
      <trkpt lat="44.4853" lon="-1.12113">
        <ele>20</ele>
        <time>2016-04-23T13:20:14Z</time>
      </trkpt>
      <trkpt lat="44.48528" lon="-1.1212">
        <ele>20</ele>
        <time>2016-04-23T13:20:16Z</time>
      </trkpt>
      <trkpt lat="44.48525" lon="-1.12127">
        <ele>20</ele>
        <time>2016-04-23T13:20:18Z</time>
      </trkpt>
      <trkpt lat="44.48523" lon="-1.12133">
        <ele>20</ele>
        <time>2016-04-23T13:20:20Z</time>
      </trkpt>
      <trkpt lat="44.4852" lon="-1.1214">
        <ele>20</ele>
        <time>2016-04-23T13:20:22Z</time>
      </trkpt>
      <trkpt lat="44.48518" lon="-1.12146">
        <ele>20</ele>
        <time>2016-04-23T13:20:24Z</time>
      </trkpt>
      <trkpt lat="44.48517" lon="-1.12154">
        <ele>20</ele>
        <time>2016-04-23T13:20:26Z</time>
      </trkpt>
      <trkpt lat="44.48514" lon="-1.1216">
        <ele>20</ele>
        <time>2016-04-23T13:20:28Z</time>
      </trkpt>
      <trkpt lat="44.48512" lon="-1.12167">
        <ele>20</ele>
        <time>2016-04-23T13:20:30Z</time>
      </trkpt>
      <trkpt lat="44.48509" lon="-1.12173">
        <ele>20</ele>
        <time>2016-04-23T13:20:32Z</time>
      </trkpt>
      <trkpt lat="44.48506" lon="-1.1218">
        <ele>20</ele>
        <time>2016-04-23T13:20:34Z</time>
      </trkpt>
      <trkpt lat="44.48504" lon="-1.12187">
        <ele>20</ele>
        <time>2016-04-23T13:20:36Z</time>
      </trkpt>
      <trkpt lat="44.48501" lon="-1.12195">
        <ele>20</ele>
        <time>2016-04-23T13:20:39Z</time>
      </trkpt>
      <trkpt lat="44.48498" lon="-1.12202">
        <ele>20</ele>
        <time>2016-04-23T13:20:41Z</time>
      </trkpt>
      <trkpt lat="44.48495" lon="-1.12208">
        <ele>20</ele>
        <time>2016-04-23T13:20:43Z</time>
      </trkpt>
      <trkpt lat="44.48493" lon="-1.12213">
        <ele>20</ele>
        <time>2016-04-23T13:20:45Z</time>
      </trkpt>
      <trkpt lat="44.4849" lon="-1.12219">
        <ele>20</ele>
        <time>2016-04-23T13:20:47Z</time>
      </trkpt>
      <trkpt lat="44.48487" lon="-1.12225">
        <ele>20</ele>
        <time>2016-04-23T13:20:49Z</time>
      </trkpt>
      <trkpt lat="44.48484" lon="-1.12231">
        <ele>20</ele>
        <time>2016-04-23T13:20:51Z</time>
      </trkpt>
      <trkpt lat="44.48481" lon="-1.12237">
        <ele>20</ele>
        <time>2016-04-23T13:20:53Z</time>
      </trkpt>
      <trkpt lat="44.48479" lon="-1.12242">
        <ele>20</ele>
        <time>2016-04-23T13:20:55Z</time>
      </trkpt>
      <trkpt lat="44.48476" lon="-1.12248">
        <ele>20</ele>
        <time>2016-04-23T13:20:57Z</time>
      </trkpt>
      <trkpt lat="44.48473" lon="-1.12253">
        <ele>20</ele>
        <time>2016-04-23T13:20:59Z</time>
      </trkpt>
      <trkpt lat="44.4847" lon="-1.12259">
        <ele>20</ele>
        <time>2016-04-23T13:21:01Z</time>
      </trkpt>
      <trkpt lat="44.48467" lon="-1.12264">
        <ele>20</ele>
        <time>2016-04-23T13:21:03Z</time>
      </trkpt>
      <trkpt lat="44.48464" lon="-1.1227">
        <ele>20</ele>
        <time>2016-04-23T13:21:05Z</time>
      </trkpt>
      <trkpt lat="44.48461" lon="-1.12276">
        <ele>20</ele>
        <time>2016-04-23T13:21:07Z</time>
      </trkpt>
      <trkpt lat="44.48457" lon="-1.12284">
        <ele>20</ele>
        <time>2016-04-23T13:21:10Z</time>
      </trkpt>
      <trkpt lat="44.48454" lon="-1.12289">
        <ele>20</ele>
        <time>2016-04-23T13:21:12Z</time>
      </trkpt>
      <trkpt lat="44.48451" lon="-1.12295">
        <ele>20</ele>
        <time>2016-04-23T13:21:14Z</time>
      </trkpt>
      <trkpt lat="44.48448" lon="-1.12301">
        <ele>20</ele>
        <time>2016-04-23T13:21:16Z</time>
      </trkpt>
      <trkpt lat="44.48445" lon="-1.12306">
        <ele>20</ele>
        <time>2016-04-23T13:21:18Z</time>
      </trkpt>
      <trkpt lat="44.48443" lon="-1.12312">
        <ele>20</ele>
        <time>2016-04-23T13:21:20Z</time>
      </trkpt>
      <trkpt lat="44.48439" lon="-1.12316">
        <ele>20</ele>
        <time>2016-04-23T13:21:22Z</time>
      </trkpt>
      <trkpt lat="44.48436" lon="-1.12322">
        <ele>20</ele>
        <time>2016-04-23T13:21:24Z</time>
      </trkpt>
      <trkpt lat="44.48434" lon="-1.12328">
        <ele>20</ele>
        <time>2016-04-23T13:21:26Z</time>
      </trkpt>
      <trkpt lat="44.48432" lon="-1.12335">
        <ele>20</ele>
        <time>2016-04-23T13:21:28Z</time>
      </trkpt>
      <trkpt lat="44.48428" lon="-1.12341">
        <ele>20</ele>
        <time>2016-04-23T13:21:30Z</time>
      </trkpt>
      <trkpt lat="44.48425" lon="-1.12347">
        <ele>20</ele>
        <time>2016-04-23T13:21:32Z</time>
      </trkpt>
      <trkpt lat="44.48423" lon="-1.12353">
        <ele>20</ele>
        <time>2016-04-23T13:21:34Z</time>
      </trkpt>
      <trkpt lat="44.4842" lon="-1.12359">
        <ele>20</ele>
        <time>2016-04-23T13:21:36Z</time>
      </trkpt>
      <trkpt lat="44.48417" lon="-1.12365">
        <ele>20</ele>
        <time>2016-04-23T13:21:38Z</time>
      </trkpt>
      <trkpt lat="44.48415" lon="-1.12371">
        <ele>20</ele>
        <time>2016-04-23T13:21:40Z</time>
      </trkpt>
      <trkpt lat="44.48412" lon="-1.12377">
        <ele>20</ele>
        <time>2016-04-23T13:21:42Z</time>
      </trkpt>
      <trkpt lat="44.48409" lon="-1.12383">
        <ele>20</ele>
        <time>2016-04-23T13:21:44Z</time>
      </trkpt>
      <trkpt lat="44.48407" lon="-1.12389">
        <ele>20</ele>
        <time>2016-04-23T13:21:46Z</time>
      </trkpt>
      <trkpt lat="44.48404" lon="-1.12395">
        <ele>20</ele>
        <time>2016-04-23T13:21:48Z</time>
      </trkpt>
      <trkpt lat="44.484" lon="-1.12401">
        <ele>20</ele>
        <time>2016-04-23T13:21:50Z</time>
      </trkpt>
      <trkpt lat="44.48397" lon="-1.12407">
        <ele>20</ele>
        <time>2016-04-23T13:21:52Z</time>
      </trkpt>
      <trkpt lat="44.48394" lon="-1.12414">
        <ele>20</ele>
        <time>2016-04-23T13:21:54Z</time>
      </trkpt>
      <trkpt lat="44.48392" lon="-1.1242">
        <ele>20</ele>
        <time>2016-04-23T13:21:56Z</time>
      </trkpt>
      <trkpt lat="44.48389" lon="-1.12427">
        <ele>20</ele>
        <time>2016-04-23T13:21:58Z</time>
      </trkpt>
      <trkpt lat="44.48387" lon="-1.12433">
        <ele>20</ele>
        <time>2016-04-23T13:22:00Z</time>
      </trkpt>
      <trkpt lat="44.48384" lon="-1.12439">
        <ele>20</ele>
        <time>2016-04-23T13:22:02Z</time>
      </trkpt>
      <trkpt lat="44.4838" lon="-1.12445">
        <ele>20</ele>
        <time>2016-04-23T13:22:04Z</time>
      </trkpt>
      <trkpt lat="44.48378" lon="-1.12452">
        <ele>20</ele>
        <time>2016-04-23T13:22:06Z</time>
      </trkpt>
      <trkpt lat="44.48375" lon="-1.12458">
        <ele>20</ele>
        <time>2016-04-23T13:22:08Z</time>
      </trkpt>
      <trkpt lat="44.48372" lon="-1.12465">
        <ele>20</ele>
        <time>2016-04-23T13:22:10Z</time>
      </trkpt>
      <trkpt lat="44.4837" lon="-1.12471">
        <ele>20</ele>
        <time>2016-04-23T13:22:12Z</time>
      </trkpt>
      <trkpt lat="44.48367" lon="-1.12477">
        <ele>20</ele>
        <time>2016-04-23T13:22:14Z</time>
      </trkpt>
      <trkpt lat="44.48364" lon="-1.12483">
        <ele>20</ele>
        <time>2016-04-23T13:22:16Z</time>
      </trkpt>
      <trkpt lat="44.48362" lon="-1.12489">
        <ele>20</ele>
        <time>2016-04-23T13:22:18Z</time>
      </trkpt>
      <trkpt lat="44.48359" lon="-1.12495">
        <ele>20</ele>
        <time>2016-04-23T13:22:20Z</time>
      </trkpt>
      <trkpt lat="44.48356" lon="-1.125">
        <ele>20</ele>
        <time>2016-04-23T13:22:22Z</time>
      </trkpt>
      <trkpt lat="44.48354" lon="-1.12506">
        <ele>20</ele>
        <time>2016-04-23T13:22:24Z</time>
      </trkpt>
      <trkpt lat="44.48352" lon="-1.12512">
        <ele>20</ele>
        <time>2016-04-23T13:22:26Z</time>
      </trkpt>
      <trkpt lat="44.48349" lon="-1.12518">
        <ele>20</ele>
        <time>2016-04-23T13:22:28Z</time>
      </trkpt>
      <trkpt lat="44.48346" lon="-1.12525">
        <ele>20</ele>
        <time>2016-04-23T13:22:30Z</time>
      </trkpt>
      <trkpt lat="44.48344" lon="-1.12531">
        <ele>20</ele>
        <time>2016-04-23T13:22:32Z</time>
      </trkpt>
      <trkpt lat="44.48341" lon="-1.12538">
        <ele>20</ele>
        <time>2016-04-23T13:22:34Z</time>
      </trkpt>
      <trkpt lat="44.48338" lon="-1.12544">
        <ele>20</ele>
        <time>2016-04-23T13:22:36Z</time>
      </trkpt>
      <trkpt lat="44.48336" lon="-1.12551">
        <ele>20</ele>
        <time>2016-04-23T13:22:38Z</time>
      </trkpt>
      <trkpt lat="44.48334" lon="-1.12557">
        <ele>20</ele>
        <time>2016-04-23T13:22:40Z</time>
      </trkpt>
      <trkpt lat="44.48331" lon="-1.12564">
        <ele>20</ele>
        <time>2016-04-23T13:22:42Z</time>
      </trkpt>
      <trkpt lat="44.48328" lon="-1.1257">
        <ele>20</ele>
        <time>2016-04-23T13:22:44Z</time>
      </trkpt>
      <trkpt lat="44.48326" lon="-1.12576">
        <ele>20</ele>
        <time>2016-04-23T13:22:46Z</time>
      </trkpt>
      <trkpt lat="44.48324" lon="-1.12583">
        <ele>20</ele>
        <time>2016-04-23T13:22:48Z</time>
      </trkpt>
      <trkpt lat="44.48322" lon="-1.12589">
        <ele>20</ele>
        <time>2016-04-23T13:22:50Z</time>
      </trkpt>
      <trkpt lat="44.48319" lon="-1.12594">
        <ele>20</ele>
        <time>2016-04-23T13:22:52Z</time>
      </trkpt>
      <trkpt lat="44.48316" lon="-1.126">
        <ele>20</ele>
        <time>2016-04-23T13:22:54Z</time>
      </trkpt>
      <trkpt lat="44.48313" lon="-1.12606">
        <ele>20</ele>
        <time>2016-04-23T13:22:56Z</time>
      </trkpt>
      <trkpt lat="44.4831" lon="-1.12612">
        <ele>20</ele>
        <time>2016-04-23T13:22:58Z</time>
      </trkpt>
      <trkpt lat="44.48308" lon="-1.12619">
        <ele>20</ele>
        <time>2016-04-23T13:23:00Z</time>
      </trkpt>
      <trkpt lat="44.48305" lon="-1.12624">
        <ele>20</ele>
        <time>2016-04-23T13:23:02Z</time>
      </trkpt>
      <trkpt lat="44.48302" lon="-1.1263">
        <ele>20</ele>
        <time>2016-04-23T13:23:04Z</time>
      </trkpt>
      <trkpt lat="44.48299" lon="-1.12636">
        <ele>20</ele>
        <time>2016-04-23T13:23:06Z</time>
      </trkpt>
      <trkpt lat="44.48297" lon="-1.12642">
        <ele>20</ele>
        <time>2016-04-23T13:23:08Z</time>
      </trkpt>
      <trkpt lat="44.48294" lon="-1.12648">
        <ele>20</ele>
        <time>2016-04-23T13:23:10Z</time>
      </trkpt>
      <trkpt lat="44.48292" lon="-1.12655">
        <ele>20</ele>
        <time>2016-04-23T13:23:12Z</time>
      </trkpt>
      <trkpt lat="44.48289" lon="-1.12661">
        <ele>20</ele>
        <time>2016-04-23T13:23:14Z</time>
      </trkpt>
      <trkpt lat="44.48287" lon="-1.12668">
        <ele>20</ele>
        <time>2016-04-23T13:23:16Z</time>
      </trkpt>
      <trkpt lat="44.48284" lon="-1.12674">
        <ele>20</ele>
        <time>2016-04-23T13:23:18Z</time>
      </trkpt>
      <trkpt lat="44.48282" lon="-1.1268">
        <ele>20</ele>
        <time>2016-04-23T13:23:20Z</time>
      </trkpt>
      <trkpt lat="44.48279" lon="-1.12686">
        <ele>20</ele>
        <time>2016-04-23T13:23:22Z</time>
      </trkpt>
      <trkpt lat="44.48277" lon="-1.12692">
        <ele>20</ele>
        <time>2016-04-23T13:23:24Z</time>
      </trkpt>
      <trkpt lat="44.48274" lon="-1.12698">
        <ele>20</ele>
        <time>2016-04-23T13:23:26Z</time>
      </trkpt>
      <trkpt lat="44.48271" lon="-1.12704">
        <ele>20</ele>
        <time>2016-04-23T13:23:28Z</time>
      </trkpt>
      <trkpt lat="44.48268" lon="-1.12711">
        <ele>20</ele>
        <time>2016-04-23T13:23:30Z</time>
      </trkpt>
      <trkpt lat="44.48265" lon="-1.12717">
        <ele>20</ele>
        <time>2016-04-23T13:23:32Z</time>
      </trkpt>
      <trkpt lat="44.48263" lon="-1.12723">
        <ele>20</ele>
        <time>2016-04-23T13:23:34Z</time>
      </trkpt>
      <trkpt lat="44.4826" lon="-1.1273">
        <ele>20</ele>
        <time>2016-04-23T13:23:36Z</time>
      </trkpt>
      <trkpt lat="44.48257" lon="-1.12736">
        <ele>20</ele>
        <time>2016-04-23T13:23:38Z</time>
      </trkpt>
      <trkpt lat="44.48254" lon="-1.12742">
        <ele>20</ele>
        <time>2016-04-23T13:23:40Z</time>
      </trkpt>
      <trkpt lat="44.48251" lon="-1.12749">
        <ele>20</ele>
        <time>2016-04-23T13:23:42Z</time>
      </trkpt>
      <trkpt lat="44.48248" lon="-1.12755">
        <ele>20</ele>
        <time>2016-04-23T13:23:44Z</time>
      </trkpt>
      <trkpt lat="44.48246" lon="-1.1276">
        <ele>20</ele>
        <time>2016-04-23T13:23:46Z</time>
      </trkpt>
      <trkpt lat="44.48244" lon="-1.12766">
        <ele>20</ele>
        <time>2016-04-23T13:23:48Z</time>
      </trkpt>
      <trkpt lat="44.48242" lon="-1.12772">
        <ele>20</ele>
        <time>2016-04-23T13:23:50Z</time>
      </trkpt>
      <trkpt lat="44.48239" lon="-1.12777">
        <ele>20</ele>
        <time>2016-04-23T13:23:52Z</time>
      </trkpt>
      <trkpt lat="44.48237" lon="-1.12782">
        <ele>20</ele>
        <time>2016-04-23T13:23:54Z</time>
      </trkpt>
      <trkpt lat="44.48234" lon="-1.12788">
        <ele>20</ele>
        <time>2016-04-23T13:23:56Z</time>
      </trkpt>
      <trkpt lat="44.48232" lon="-1.12793">
        <ele>20</ele>
        <time>2016-04-23T13:23:58Z</time>
      </trkpt>
      <trkpt lat="44.48229" lon="-1.12799">
        <ele>20</ele>
        <time>2016-04-23T13:24:00Z</time>
      </trkpt>
      <trkpt lat="44.48226" lon="-1.12805">
        <ele>20</ele>
        <time>2016-04-23T13:24:02Z</time>
      </trkpt>
      <trkpt lat="44.48223" lon="-1.12811">
        <ele>20</ele>
        <time>2016-04-23T13:24:04Z</time>
      </trkpt>
      <trkpt lat="44.48221" lon="-1.12817">
        <ele>20</ele>
        <time>2016-04-23T13:24:06Z</time>
      </trkpt>
      <trkpt lat="44.48218" lon="-1.12823">
        <ele>20</ele>
        <time>2016-04-23T13:24:08Z</time>
      </trkpt>
      <trkpt lat="44.48216" lon="-1.12829">
        <ele>20</ele>
        <time>2016-04-23T13:24:10Z</time>
      </trkpt>
      <trkpt lat="44.48214" lon="-1.12835">
        <ele>20</ele>
        <time>2016-04-23T13:24:12Z</time>
      </trkpt>
      <trkpt lat="44.48212" lon="-1.12841">
        <ele>20</ele>
        <time>2016-04-23T13:24:14Z</time>
      </trkpt>
      <trkpt lat="44.4821" lon="-1.12847">
        <ele>20</ele>
        <time>2016-04-23T13:24:16Z</time>
      </trkpt>
      <trkpt lat="44.48208" lon="-1.12854">
        <ele>20</ele>
        <time>2016-04-23T13:24:18Z</time>
      </trkpt>
      <trkpt lat="44.48205" lon="-1.12859">
        <ele>20</ele>
        <time>2016-04-23T13:24:20Z</time>
      </trkpt>
      <trkpt lat="44.48203" lon="-1.12865">
        <ele>20</ele>
        <time>2016-04-23T13:24:22Z</time>
      </trkpt>
      <trkpt lat="44.48201" lon="-1.12872">
        <ele>20</ele>
        <time>2016-04-23T13:24:24Z</time>
      </trkpt>
      <trkpt lat="44.48199" lon="-1.12878">
        <ele>20</ele>
        <time>2016-04-23T13:24:26Z</time>
      </trkpt>
      <trkpt lat="44.48197" lon="-1.12884">
        <ele>20</ele>
        <time>2016-04-23T13:24:28Z</time>
      </trkpt>
      <trkpt lat="44.48195" lon="-1.12891">
        <ele>20</ele>
        <time>2016-04-23T13:24:30Z</time>
      </trkpt>
      <trkpt lat="44.48192" lon="-1.12897">
        <ele>20</ele>
        <time>2016-04-23T13:24:32Z</time>
      </trkpt>
      <trkpt lat="44.4819" lon="-1.12903">
        <ele>20</ele>
        <time>2016-04-23T13:24:34Z</time>
      </trkpt>
      <trkpt lat="44.48188" lon="-1.12909">
        <ele>20</ele>
        <time>2016-04-23T13:24:36Z</time>
      </trkpt>
      <trkpt lat="44.48186" lon="-1.12915">
        <ele>20</ele>
        <time>2016-04-23T13:24:38Z</time>
      </trkpt>
      <trkpt lat="44.48183" lon="-1.12922">
        <ele>20</ele>
        <time>2016-04-23T13:24:40Z</time>
      </trkpt>
      <trkpt lat="44.48181" lon="-1.12928">
        <ele>20</ele>
        <time>2016-04-23T13:24:42Z</time>
      </trkpt>
      <trkpt lat="44.48179" lon="-1.12934">
        <ele>20</ele>
        <time>2016-04-23T13:24:44Z</time>
      </trkpt>
      <trkpt lat="44.48176" lon="-1.12941">
        <ele>20</ele>
        <time>2016-04-23T13:24:46Z</time>
      </trkpt>
      <trkpt lat="44.48174" lon="-1.12948">
        <ele>20</ele>
        <time>2016-04-23T13:24:48Z</time>
      </trkpt>
      <trkpt lat="44.48172" lon="-1.12954">
        <ele>20</ele>
        <time>2016-04-23T13:24:50Z</time>
      </trkpt>
      <trkpt lat="44.4817" lon="-1.1296">
        <ele>20</ele>
        <time>2016-04-23T13:24:52Z</time>
      </trkpt>
      <trkpt lat="44.48168" lon="-1.12966">
        <ele>20</ele>
        <time>2016-04-23T13:24:54Z</time>
      </trkpt>
      <trkpt lat="44.48166" lon="-1.12972">
        <ele>20</ele>
        <time>2016-04-23T13:24:56Z</time>
      </trkpt>
      <trkpt lat="44.48163" lon="-1.12979">
        <ele>20</ele>
        <time>2016-04-23T13:24:58Z</time>
      </trkpt>
      <trkpt lat="44.48161" lon="-1.12985">
        <ele>20</ele>
        <time>2016-04-23T13:25:00Z</time>
      </trkpt>
      <trkpt lat="44.48158" lon="-1.12991">
        <ele>20</ele>
        <time>2016-04-23T13:25:02Z</time>
      </trkpt>
      <trkpt lat="44.48155" lon="-1.12997">
        <ele>20</ele>
        <time>2016-04-23T13:25:04Z</time>
      </trkpt>
      <trkpt lat="44.48152" lon="-1.13003">
        <ele>20</ele>
        <time>2016-04-23T13:25:06Z</time>
      </trkpt>
      <trkpt lat="44.4815" lon="-1.1301">
        <ele>20</ele>
        <time>2016-04-23T13:25:08Z</time>
      </trkpt>
      <trkpt lat="44.48148" lon="-1.13016">
        <ele>20</ele>
        <time>2016-04-23T13:25:10Z</time>
      </trkpt>
      <trkpt lat="44.48146" lon="-1.13023">
        <ele>20</ele>
        <time>2016-04-23T13:25:12Z</time>
      </trkpt>
      <trkpt lat="44.48143" lon="-1.13029">
        <ele>20</ele>
        <time>2016-04-23T13:25:14Z</time>
      </trkpt>
      <trkpt lat="44.48141" lon="-1.13034">
        <ele>20</ele>
        <time>2016-04-23T13:25:16Z</time>
      </trkpt>
      <trkpt lat="44.48139" lon="-1.13041">
        <ele>20</ele>
        <time>2016-04-23T13:25:18Z</time>
      </trkpt>
      <trkpt lat="44.48136" lon="-1.13047">
        <ele>20</ele>
        <time>2016-04-23T13:25:20Z</time>
      </trkpt>
      <trkpt lat="44.48134" lon="-1.13053">
        <ele>20</ele>
        <time>2016-04-23T13:25:22Z</time>
      </trkpt>
      <trkpt lat="44.48132" lon="-1.13059">
        <ele>20</ele>
        <time>2016-04-23T13:25:24Z</time>
      </trkpt>
      <trkpt lat="44.4813" lon="-1.13066">
        <ele>20</ele>
        <time>2016-04-23T13:25:26Z</time>
      </trkpt>
      <trkpt lat="44.48128" lon="-1.13072">
        <ele>20</ele>
        <time>2016-04-23T13:25:28Z</time>
      </trkpt>
      <trkpt lat="44.48126" lon="-1.13078">
        <ele>20</ele>
        <time>2016-04-23T13:25:30Z</time>
      </trkpt>
      <trkpt lat="44.48124" lon="-1.13084">
        <ele>20</ele>
        <time>2016-04-23T13:25:32Z</time>
      </trkpt>
      <trkpt lat="44.48121" lon="-1.1309">
        <ele>20</ele>
        <time>2016-04-23T13:25:34Z</time>
      </trkpt>
      <trkpt lat="44.48119" lon="-1.13096">
        <ele>20</ele>
        <time>2016-04-23T13:25:36Z</time>
      </trkpt>
      <trkpt lat="44.48117" lon="-1.13103">
        <ele>20</ele>
        <time>2016-04-23T13:25:38Z</time>
      </trkpt>
      <trkpt lat="44.48114" lon="-1.13109">
        <ele>20</ele>
        <time>2016-04-23T13:25:40Z</time>
      </trkpt>
      <trkpt lat="44.48113" lon="-1.13115">
        <ele>20</ele>
        <time>2016-04-23T13:25:42Z</time>
      </trkpt>
      <trkpt lat="44.48111" lon="-1.13122">
        <ele>20</ele>
        <time>2016-04-23T13:25:44Z</time>
      </trkpt>
      <trkpt lat="44.48109" lon="-1.13128">
        <ele>20</ele>
        <time>2016-04-23T13:25:46Z</time>
      </trkpt>
      <trkpt lat="44.48106" lon="-1.13134">
        <ele>20</ele>
        <time>2016-04-23T13:25:48Z</time>
      </trkpt>
      <trkpt lat="44.48104" lon="-1.1314">
        <ele>20</ele>
        <time>2016-04-23T13:25:50Z</time>
      </trkpt>
      <trkpt lat="44.48102" lon="-1.13146">
        <ele>20</ele>
        <time>2016-04-23T13:25:52Z</time>
      </trkpt>
      <trkpt lat="44.481" lon="-1.13153">
        <ele>20</ele>
        <time>2016-04-23T13:25:54Z</time>
      </trkpt>
      <trkpt lat="44.48098" lon="-1.13159">
        <ele>20</ele>
        <time>2016-04-23T13:25:56Z</time>
      </trkpt>
      <trkpt lat="44.48096" lon="-1.13164">
        <ele>20</ele>
        <time>2016-04-23T13:25:58Z</time>
      </trkpt>
      <trkpt lat="44.48093" lon="-1.1317">
        <ele>20</ele>
        <time>2016-04-23T13:26:00Z</time>
      </trkpt>
      <trkpt lat="44.48091" lon="-1.13176">
        <ele>20</ele>
        <time>2016-04-23T13:26:02Z</time>
      </trkpt>
      <trkpt lat="44.48089" lon="-1.13182">
        <ele>20</ele>
        <time>2016-04-23T13:26:04Z</time>
      </trkpt>
      <trkpt lat="44.48085" lon="-1.13188">
        <ele>20</ele>
        <time>2016-04-23T13:26:06Z</time>
      </trkpt>
      <trkpt lat="44.48083" lon="-1.13195">
        <ele>20</ele>
        <time>2016-04-23T13:26:08Z</time>
      </trkpt>
      <trkpt lat="44.48081" lon="-1.13201">
        <ele>20</ele>
        <time>2016-04-23T13:26:10Z</time>
      </trkpt>
      <trkpt lat="44.48078" lon="-1.13208">
        <ele>20</ele>
        <time>2016-04-23T13:26:12Z</time>
      </trkpt>
      <trkpt lat="44.48076" lon="-1.13214">
        <ele>20</ele>
        <time>2016-04-23T13:26:14Z</time>
      </trkpt>
      <trkpt lat="44.48074" lon="-1.1322">
        <ele>20</ele>
        <time>2016-04-23T13:26:16Z</time>
      </trkpt>
      <trkpt lat="44.48071" lon="-1.13227">
        <ele>20</ele>
        <time>2016-04-23T13:26:18Z</time>
      </trkpt>
      <trkpt lat="44.48069" lon="-1.13233">
        <ele>20</ele>
        <time>2016-04-23T13:26:20Z</time>
      </trkpt>
      <trkpt lat="44.48067" lon="-1.13239">
        <ele>20</ele>
        <time>2016-04-23T13:26:22Z</time>
      </trkpt>
      <trkpt lat="44.48065" lon="-1.13245">
        <ele>20</ele>
        <time>2016-04-23T13:26:24Z</time>
      </trkpt>
      <trkpt lat="44.48062" lon="-1.1325">
        <ele>20</ele>
        <time>2016-04-23T13:26:26Z</time>
      </trkpt>
      <trkpt lat="44.4806" lon="-1.13256">
        <ele>20</ele>
        <time>2016-04-23T13:26:28Z</time>
      </trkpt>
      <trkpt lat="44.48058" lon="-1.13262">
        <ele>20</ele>
        <time>2016-04-23T13:26:30Z</time>
      </trkpt>
      <trkpt lat="44.48055" lon="-1.13269">
        <ele>20</ele>
        <time>2016-04-23T13:26:32Z</time>
      </trkpt>
      <trkpt lat="44.48053" lon="-1.13275">
        <ele>20</ele>
        <time>2016-04-23T13:26:34Z</time>
      </trkpt>
      <trkpt lat="44.48051" lon="-1.13281">
        <ele>20</ele>
        <time>2016-04-23T13:26:36Z</time>
      </trkpt>
      <trkpt lat="44.48048" lon="-1.13287">
        <ele>20</ele>
        <time>2016-04-23T13:26:38Z</time>
      </trkpt>
      <trkpt lat="44.48046" lon="-1.13294">
        <ele>20</ele>
        <time>2016-04-23T13:26:40Z</time>
      </trkpt>
      <trkpt lat="44.48043" lon="-1.133">
        <ele>20</ele>
        <time>2016-04-23T13:26:42Z</time>
      </trkpt>
      <trkpt lat="44.48041" lon="-1.13306">
        <ele>20</ele>
        <time>2016-04-23T13:26:44Z</time>
      </trkpt>
      <trkpt lat="44.48038" lon="-1.13312">
        <ele>20</ele>
        <time>2016-04-23T13:26:46Z</time>
      </trkpt>
      <trkpt lat="44.48036" lon="-1.13319">
        <ele>20</ele>
        <time>2016-04-23T13:26:48Z</time>
      </trkpt>
      <trkpt lat="44.48034" lon="-1.13326">
        <ele>20</ele>
        <time>2016-04-23T13:26:50Z</time>
      </trkpt>
      <trkpt lat="44.48032" lon="-1.13332">
        <ele>20</ele>
        <time>2016-04-23T13:26:52Z</time>
      </trkpt>
      <trkpt lat="44.4803" lon="-1.13339">
        <ele>20</ele>
        <time>2016-04-23T13:26:54Z</time>
      </trkpt>
      <trkpt lat="44.48029" lon="-1.13346">
        <ele>20</ele>
        <time>2016-04-23T13:26:56Z</time>
      </trkpt>
      <trkpt lat="44.48027" lon="-1.13353">
        <ele>20</ele>
        <time>2016-04-23T13:26:58Z</time>
      </trkpt>
      <trkpt lat="44.48025" lon="-1.13359">
        <ele>20</ele>
        <time>2016-04-23T13:27:00Z</time>
      </trkpt>
      <trkpt lat="44.48024" lon="-1.13366">
        <ele>20</ele>
        <time>2016-04-23T13:27:02Z</time>
      </trkpt>
      <trkpt lat="44.48022" lon="-1.13373">
        <ele>20</ele>
        <time>2016-04-23T13:27:04Z</time>
      </trkpt>
      <trkpt lat="44.4802" lon="-1.13379">
        <ele>20</ele>
        <time>2016-04-23T13:27:06Z</time>
      </trkpt>
      <trkpt lat="44.48018" lon="-1.13386">
        <ele>20</ele>
        <time>2016-04-23T13:27:08Z</time>
      </trkpt>
      <trkpt lat="44.48016" lon="-1.13393">
        <ele>20</ele>
        <time>2016-04-23T13:27:10Z</time>
      </trkpt>
      <trkpt lat="44.48013" lon="-1.13399">
        <ele>20</ele>
        <time>2016-04-23T13:27:12Z</time>
      </trkpt>
      <trkpt lat="44.48011" lon="-1.13405">
        <ele>20</ele>
        <time>2016-04-23T13:27:14Z</time>
      </trkpt>
      <trkpt lat="44.48009" lon="-1.13412">
        <ele>20</ele>
        <time>2016-04-23T13:27:16Z</time>
      </trkpt>
      <trkpt lat="44.48007" lon="-1.13418">
        <ele>20</ele>
        <time>2016-04-23T13:27:18Z</time>
      </trkpt>
      <trkpt lat="44.48005" lon="-1.13424">
        <ele>20</ele>
        <time>2016-04-23T13:27:20Z</time>
      </trkpt>
      <trkpt lat="44.48003" lon="-1.1343">
        <ele>20</ele>
        <time>2016-04-23T13:27:22Z</time>
      </trkpt>
      <trkpt lat="44.48" lon="-1.13436">
        <ele>20</ele>
        <time>2016-04-23T13:27:24Z</time>
      </trkpt>
      <trkpt lat="44.47998" lon="-1.13441">
        <ele>20</ele>
        <time>2016-04-23T13:27:26Z</time>
      </trkpt>
      <trkpt lat="44.47995" lon="-1.13447">
        <ele>20</ele>
        <time>2016-04-23T13:27:28Z</time>
      </trkpt>
      <trkpt lat="44.47993" lon="-1.13453">
        <ele>20</ele>
        <time>2016-04-23T13:27:30Z</time>
      </trkpt>
      <trkpt lat="44.4799" lon="-1.13458">
        <ele>20</ele>
        <time>2016-04-23T13:27:32Z</time>
      </trkpt>
      <trkpt lat="44.47988" lon="-1.13465">
        <ele>20</ele>
        <time>2016-04-23T13:27:34Z</time>
      </trkpt>
      <trkpt lat="44.47986" lon="-1.13471">
        <ele>20</ele>
        <time>2016-04-23T13:27:36Z</time>
      </trkpt>
      <trkpt lat="44.47984" lon="-1.13478">
        <ele>20</ele>
        <time>2016-04-23T13:27:38Z</time>
      </trkpt>
      <trkpt lat="44.47982" lon="-1.13484">
        <ele>20</ele>
        <time>2016-04-23T13:27:40Z</time>
      </trkpt>
      <trkpt lat="44.4798" lon="-1.13491">
        <ele>20</ele>
        <time>2016-04-23T13:27:42Z</time>
      </trkpt>
      <trkpt lat="44.47978" lon="-1.13497">
        <ele>20</ele>
        <time>2016-04-23T13:27:44Z</time>
      </trkpt>
      <trkpt lat="44.47976" lon="-1.13503">
        <ele>20</ele>
        <time>2016-04-23T13:27:46Z</time>
      </trkpt>
      <trkpt lat="44.47974" lon="-1.13509">
        <ele>20</ele>
        <time>2016-04-23T13:27:48Z</time>
      </trkpt>
      <trkpt lat="44.47972" lon="-1.13515">
        <ele>20</ele>
        <time>2016-04-23T13:27:50Z</time>
      </trkpt>
      <trkpt lat="44.47969" lon="-1.13521">
        <ele>20</ele>
        <time>2016-04-23T13:27:52Z</time>
      </trkpt>
      <trkpt lat="44.47968" lon="-1.13527">
        <ele>20</ele>
        <time>2016-04-23T13:27:54Z</time>
      </trkpt>
      <trkpt lat="44.47965" lon="-1.13533">
        <ele>20</ele>
        <time>2016-04-23T13:27:56Z</time>
      </trkpt>
      <trkpt lat="44.47962" lon="-1.13541">
        <ele>20</ele>
        <time>2016-04-23T13:27:59Z</time>
      </trkpt>
      <trkpt lat="44.4796" lon="-1.13547">
        <ele>20</ele>
        <time>2016-04-23T13:28:01Z</time>
      </trkpt>
      <trkpt lat="44.47957" lon="-1.13553">
        <ele>20</ele>
        <time>2016-04-23T13:28:03Z</time>
      </trkpt>
      <trkpt lat="44.47955" lon="-1.13559">
        <ele>20</ele>
        <time>2016-04-23T13:28:05Z</time>
      </trkpt>
      <trkpt lat="44.47953" lon="-1.13566">
        <ele>20</ele>
        <time>2016-04-23T13:28:07Z</time>
      </trkpt>
      <trkpt lat="44.47951" lon="-1.13572">
        <ele>20</ele>
        <time>2016-04-23T13:28:09Z</time>
      </trkpt>
      <trkpt lat="44.47948" lon="-1.13577">
        <ele>20</ele>
        <time>2016-04-23T13:28:11Z</time>
      </trkpt>
      <trkpt lat="44.47946" lon="-1.13583">
        <ele>20</ele>
        <time>2016-04-23T13:28:13Z</time>
      </trkpt>
      <trkpt lat="44.47943" lon="-1.13589">
        <ele>20</ele>
        <time>2016-04-23T13:28:15Z</time>
      </trkpt>
      <trkpt lat="44.47941" lon="-1.13596">
        <ele>20</ele>
        <time>2016-04-23T13:28:17Z</time>
      </trkpt>
      <trkpt lat="44.47939" lon="-1.13602">
        <ele>20</ele>
        <time>2016-04-23T13:28:19Z</time>
      </trkpt>
      <trkpt lat="44.47936" lon="-1.13608">
        <ele>20</ele>
        <time>2016-04-23T13:28:21Z</time>
      </trkpt>
      <trkpt lat="44.47934" lon="-1.13613">
        <ele>20</ele>
        <time>2016-04-23T13:28:23Z</time>
      </trkpt>
      <trkpt lat="44.47931" lon="-1.13619">
        <ele>20</ele>
        <time>2016-04-23T13:28:25Z</time>
      </trkpt>
      <trkpt lat="44.47928" lon="-1.13624">
        <ele>20</ele>
        <time>2016-04-23T13:28:27Z</time>
      </trkpt>
      <trkpt lat="44.47926" lon="-1.13629">
        <ele>20</ele>
        <time>2016-04-23T13:28:29Z</time>
      </trkpt>
      <trkpt lat="44.47923" lon="-1.13634">
        <ele>20</ele>
        <time>2016-04-23T13:28:31Z</time>
      </trkpt>
      <trkpt lat="44.47919" lon="-1.13642">
        <ele>20</ele>
        <time>2016-04-23T13:28:34Z</time>
      </trkpt>
      <trkpt lat="44.47916" lon="-1.13648">
        <ele>20</ele>
        <time>2016-04-23T13:28:36Z</time>
      </trkpt>
      <trkpt lat="44.47913" lon="-1.13654">
        <ele>20</ele>
        <time>2016-04-23T13:28:38Z</time>
      </trkpt>
      <trkpt lat="44.4791" lon="-1.1366">
        <ele>20</ele>
        <time>2016-04-23T13:28:40Z</time>
      </trkpt>
      <trkpt lat="44.47908" lon="-1.13665">
        <ele>20</ele>
        <time>2016-04-23T13:28:42Z</time>
      </trkpt>
      <trkpt lat="44.47905" lon="-1.13671">
        <ele>20</ele>
        <time>2016-04-23T13:28:44Z</time>
      </trkpt>
      <trkpt lat="44.47902" lon="-1.13677">
        <ele>20</ele>
        <time>2016-04-23T13:28:46Z</time>
      </trkpt>
      <trkpt lat="44.47899" lon="-1.13683">
        <ele>20</ele>
        <time>2016-04-23T13:28:48Z</time>
      </trkpt>
      <trkpt lat="44.47896" lon="-1.13689">
        <ele>20</ele>
        <time>2016-04-23T13:28:50Z</time>
      </trkpt>
      <trkpt lat="44.47893" lon="-1.13695">
        <ele>20</ele>
        <time>2016-04-23T13:28:52Z</time>
      </trkpt>
      <trkpt lat="44.4789" lon="-1.137">
        <ele>20</ele>
        <time>2016-04-23T13:28:54Z</time>
      </trkpt>
      <trkpt lat="44.47886" lon="-1.13706">
        <ele>20</ele>
        <time>2016-04-23T13:28:56Z</time>
      </trkpt>
      <trkpt lat="44.47883" lon="-1.13712">
        <ele>20</ele>
        <time>2016-04-23T13:28:58Z</time>
      </trkpt>
      <trkpt lat="44.4788" lon="-1.13718">
        <ele>20</ele>
        <time>2016-04-23T13:29:00Z</time>
      </trkpt>
      <trkpt lat="44.47877" lon="-1.13724">
        <ele>20</ele>
        <time>2016-04-23T13:29:02Z</time>
      </trkpt>
      <trkpt lat="44.47875" lon="-1.1373">
        <ele>20</ele>
        <time>2016-04-23T13:29:04Z</time>
      </trkpt>
      <trkpt lat="44.47872" lon="-1.13737">
        <ele>20</ele>
        <time>2016-04-23T13:29:06Z</time>
      </trkpt>
      <trkpt lat="44.4787" lon="-1.13743">
        <ele>20</ele>
        <time>2016-04-23T13:29:08Z</time>
      </trkpt>
      <trkpt lat="44.47868" lon="-1.13749">
        <ele>20</ele>
        <time>2016-04-23T13:29:10Z</time>
      </trkpt>
      <trkpt lat="44.47865" lon="-1.13754">
        <ele>20</ele>
        <time>2016-04-23T13:29:12Z</time>
      </trkpt>
      <trkpt lat="44.47862" lon="-1.13762">
        <ele>20</ele>
        <time>2016-04-23T13:29:15Z</time>
      </trkpt>
      <trkpt lat="44.47859" lon="-1.13767">
        <ele>20</ele>
        <time>2016-04-23T13:29:17Z</time>
      </trkpt>
      <trkpt lat="44.47856" lon="-1.13773">
        <ele>20</ele>
        <time>2016-04-23T13:29:19Z</time>
      </trkpt>
      <trkpt lat="44.47854" lon="-1.1378">
        <ele>20</ele>
        <time>2016-04-23T13:29:21Z</time>
      </trkpt>
      <trkpt lat="44.47851" lon="-1.13785">
        <ele>20</ele>
        <time>2016-04-23T13:29:23Z</time>
      </trkpt>
      <trkpt lat="44.47848" lon="-1.1379">
        <ele>20</ele>
        <time>2016-04-23T13:29:25Z</time>
      </trkpt>
      <trkpt lat="44.47845" lon="-1.13796">
        <ele>20</ele>
        <time>2016-04-23T13:29:27Z</time>
      </trkpt>
      <trkpt lat="44.47842" lon="-1.13801">
        <ele>20</ele>
        <time>2016-04-23T13:29:29Z</time>
      </trkpt>
      <trkpt lat="44.47839" lon="-1.13806">
        <ele>20</ele>
        <time>2016-04-23T13:29:31Z</time>
      </trkpt>
      <trkpt lat="44.47836" lon="-1.13811">
        <ele>20</ele>
        <time>2016-04-23T13:29:33Z</time>
      </trkpt>
      <trkpt lat="44.47832" lon="-1.1382">
        <ele>20</ele>
        <time>2016-04-23T13:29:36Z</time>
      </trkpt>
      <trkpt lat="44.4783" lon="-1.13827">
        <ele>20</ele>
        <time>2016-04-23T13:29:38Z</time>
      </trkpt>
      <trkpt lat="44.47828" lon="-1.13833">
        <ele>20</ele>
        <time>2016-04-23T13:29:40Z</time>
      </trkpt>
      <trkpt lat="44.47826" lon="-1.13839">
        <ele>20</ele>
        <time>2016-04-23T13:29:42Z</time>
      </trkpt>
      <trkpt lat="44.47824" lon="-1.13845">
        <ele>20</ele>
        <time>2016-04-23T13:29:44Z</time>
      </trkpt>
      <trkpt lat="44.47822" lon="-1.13851">
        <ele>20</ele>
        <time>2016-04-23T13:29:46Z</time>
      </trkpt>
      <trkpt lat="44.47819" lon="-1.13857">
        <ele>20</ele>
        <time>2016-04-23T13:29:48Z</time>
      </trkpt>
      <trkpt lat="44.47817" lon="-1.13863">
        <ele>20</ele>
        <time>2016-04-23T13:29:50Z</time>
      </trkpt>
      <trkpt lat="44.47814" lon="-1.13869">
        <ele>20</ele>
        <time>2016-04-23T13:29:52Z</time>
      </trkpt>
      <trkpt lat="44.47812" lon="-1.13875">
        <ele>20</ele>
        <time>2016-04-23T13:29:54Z</time>
      </trkpt>
      <trkpt lat="44.47809" lon="-1.13881">
        <ele>20</ele>
        <time>2016-04-23T13:29:56Z</time>
      </trkpt>
      <trkpt lat="44.47807" lon="-1.13887">
        <ele>20</ele>
        <time>2016-04-23T13:29:58Z</time>
      </trkpt>
      <trkpt lat="44.47805" lon="-1.13893">
        <ele>20</ele>
        <time>2016-04-23T13:30:00Z</time>
      </trkpt>
      <trkpt lat="44.47803" lon="-1.13899">
        <ele>20</ele>
        <time>2016-04-23T13:30:02Z</time>
      </trkpt>
      <trkpt lat="44.47801" lon="-1.13905">
        <ele>20</ele>
        <time>2016-04-23T13:30:04Z</time>
      </trkpt>
      <trkpt lat="44.47799" lon="-1.13912">
        <ele>20</ele>
        <time>2016-04-23T13:30:06Z</time>
      </trkpt>
      <trkpt lat="44.47796" lon="-1.13918">
        <ele>20</ele>
        <time>2016-04-23T13:30:08Z</time>
      </trkpt>
      <trkpt lat="44.47794" lon="-1.13924">
        <ele>20</ele>
        <time>2016-04-23T13:30:10Z</time>
      </trkpt>
      <trkpt lat="44.47792" lon="-1.13931">
        <ele>20</ele>
        <time>2016-04-23T13:30:12Z</time>
      </trkpt>
      <trkpt lat="44.4779" lon="-1.13938">
        <ele>20</ele>
        <time>2016-04-23T13:30:14Z</time>
      </trkpt>
      <trkpt lat="44.47789" lon="-1.13944">
        <ele>20</ele>
        <time>2016-04-23T13:30:16Z</time>
      </trkpt>
      <trkpt lat="44.47787" lon="-1.13951">
        <ele>20</ele>
        <time>2016-04-23T13:30:18Z</time>
      </trkpt>
      <trkpt lat="44.47784" lon="-1.13957">
        <ele>20</ele>
        <time>2016-04-23T13:30:20Z</time>
      </trkpt>
      <trkpt lat="44.47781" lon="-1.13964">
        <ele>20</ele>
        <time>2016-04-23T13:30:22Z</time>
      </trkpt>
      <trkpt lat="44.4778" lon="-1.1397">
        <ele>20</ele>
        <time>2016-04-23T13:30:24Z</time>
      </trkpt>
      <trkpt lat="44.47777" lon="-1.13976">
        <ele>20</ele>
        <time>2016-04-23T13:30:26Z</time>
      </trkpt>
      <trkpt lat="44.47775" lon="-1.13982">
        <ele>20</ele>
        <time>2016-04-23T13:30:28Z</time>
      </trkpt>
      <trkpt lat="44.47772" lon="-1.13988">
        <ele>20</ele>
        <time>2016-04-23T13:30:30Z</time>
      </trkpt>
      <trkpt lat="44.47769" lon="-1.13994">
        <ele>20</ele>
        <time>2016-04-23T13:30:32Z</time>
      </trkpt>
      <trkpt lat="44.47767" lon="-1.14">
        <ele>20</ele>
        <time>2016-04-23T13:30:34Z</time>
      </trkpt>
      <trkpt lat="44.47765" lon="-1.14007">
        <ele>20</ele>
        <time>2016-04-23T13:30:36Z</time>
      </trkpt>
      <trkpt lat="44.47763" lon="-1.14013">
        <ele>20</ele>
        <time>2016-04-23T13:30:38Z</time>
      </trkpt>
      <trkpt lat="44.47761" lon="-1.1402">
        <ele>20</ele>
        <time>2016-04-23T13:30:40Z</time>
      </trkpt>
      <trkpt lat="44.47758" lon="-1.14025">
        <ele>20</ele>
        <time>2016-04-23T13:30:42Z</time>
      </trkpt>
      <trkpt lat="44.47755" lon="-1.14031">
        <ele>20</ele>
        <time>2016-04-23T13:30:44Z</time>
      </trkpt>
      <trkpt lat="44.47754" lon="-1.14038">
        <ele>20</ele>
        <time>2016-04-23T13:30:46Z</time>
      </trkpt>
      <trkpt lat="44.47752" lon="-1.14044">
        <ele>20</ele>
        <time>2016-04-23T13:30:48Z</time>
      </trkpt>
      <trkpt lat="44.4775" lon="-1.1405">
        <ele>20</ele>
        <time>2016-04-23T13:30:50Z</time>
      </trkpt>
      <trkpt lat="44.47748" lon="-1.14057">
        <ele>20</ele>
        <time>2016-04-23T13:30:52Z</time>
      </trkpt>
      <trkpt lat="44.47746" lon="-1.14063">
        <ele>20</ele>
        <time>2016-04-23T13:30:54Z</time>
      </trkpt>
      <trkpt lat="44.47745" lon="-1.1407">
        <ele>20</ele>
        <time>2016-04-23T13:30:56Z</time>
      </trkpt>
      <trkpt lat="44.47743" lon="-1.14076">
        <ele>20</ele>
        <time>2016-04-23T13:30:58Z</time>
      </trkpt>
      <trkpt lat="44.47741" lon="-1.14082">
        <ele>20</ele>
        <time>2016-04-23T13:31:00Z</time>
      </trkpt>
      <trkpt lat="44.47739" lon="-1.14088">
        <ele>20</ele>
        <time>2016-04-23T13:31:02Z</time>
      </trkpt>
      <trkpt lat="44.47737" lon="-1.14095">
        <ele>20</ele>
        <time>2016-04-23T13:31:04Z</time>
      </trkpt>
      <trkpt lat="44.47736" lon="-1.14101">
        <ele>20</ele>
        <time>2016-04-23T13:31:06Z</time>
      </trkpt>
      <trkpt lat="44.47733" lon="-1.14108">
        <ele>20</ele>
        <time>2016-04-23T13:31:08Z</time>
      </trkpt>
      <trkpt lat="44.47732" lon="-1.14115">
        <ele>20</ele>
        <time>2016-04-23T13:31:10Z</time>
      </trkpt>
      <trkpt lat="44.4773" lon="-1.14121">
        <ele>20</ele>
        <time>2016-04-23T13:31:12Z</time>
      </trkpt>
      <trkpt lat="44.47728" lon="-1.14128">
        <ele>20</ele>
        <time>2016-04-23T13:31:14Z</time>
      </trkpt>
      <trkpt lat="44.47727" lon="-1.14133">
        <ele>20</ele>
        <time>2016-04-23T13:31:16Z</time>
      </trkpt>
      <trkpt lat="44.47725" lon="-1.1414">
        <ele>20</ele>
        <time>2016-04-23T13:31:18Z</time>
      </trkpt>
      <trkpt lat="44.47723" lon="-1.14148">
        <ele>20</ele>
        <time>2016-04-23T13:31:21Z</time>
      </trkpt>
      <trkpt lat="44.47721" lon="-1.14154">
        <ele>20</ele>
        <time>2016-04-23T13:31:23Z</time>
      </trkpt>
      <trkpt lat="44.47718" lon="-1.14163">
        <ele>20</ele>
        <time>2016-04-23T13:31:26Z</time>
      </trkpt>
      <trkpt lat="44.47716" lon="-1.14171">
        <ele>20</ele>
        <time>2016-04-23T13:31:29Z</time>
      </trkpt>
      <trkpt lat="44.47714" lon="-1.14177">
        <ele>20</ele>
        <time>2016-04-23T13:31:31Z</time>
      </trkpt>
      <trkpt lat="44.47713" lon="-1.14183">
        <ele>20</ele>
        <time>2016-04-23T13:31:33Z</time>
      </trkpt>
      <trkpt lat="44.47711" lon="-1.14191">
        <ele>20</ele>
        <time>2016-04-23T13:31:36Z</time>
      </trkpt>
      <trkpt lat="44.47709" lon="-1.14198">
        <ele>20</ele>
        <time>2016-04-23T13:31:39Z</time>
      </trkpt>
      <trkpt lat="44.47707" lon="-1.14205">
        <ele>20</ele>
        <time>2016-04-23T13:31:42Z</time>
      </trkpt>
      <trkpt lat="44.47705" lon="-1.14213">
        <ele>20</ele>
        <time>2016-04-23T13:31:45Z</time>
      </trkpt>
      <trkpt lat="44.47702" lon="-1.14221">
        <ele>20</ele>
        <time>2016-04-23T13:31:48Z</time>
      </trkpt>
      <trkpt lat="44.477" lon="-1.14228">
        <ele>20</ele>
        <time>2016-04-23T13:31:51Z</time>
      </trkpt>
      <trkpt lat="44.47697" lon="-1.14234">
        <ele>20</ele>
        <time>2016-04-23T13:31:54Z</time>
      </trkpt>
      <trkpt lat="44.47694" lon="-1.14242">
        <ele>20</ele>
        <time>2016-04-23T13:31:57Z</time>
      </trkpt>
      <trkpt lat="44.47691" lon="-1.1425">
        <ele>20</ele>
        <time>2016-04-23T13:32:00Z</time>
      </trkpt>
      <trkpt lat="44.47688" lon="-1.14257">
        <ele>20</ele>
        <time>2016-04-23T13:32:03Z</time>
      </trkpt>
      <trkpt lat="44.47684" lon="-1.14265">
        <ele>20</ele>
        <time>2016-04-23T13:32:06Z</time>
      </trkpt>
      <trkpt lat="44.47682" lon="-1.1427">
        <ele>20</ele>
        <time>2016-04-23T13:32:08Z</time>
      </trkpt>
      <trkpt lat="44.47679" lon="-1.14276">
        <ele>20</ele>
        <time>2016-04-23T13:32:10Z</time>
      </trkpt>
      <trkpt lat="44.47675" lon="-1.14282">
        <ele>20</ele>
        <time>2016-04-23T13:32:12Z</time>
      </trkpt>
      <trkpt lat="44.47673" lon="-1.14288">
        <ele>20</ele>
        <time>2016-04-23T13:32:14Z</time>
      </trkpt>
      <trkpt lat="44.4767" lon="-1.14295">
        <ele>20</ele>
        <time>2016-04-23T13:32:16Z</time>
      </trkpt>
      <trkpt lat="44.47667" lon="-1.14301">
        <ele>20</ele>
        <time>2016-04-23T13:32:18Z</time>
      </trkpt>
      <trkpt lat="44.47664" lon="-1.14307">
        <ele>20</ele>
        <time>2016-04-23T13:32:20Z</time>
      </trkpt>
      <trkpt lat="44.47662" lon="-1.14314">
        <ele>20</ele>
        <time>2016-04-23T13:32:22Z</time>
      </trkpt>
      <trkpt lat="44.47659" lon="-1.1432">
        <ele>20</ele>
        <time>2016-04-23T13:32:24Z</time>
      </trkpt>
      <trkpt lat="44.47656" lon="-1.14327">
        <ele>20</ele>
        <time>2016-04-23T13:32:26Z</time>
      </trkpt>
      <trkpt lat="44.47653" lon="-1.14333">
        <ele>20</ele>
        <time>2016-04-23T13:32:28Z</time>
      </trkpt>
      <trkpt lat="44.47651" lon="-1.14339">
        <ele>20</ele>
        <time>2016-04-23T13:32:30Z</time>
      </trkpt>
      <trkpt lat="44.47648" lon="-1.14346">
        <ele>20</ele>
        <time>2016-04-23T13:32:32Z</time>
      </trkpt>
      <trkpt lat="44.47645" lon="-1.14352">
        <ele>20</ele>
        <time>2016-04-23T13:32:34Z</time>
      </trkpt>
      <trkpt lat="44.47643" lon="-1.14358">
        <ele>20</ele>
        <time>2016-04-23T13:32:36Z</time>
      </trkpt>
      <trkpt lat="44.47641" lon="-1.14365">
        <ele>20</ele>
        <time>2016-04-23T13:32:38Z</time>
      </trkpt>
      <trkpt lat="44.47639" lon="-1.14371">
        <ele>20</ele>
        <time>2016-04-23T13:32:40Z</time>
      </trkpt>
      <trkpt lat="44.47637" lon="-1.14378">
        <ele>20</ele>
        <time>2016-04-23T13:32:42Z</time>
      </trkpt>
      <trkpt lat="44.47635" lon="-1.14385">
        <ele>20</ele>
        <time>2016-04-23T13:32:44Z</time>
      </trkpt>
      <trkpt lat="44.47633" lon="-1.14392">
        <ele>20</ele>
        <time>2016-04-23T13:32:46Z</time>
      </trkpt>
      <trkpt lat="44.47631" lon="-1.14398">
        <ele>20</ele>
        <time>2016-04-23T13:32:48Z</time>
      </trkpt>
      <trkpt lat="44.47628" lon="-1.14403">
        <ele>20</ele>
        <time>2016-04-23T13:32:50Z</time>
      </trkpt>
      <trkpt lat="44.47625" lon="-1.14409">
        <ele>20</ele>
        <time>2016-04-23T13:32:52Z</time>
      </trkpt>
      <trkpt lat="44.47623" lon="-1.14416">
        <ele>20</ele>
        <time>2016-04-23T13:32:54Z</time>
      </trkpt>
      <trkpt lat="44.4762" lon="-1.14422">
        <ele>20</ele>
        <time>2016-04-23T13:32:56Z</time>
      </trkpt>
      <trkpt lat="44.47618" lon="-1.14428">
        <ele>20</ele>
        <time>2016-04-23T13:32:58Z</time>
      </trkpt>
      <trkpt lat="44.47615" lon="-1.14435">
        <ele>20</ele>
        <time>2016-04-23T13:33:00Z</time>
      </trkpt>
      <trkpt lat="44.47612" lon="-1.14441">
        <ele>20</ele>
        <time>2016-04-23T13:33:02Z</time>
      </trkpt>
      <trkpt lat="44.4761" lon="-1.14447">
        <ele>20</ele>
        <time>2016-04-23T13:33:04Z</time>
      </trkpt>
      <trkpt lat="44.47607" lon="-1.14454">
        <ele>20</ele>
        <time>2016-04-23T13:33:06Z</time>
      </trkpt>
      <trkpt lat="44.47604" lon="-1.1446">
        <ele>20</ele>
        <time>2016-04-23T13:33:08Z</time>
      </trkpt>
      <trkpt lat="44.47601" lon="-1.14467">
        <ele>20</ele>
        <time>2016-04-23T13:33:10Z</time>
      </trkpt>
      <trkpt lat="44.47598" lon="-1.14474">
        <ele>20</ele>
        <time>2016-04-23T13:33:12Z</time>
      </trkpt>
      <trkpt lat="44.47595" lon="-1.14481">
        <ele>20</ele>
        <time>2016-04-23T13:33:14Z</time>
      </trkpt>
      <trkpt lat="44.47593" lon="-1.14488">
        <ele>20</ele>
        <time>2016-04-23T13:33:16Z</time>
      </trkpt>
      <trkpt lat="44.4759" lon="-1.14494">
        <ele>20</ele>
        <time>2016-04-23T13:33:18Z</time>
      </trkpt>
      <trkpt lat="44.47588" lon="-1.145">
        <ele>20</ele>
        <time>2016-04-23T13:33:20Z</time>
      </trkpt>
      <trkpt lat="44.47585" lon="-1.14505">
        <ele>20</ele>
        <time>2016-04-23T13:33:22Z</time>
      </trkpt>
      <trkpt lat="44.47582" lon="-1.14511">
        <ele>20</ele>
        <time>2016-04-23T13:33:24Z</time>
      </trkpt>
      <trkpt lat="44.47579" lon="-1.14517">
        <ele>20</ele>
        <time>2016-04-23T13:33:26Z</time>
      </trkpt>
      <trkpt lat="44.47575" lon="-1.14523">
        <ele>20</ele>
        <time>2016-04-23T13:33:28Z</time>
      </trkpt>
      <trkpt lat="44.47572" lon="-1.14528">
        <ele>20</ele>
        <time>2016-04-23T13:33:30Z</time>
      </trkpt>
      <trkpt lat="44.47568" lon="-1.14534">
        <ele>20</ele>
        <time>2016-04-23T13:33:32Z</time>
      </trkpt>
      <trkpt lat="44.47565" lon="-1.14541">
        <ele>20</ele>
        <time>2016-04-23T13:33:34Z</time>
      </trkpt>
      <trkpt lat="44.47562" lon="-1.14546">
        <ele>20</ele>
        <time>2016-04-23T13:33:36Z</time>
      </trkpt>
      <trkpt lat="44.47559" lon="-1.14553">
        <ele>20</ele>
        <time>2016-04-23T13:33:38Z</time>
      </trkpt>
      <trkpt lat="44.47556" lon="-1.14559">
        <ele>20</ele>
        <time>2016-04-23T13:33:40Z</time>
      </trkpt>
      <trkpt lat="44.47553" lon="-1.14565">
        <ele>20</ele>
        <time>2016-04-23T13:33:42Z</time>
      </trkpt>
      <trkpt lat="44.47551" lon="-1.14571">
        <ele>20</ele>
        <time>2016-04-23T13:33:44Z</time>
      </trkpt>
      <trkpt lat="44.47548" lon="-1.14577">
        <ele>20</ele>
        <time>2016-04-23T13:33:46Z</time>
      </trkpt>
      <trkpt lat="44.47545" lon="-1.14583">
        <ele>20</ele>
        <time>2016-04-23T13:33:48Z</time>
      </trkpt>
      <trkpt lat="44.47543" lon="-1.14589">
        <ele>20</ele>
        <time>2016-04-23T13:33:50Z</time>
      </trkpt>
      <trkpt lat="44.4754" lon="-1.14595">
        <ele>20</ele>
        <time>2016-04-23T13:33:52Z</time>
      </trkpt>
      <trkpt lat="44.47537" lon="-1.14601">
        <ele>20</ele>
        <time>2016-04-23T13:33:54Z</time>
      </trkpt>
      <trkpt lat="44.47534" lon="-1.14607">
        <ele>20</ele>
        <time>2016-04-23T13:33:56Z</time>
      </trkpt>
      <trkpt lat="44.47531" lon="-1.14613">
        <ele>20</ele>
        <time>2016-04-23T13:33:58Z</time>
      </trkpt>
      <trkpt lat="44.47528" lon="-1.14619">
        <ele>20</ele>
        <time>2016-04-23T13:34:00Z</time>
      </trkpt>
      <trkpt lat="44.47526" lon="-1.14625">
        <ele>20</ele>
        <time>2016-04-23T13:34:02Z</time>
      </trkpt>
      <trkpt lat="44.47523" lon="-1.14631">
        <ele>20</ele>
        <time>2016-04-23T13:34:04Z</time>
      </trkpt>
      <trkpt lat="44.4752" lon="-1.14637">
        <ele>20</ele>
        <time>2016-04-23T13:34:06Z</time>
      </trkpt>
      <trkpt lat="44.47517" lon="-1.14644">
        <ele>20</ele>
        <time>2016-04-23T13:34:08Z</time>
      </trkpt>
      <trkpt lat="44.47515" lon="-1.1465">
        <ele>20</ele>
        <time>2016-04-23T13:34:10Z</time>
      </trkpt>
      <trkpt lat="44.47512" lon="-1.14657">
        <ele>20</ele>
        <time>2016-04-23T13:34:12Z</time>
      </trkpt>
      <trkpt lat="44.4751" lon="-1.14663">
        <ele>20</ele>
        <time>2016-04-23T13:34:14Z</time>
      </trkpt>
      <trkpt lat="44.47507" lon="-1.14669">
        <ele>20</ele>
        <time>2016-04-23T13:34:16Z</time>
      </trkpt>
      <trkpt lat="44.47505" lon="-1.14675">
        <ele>20</ele>
        <time>2016-04-23T13:34:18Z</time>
      </trkpt>
      <trkpt lat="44.47502" lon="-1.14682">
        <ele>20</ele>
        <time>2016-04-23T13:34:20Z</time>
      </trkpt>
      <trkpt lat="44.475" lon="-1.14688">
        <ele>20</ele>
        <time>2016-04-23T13:34:22Z</time>
      </trkpt>
      <trkpt lat="44.47498" lon="-1.14694">
        <ele>20</ele>
        <time>2016-04-23T13:34:24Z</time>
      </trkpt>
      <trkpt lat="44.47496" lon="-1.147">
        <ele>20</ele>
        <time>2016-04-23T13:34:26Z</time>
      </trkpt>
      <trkpt lat="44.47493" lon="-1.14706">
        <ele>20</ele>
        <time>2016-04-23T13:34:28Z</time>
      </trkpt>
      <trkpt lat="44.4749" lon="-1.14712">
        <ele>20</ele>
        <time>2016-04-23T13:34:30Z</time>
      </trkpt>
      <trkpt lat="44.47486" lon="-1.14718">
        <ele>20</ele>
        <time>2016-04-23T13:34:32Z</time>
      </trkpt>
      <trkpt lat="44.47483" lon="-1.14725">
        <ele>20</ele>
        <time>2016-04-23T13:34:34Z</time>
      </trkpt>
      <trkpt lat="44.4748" lon="-1.14731">
        <ele>20</ele>
        <time>2016-04-23T13:34:36Z</time>
      </trkpt>
      <trkpt lat="44.47477" lon="-1.14737">
        <ele>20</ele>
        <time>2016-04-23T13:34:38Z</time>
      </trkpt>
      <trkpt lat="44.47474" lon="-1.14743">
        <ele>20</ele>
        <time>2016-04-23T13:34:40Z</time>
      </trkpt>
      <trkpt lat="44.4747" lon="-1.14749">
        <ele>20</ele>
        <time>2016-04-23T13:34:42Z</time>
      </trkpt>
      <trkpt lat="44.47468" lon="-1.14756">
        <ele>20</ele>
        <time>2016-04-23T13:34:44Z</time>
      </trkpt>
      <trkpt lat="44.47465" lon="-1.14763">
        <ele>20</ele>
        <time>2016-04-23T13:34:46Z</time>
      </trkpt>
      <trkpt lat="44.47462" lon="-1.1477">
        <ele>20</ele>
        <time>2016-04-23T13:34:48Z</time>
      </trkpt>
      <trkpt lat="44.4746" lon="-1.14777">
        <ele>20</ele>
        <time>2016-04-23T13:34:50Z</time>
      </trkpt>
      <trkpt lat="44.47457" lon="-1.14783">
        <ele>20</ele>
        <time>2016-04-23T13:34:52Z</time>
      </trkpt>
      <trkpt lat="44.47454" lon="-1.1479">
        <ele>20</ele>
        <time>2016-04-23T13:34:54Z</time>
      </trkpt>
      <trkpt lat="44.47452" lon="-1.14797">
        <ele>20</ele>
        <time>2016-04-23T13:34:56Z</time>
      </trkpt>
      <trkpt lat="44.47449" lon="-1.14803">
        <ele>20</ele>
        <time>2016-04-23T13:34:58Z</time>
      </trkpt>
      <trkpt lat="44.47447" lon="-1.1481">
        <ele>20</ele>
        <time>2016-04-23T13:35:00Z</time>
      </trkpt>
      <trkpt lat="44.47444" lon="-1.14817">
        <ele>20</ele>
        <time>2016-04-23T13:35:02Z</time>
      </trkpt>
      <trkpt lat="44.47441" lon="-1.14823">
        <ele>20</ele>
        <time>2016-04-23T13:35:04Z</time>
      </trkpt>
      <trkpt lat="44.47438" lon="-1.1483">
        <ele>20</ele>
        <time>2016-04-23T13:35:06Z</time>
      </trkpt>
      <trkpt lat="44.47436" lon="-1.14837">
        <ele>20</ele>
        <time>2016-04-23T13:35:08Z</time>
      </trkpt>
      <trkpt lat="44.47433" lon="-1.14843">
        <ele>20</ele>
        <time>2016-04-23T13:35:10Z</time>
      </trkpt>
      <trkpt lat="44.47431" lon="-1.1485">
        <ele>20</ele>
        <time>2016-04-23T13:35:12Z</time>
      </trkpt>
      <trkpt lat="44.47427" lon="-1.14856">
        <ele>20</ele>
        <time>2016-04-23T13:35:14Z</time>
      </trkpt>
      <trkpt lat="44.47424" lon="-1.14863">
        <ele>20</ele>
        <time>2016-04-23T13:35:16Z</time>
      </trkpt>
      <trkpt lat="44.4742" lon="-1.1487">
        <ele>20</ele>
        <time>2016-04-23T13:35:18Z</time>
      </trkpt>
      <trkpt lat="44.47418" lon="-1.14876">
        <ele>20</ele>
        <time>2016-04-23T13:35:20Z</time>
      </trkpt>
      <trkpt lat="44.47414" lon="-1.14883">
        <ele>20</ele>
        <time>2016-04-23T13:35:22Z</time>
      </trkpt>
      <trkpt lat="44.47411" lon="-1.1489">
        <ele>20</ele>
        <time>2016-04-23T13:35:24Z</time>
      </trkpt>
      <trkpt lat="44.47409" lon="-1.14897">
        <ele>20</ele>
        <time>2016-04-23T13:35:26Z</time>
      </trkpt>
      <trkpt lat="44.47406" lon="-1.14903">
        <ele>20</ele>
        <time>2016-04-23T13:35:28Z</time>
      </trkpt>
      <trkpt lat="44.47402" lon="-1.1491">
        <ele>20</ele>
        <time>2016-04-23T13:35:30Z</time>
      </trkpt>
      <trkpt lat="44.47399" lon="-1.14917">
        <ele>20</ele>
        <time>2016-04-23T13:35:32Z</time>
      </trkpt>
      <trkpt lat="44.47396" lon="-1.14924">
        <ele>20</ele>
        <time>2016-04-23T13:35:34Z</time>
      </trkpt>
      <trkpt lat="44.47393" lon="-1.14931">
        <ele>20</ele>
        <time>2016-04-23T13:35:36Z</time>
      </trkpt>
      <trkpt lat="44.4739" lon="-1.14937">
        <ele>20</ele>
        <time>2016-04-23T13:35:38Z</time>
      </trkpt>
      <trkpt lat="44.47387" lon="-1.14944">
        <ele>20</ele>
        <time>2016-04-23T13:35:40Z</time>
      </trkpt>
      <trkpt lat="44.47384" lon="-1.1495">
        <ele>20</ele>
        <time>2016-04-23T13:35:42Z</time>
      </trkpt>
      <trkpt lat="44.47381" lon="-1.14956">
        <ele>20</ele>
        <time>2016-04-23T13:35:44Z</time>
      </trkpt>
      <trkpt lat="44.47378" lon="-1.14963">
        <ele>20</ele>
        <time>2016-04-23T13:35:46Z</time>
      </trkpt>
      <trkpt lat="44.47375" lon="-1.14969">
        <ele>20</ele>
        <time>2016-04-23T13:35:48Z</time>
      </trkpt>
      <trkpt lat="44.47372" lon="-1.14976">
        <ele>20</ele>
        <time>2016-04-23T13:35:50Z</time>
      </trkpt>
      <trkpt lat="44.47369" lon="-1.14983">
        <ele>20</ele>
        <time>2016-04-23T13:35:52Z</time>
      </trkpt>
      <trkpt lat="44.47366" lon="-1.1499">
        <ele>20</ele>
        <time>2016-04-23T13:35:54Z</time>
      </trkpt>
      <trkpt lat="44.47364" lon="-1.14996">
        <ele>20</ele>
        <time>2016-04-23T13:35:56Z</time>
      </trkpt>
      <trkpt lat="44.47361" lon="-1.15003">
        <ele>20</ele>
        <time>2016-04-23T13:35:58Z</time>
      </trkpt>
      <trkpt lat="44.47358" lon="-1.1501">
        <ele>20</ele>
        <time>2016-04-23T13:36:00Z</time>
      </trkpt>
      <trkpt lat="44.47355" lon="-1.15016">
        <ele>20</ele>
        <time>2016-04-23T13:36:02Z</time>
      </trkpt>
      <trkpt lat="44.47351" lon="-1.15023">
        <ele>20</ele>
        <time>2016-04-23T13:36:04Z</time>
      </trkpt>
      <trkpt lat="44.47348" lon="-1.15029">
        <ele>20</ele>
        <time>2016-04-23T13:36:06Z</time>
      </trkpt>
      <trkpt lat="44.47345" lon="-1.15035">
        <ele>20</ele>
        <time>2016-04-23T13:36:08Z</time>
      </trkpt>
      <trkpt lat="44.47342" lon="-1.15042">
        <ele>20</ele>
        <time>2016-04-23T13:36:10Z</time>
      </trkpt>
      <trkpt lat="44.47339" lon="-1.15048">
        <ele>20</ele>
        <time>2016-04-23T13:36:12Z</time>
      </trkpt>
      <trkpt lat="44.47336" lon="-1.15055">
        <ele>20</ele>
        <time>2016-04-23T13:36:14Z</time>
      </trkpt>
      <trkpt lat="44.47333" lon="-1.15061">
        <ele>20</ele>
        <time>2016-04-23T13:36:16Z</time>
      </trkpt>
      <trkpt lat="44.4733" lon="-1.15068">
        <ele>20</ele>
        <time>2016-04-23T13:36:18Z</time>
      </trkpt>
      <trkpt lat="44.47328" lon="-1.15075">
        <ele>20</ele>
        <time>2016-04-23T13:36:20Z</time>
      </trkpt>
      <trkpt lat="44.47325" lon="-1.15081">
        <ele>20</ele>
        <time>2016-04-23T13:36:22Z</time>
      </trkpt>
      <trkpt lat="44.47322" lon="-1.15089">
        <ele>20</ele>
        <time>2016-04-23T13:36:24Z</time>
      </trkpt>
      <trkpt lat="44.4732" lon="-1.15096">
        <ele>20</ele>
        <time>2016-04-23T13:36:26Z</time>
      </trkpt>
      <trkpt lat="44.47318" lon="-1.15103">
        <ele>20</ele>
        <time>2016-04-23T13:36:28Z</time>
      </trkpt>
      <trkpt lat="44.47315" lon="-1.1511">
        <ele>20</ele>
        <time>2016-04-23T13:36:30Z</time>
      </trkpt>
      <trkpt lat="44.47313" lon="-1.15116">
        <ele>20</ele>
        <time>2016-04-23T13:36:32Z</time>
      </trkpt>
      <trkpt lat="44.4731" lon="-1.15122">
        <ele>20</ele>
        <time>2016-04-23T13:36:34Z</time>
      </trkpt>
      <trkpt lat="44.47306" lon="-1.15128">
        <ele>20</ele>
        <time>2016-04-23T13:36:36Z</time>
      </trkpt>
      <trkpt lat="44.47303" lon="-1.15134">
        <ele>20</ele>
        <time>2016-04-23T13:36:38Z</time>
      </trkpt>
      <trkpt lat="44.473" lon="-1.1514">
        <ele>20</ele>
        <time>2016-04-23T13:36:40Z</time>
      </trkpt>
      <trkpt lat="44.47297" lon="-1.15145">
        <ele>20</ele>
        <time>2016-04-23T13:36:42Z</time>
      </trkpt>
      <trkpt lat="44.47293" lon="-1.1515">
        <ele>20</ele>
        <time>2016-04-23T13:36:44Z</time>
      </trkpt>
      <trkpt lat="44.47289" lon="-1.15156">
        <ele>20</ele>
        <time>2016-04-23T13:36:46Z</time>
      </trkpt>
      <trkpt lat="44.47286" lon="-1.15163">
        <ele>20</ele>
        <time>2016-04-23T13:36:48Z</time>
      </trkpt>
      <trkpt lat="44.47283" lon="-1.15169">
        <ele>20</ele>
        <time>2016-04-23T13:36:50Z</time>
      </trkpt>
      <trkpt lat="44.4728" lon="-1.15176">
        <ele>20</ele>
        <time>2016-04-23T13:36:52Z</time>
      </trkpt>
      <trkpt lat="44.47277" lon="-1.15182">
        <ele>20</ele>
        <time>2016-04-23T13:36:54Z</time>
      </trkpt>
      <trkpt lat="44.47274" lon="-1.15189">
        <ele>20</ele>
        <time>2016-04-23T13:36:56Z</time>
      </trkpt>
      <trkpt lat="44.47271" lon="-1.15195">
        <ele>20</ele>
        <time>2016-04-23T13:36:58Z</time>
      </trkpt>
      <trkpt lat="44.47268" lon="-1.15202">
        <ele>20</ele>
        <time>2016-04-23T13:37:00Z</time>
      </trkpt>
      <trkpt lat="44.47265" lon="-1.15208">
        <ele>20</ele>
        <time>2016-04-23T13:37:02Z</time>
      </trkpt>
      <trkpt lat="44.47262" lon="-1.15214">
        <ele>20</ele>
        <time>2016-04-23T13:37:04Z</time>
      </trkpt>
      <trkpt lat="44.47259" lon="-1.15221">
        <ele>20</ele>
        <time>2016-04-23T13:37:06Z</time>
      </trkpt>
      <trkpt lat="44.47257" lon="-1.15227">
        <ele>20</ele>
        <time>2016-04-23T13:37:08Z</time>
      </trkpt>
      <trkpt lat="44.47254" lon="-1.15233">
        <ele>20</ele>
        <time>2016-04-23T13:37:10Z</time>
      </trkpt>
      <trkpt lat="44.47251" lon="-1.1524">
        <ele>20</ele>
        <time>2016-04-23T13:37:12Z</time>
      </trkpt>
      <trkpt lat="44.47248" lon="-1.15246">
        <ele>20</ele>
        <time>2016-04-23T13:37:14Z</time>
      </trkpt>
      <trkpt lat="44.47246" lon="-1.15252">
        <ele>20</ele>
        <time>2016-04-23T13:37:16Z</time>
      </trkpt>
      <trkpt lat="44.47244" lon="-1.15259">
        <ele>20</ele>
        <time>2016-04-23T13:37:18Z</time>
      </trkpt>
      <trkpt lat="44.47241" lon="-1.15265">
        <ele>20</ele>
        <time>2016-04-23T13:37:20Z</time>
      </trkpt>
      <trkpt lat="44.47238" lon="-1.15272">
        <ele>20</ele>
        <time>2016-04-23T13:37:22Z</time>
      </trkpt>
      <trkpt lat="44.47236" lon="-1.15278">
        <ele>20</ele>
        <time>2016-04-23T13:37:24Z</time>
      </trkpt>
      <trkpt lat="44.47234" lon="-1.15285">
        <ele>20</ele>
        <time>2016-04-23T13:37:26Z</time>
      </trkpt>
      <trkpt lat="44.47231" lon="-1.15291">
        <ele>20</ele>
        <time>2016-04-23T13:37:28Z</time>
      </trkpt>
      <trkpt lat="44.47228" lon="-1.15297">
        <ele>20</ele>
        <time>2016-04-23T13:37:30Z</time>
      </trkpt>
      <trkpt lat="44.47225" lon="-1.15304">
        <ele>20</ele>
        <time>2016-04-23T13:37:32Z</time>
      </trkpt>
      <trkpt lat="44.47223" lon="-1.15311">
        <ele>20</ele>
        <time>2016-04-23T13:37:34Z</time>
      </trkpt>
      <trkpt lat="44.47221" lon="-1.15317">
        <ele>20</ele>
        <time>2016-04-23T13:37:36Z</time>
      </trkpt>
      <trkpt lat="44.47219" lon="-1.15324">
        <ele>20</ele>
        <time>2016-04-23T13:37:38Z</time>
      </trkpt>
      <trkpt lat="44.47217" lon="-1.1533">
        <ele>20</ele>
        <time>2016-04-23T13:37:40Z</time>
      </trkpt>
      <trkpt lat="44.47214" lon="-1.15337">
        <ele>20</ele>
        <time>2016-04-23T13:37:42Z</time>
      </trkpt>
      <trkpt lat="44.47212" lon="-1.15344">
        <ele>20</ele>
        <time>2016-04-23T13:37:44Z</time>
      </trkpt>
      <trkpt lat="44.4721" lon="-1.15351">
        <ele>20</ele>
        <time>2016-04-23T13:37:46Z</time>
      </trkpt>
      <trkpt lat="44.47207" lon="-1.15357">
        <ele>20</ele>
        <time>2016-04-23T13:37:48Z</time>
      </trkpt>
      <trkpt lat="44.47205" lon="-1.15364">
        <ele>20</ele>
        <time>2016-04-23T13:37:50Z</time>
      </trkpt>
      <trkpt lat="44.47203" lon="-1.15372">
        <ele>20</ele>
        <time>2016-04-23T13:37:52Z</time>
      </trkpt>
      <trkpt lat="44.47201" lon="-1.15379">
        <ele>20</ele>
        <time>2016-04-23T13:37:54Z</time>
      </trkpt>
      <trkpt lat="44.47199" lon="-1.15386">
        <ele>20</ele>
        <time>2016-04-23T13:37:56Z</time>
      </trkpt>
      <trkpt lat="44.47197" lon="-1.15393">
        <ele>20</ele>
        <time>2016-04-23T13:37:58Z</time>
      </trkpt>
      <trkpt lat="44.47195" lon="-1.154">
        <ele>20</ele>
        <time>2016-04-23T13:38:00Z</time>
      </trkpt>
      <trkpt lat="44.47192" lon="-1.15407">
        <ele>20</ele>
        <time>2016-04-23T13:38:02Z</time>
      </trkpt>
      <trkpt lat="44.4719" lon="-1.15414">
        <ele>20</ele>
        <time>2016-04-23T13:38:04Z</time>
      </trkpt>
      <trkpt lat="44.47187" lon="-1.15421">
        <ele>20</ele>
        <time>2016-04-23T13:38:06Z</time>
      </trkpt>
      <trkpt lat="44.47186" lon="-1.15427">
        <ele>20</ele>
        <time>2016-04-23T13:38:08Z</time>
      </trkpt>
      <trkpt lat="44.47183" lon="-1.15433">
        <ele>20</ele>
        <time>2016-04-23T13:38:10Z</time>
      </trkpt>
      <trkpt lat="44.4718" lon="-1.15439">
        <ele>20</ele>
        <time>2016-04-23T13:38:12Z</time>
      </trkpt>
      <trkpt lat="44.47177" lon="-1.15444">
        <ele>20</ele>
        <time>2016-04-23T13:38:14Z</time>
      </trkpt>
      <trkpt lat="44.47175" lon="-1.1545">
        <ele>20</ele>
        <time>2016-04-23T13:38:16Z</time>
      </trkpt>
      <trkpt lat="44.47172" lon="-1.15456">
        <ele>20</ele>
        <time>2016-04-23T13:38:18Z</time>
      </trkpt>
      <trkpt lat="44.47171" lon="-1.15462">
        <ele>20</ele>
        <time>2016-04-23T13:38:20Z</time>
      </trkpt>
      <trkpt lat="44.47168" lon="-1.15469">
        <ele>20</ele>
        <time>2016-04-23T13:38:22Z</time>
      </trkpt>
      <trkpt lat="44.47166" lon="-1.15475">
        <ele>20</ele>
        <time>2016-04-23T13:38:24Z</time>
      </trkpt>
      <trkpt lat="44.47163" lon="-1.15481">
        <ele>20</ele>
        <time>2016-04-23T13:38:26Z</time>
      </trkpt>
      <trkpt lat="44.4716" lon="-1.15487">
        <ele>20</ele>
        <time>2016-04-23T13:38:28Z</time>
      </trkpt>
      <trkpt lat="44.47156" lon="-1.15493">
        <ele>20</ele>
        <time>2016-04-23T13:38:30Z</time>
      </trkpt>
      <trkpt lat="44.47153" lon="-1.15499">
        <ele>20</ele>
        <time>2016-04-23T13:38:32Z</time>
      </trkpt>
      <trkpt lat="44.47151" lon="-1.15505">
        <ele>20</ele>
        <time>2016-04-23T13:38:34Z</time>
      </trkpt>
      <trkpt lat="44.47148" lon="-1.15512">
        <ele>20</ele>
        <time>2016-04-23T13:38:36Z</time>
      </trkpt>
      <trkpt lat="44.47146" lon="-1.15518">
        <ele>20</ele>
        <time>2016-04-23T13:38:38Z</time>
      </trkpt>
      <trkpt lat="44.47143" lon="-1.15524">
        <ele>20</ele>
        <time>2016-04-23T13:38:40Z</time>
      </trkpt>
      <trkpt lat="44.47141" lon="-1.1553">
        <ele>20</ele>
        <time>2016-04-23T13:38:42Z</time>
      </trkpt>
      <trkpt lat="44.47139" lon="-1.15536">
        <ele>20</ele>
        <time>2016-04-23T13:38:44Z</time>
      </trkpt>
      <trkpt lat="44.47137" lon="-1.15542">
        <ele>20</ele>
        <time>2016-04-23T13:38:46Z</time>
      </trkpt>
      <trkpt lat="44.47135" lon="-1.15549">
        <ele>20</ele>
        <time>2016-04-23T13:38:48Z</time>
      </trkpt>
      <trkpt lat="44.47134" lon="-1.15555">
        <ele>20</ele>
        <time>2016-04-23T13:38:50Z</time>
      </trkpt>
      <trkpt lat="44.47131" lon="-1.15563">
        <ele>20</ele>
        <time>2016-04-23T13:38:53Z</time>
      </trkpt>
      <trkpt lat="44.47128" lon="-1.15569">
        <ele>20</ele>
        <time>2016-04-23T13:38:55Z</time>
      </trkpt>
      <trkpt lat="44.47125" lon="-1.15575">
        <ele>20</ele>
        <time>2016-04-23T13:38:57Z</time>
      </trkpt>
      <trkpt lat="44.47122" lon="-1.15579">
        <ele>20</ele>
        <time>2016-04-23T13:38:59Z</time>
      </trkpt>
      <trkpt lat="44.47119" lon="-1.15584">
        <ele>20</ele>
        <time>2016-04-23T13:39:01Z</time>
      </trkpt>
      <trkpt lat="44.47116" lon="-1.15589">
        <ele>20</ele>
        <time>2016-04-23T13:39:03Z</time>
      </trkpt>
      <trkpt lat="44.47113" lon="-1.15594">
        <ele>20</ele>
        <time>2016-04-23T13:39:05Z</time>
      </trkpt>
      <trkpt lat="44.4711" lon="-1.15599">
        <ele>20</ele>
        <time>2016-04-23T13:39:07Z</time>
      </trkpt>
      <trkpt lat="44.47107" lon="-1.15604">
        <ele>20</ele>
        <time>2016-04-23T13:39:09Z</time>
      </trkpt>
      <trkpt lat="44.47103" lon="-1.15609">
        <ele>20</ele>
        <time>2016-04-23T13:39:11Z</time>
      </trkpt>
      <trkpt lat="44.471" lon="-1.15615">
        <ele>20</ele>
        <time>2016-04-23T13:39:13Z</time>
      </trkpt>
      <trkpt lat="44.47097" lon="-1.1562">
        <ele>20</ele>
        <time>2016-04-23T13:39:15Z</time>
      </trkpt>
      <trkpt lat="44.47093" lon="-1.15625">
        <ele>20</ele>
        <time>2016-04-23T13:39:17Z</time>
      </trkpt>
      <trkpt lat="44.47091" lon="-1.1563">
        <ele>20</ele>
        <time>2016-04-23T13:39:19Z</time>
      </trkpt>
      <trkpt lat="44.47087" lon="-1.15637">
        <ele>20</ele>
        <time>2016-04-23T13:39:22Z</time>
      </trkpt>
      <trkpt lat="44.47084" lon="-1.15643">
        <ele>20</ele>
        <time>2016-04-23T13:39:24Z</time>
      </trkpt>
      <trkpt lat="44.47082" lon="-1.15649">
        <ele>20</ele>
        <time>2016-04-23T13:39:26Z</time>
      </trkpt>
      <trkpt lat="44.47079" lon="-1.15655">
        <ele>20</ele>
        <time>2016-04-23T13:39:28Z</time>
      </trkpt>
      <trkpt lat="44.47075" lon="-1.15661">
        <ele>20</ele>
        <time>2016-04-23T13:39:30Z</time>
      </trkpt>
      <trkpt lat="44.47073" lon="-1.15667">
        <ele>20</ele>
        <time>2016-04-23T13:39:32Z</time>
      </trkpt>
      <trkpt lat="44.4707" lon="-1.15672">
        <ele>20</ele>
        <time>2016-04-23T13:39:34Z</time>
      </trkpt>
      <trkpt lat="44.47067" lon="-1.15677">
        <ele>20</ele>
        <time>2016-04-23T13:39:36Z</time>
      </trkpt>
      <trkpt lat="44.47063" lon="-1.15682">
        <ele>20</ele>
        <time>2016-04-23T13:39:38Z</time>
      </trkpt>
      <trkpt lat="44.4706" lon="-1.15687">
        <ele>20</ele>
        <time>2016-04-23T13:39:40Z</time>
      </trkpt>
      <trkpt lat="44.47056" lon="-1.15693">
        <ele>20</ele>
        <time>2016-04-23T13:39:42Z</time>
      </trkpt>
      <trkpt lat="44.47053" lon="-1.15698">
        <ele>20</ele>
        <time>2016-04-23T13:39:44Z</time>
      </trkpt>
      <trkpt lat="44.47049" lon="-1.15705">
        <ele>20</ele>
        <time>2016-04-23T13:39:46Z</time>
      </trkpt>
      <trkpt lat="44.47046" lon="-1.1571">
        <ele>20</ele>
        <time>2016-04-23T13:39:48Z</time>
      </trkpt>
      <trkpt lat="44.47042" lon="-1.15715">
        <ele>20</ele>
        <time>2016-04-23T13:39:50Z</time>
      </trkpt>
      <trkpt lat="44.47038" lon="-1.1572">
        <ele>20</ele>
        <time>2016-04-23T13:39:52Z</time>
      </trkpt>
      <trkpt lat="44.47035" lon="-1.15726">
        <ele>20</ele>
        <time>2016-04-23T13:39:54Z</time>
      </trkpt>
      <trkpt lat="44.47031" lon="-1.15731">
        <ele>20</ele>
        <time>2016-04-23T13:39:56Z</time>
      </trkpt>
      <trkpt lat="44.47027" lon="-1.15737">
        <ele>20</ele>
        <time>2016-04-23T13:39:58Z</time>
      </trkpt>
      <trkpt lat="44.47024" lon="-1.15743">
        <ele>20</ele>
        <time>2016-04-23T13:40:00Z</time>
      </trkpt>
      <trkpt lat="44.4702" lon="-1.15749">
        <ele>20</ele>
        <time>2016-04-23T13:40:02Z</time>
      </trkpt>
      <trkpt lat="44.47016" lon="-1.15755">
        <ele>20</ele>
        <time>2016-04-23T13:40:04Z</time>
      </trkpt>
      <trkpt lat="44.47013" lon="-1.15762">
        <ele>20</ele>
        <time>2016-04-23T13:40:06Z</time>
      </trkpt>
      <trkpt lat="44.47009" lon="-1.15768">
        <ele>20</ele>
        <time>2016-04-23T13:40:08Z</time>
      </trkpt>
      <trkpt lat="44.47005" lon="-1.15775">
        <ele>20</ele>
        <time>2016-04-23T13:40:10Z</time>
      </trkpt>
      <trkpt lat="44.47002" lon="-1.15781">
        <ele>20</ele>
        <time>2016-04-23T13:40:12Z</time>
      </trkpt>
      <trkpt lat="44.46998" lon="-1.15787">
        <ele>20</ele>
        <time>2016-04-23T13:40:14Z</time>
      </trkpt>
      <trkpt lat="44.46995" lon="-1.15793">
        <ele>20</ele>
        <time>2016-04-23T13:40:16Z</time>
      </trkpt>
      <trkpt lat="44.46991" lon="-1.15799">
        <ele>20</ele>
        <time>2016-04-23T13:40:18Z</time>
      </trkpt>
      <trkpt lat="44.46988" lon="-1.15806">
        <ele>20</ele>
        <time>2016-04-23T13:40:20Z</time>
      </trkpt>
      <trkpt lat="44.46984" lon="-1.15812">
        <ele>20</ele>
        <time>2016-04-23T13:40:22Z</time>
      </trkpt>
      <trkpt lat="44.46981" lon="-1.15818">
        <ele>20</ele>
        <time>2016-04-23T13:40:24Z</time>
      </trkpt>
      <trkpt lat="44.46977" lon="-1.15824">
        <ele>20</ele>
        <time>2016-04-23T13:40:26Z</time>
      </trkpt>
      <trkpt lat="44.46974" lon="-1.1583">
        <ele>20</ele>
        <time>2016-04-23T13:40:28Z</time>
      </trkpt>
      <trkpt lat="44.4697" lon="-1.15836">
        <ele>20</ele>
        <time>2016-04-23T13:40:30Z</time>
      </trkpt>
      <trkpt lat="44.46966" lon="-1.15843">
        <ele>20</ele>
        <time>2016-04-23T13:40:32Z</time>
      </trkpt>
      <trkpt lat="44.46963" lon="-1.15849">
        <ele>20</ele>
        <time>2016-04-23T13:40:34Z</time>
      </trkpt>
      <trkpt lat="44.46959" lon="-1.15856">
        <ele>20</ele>
        <time>2016-04-23T13:40:36Z</time>
      </trkpt>
      <trkpt lat="44.46955" lon="-1.15862">
        <ele>20</ele>
        <time>2016-04-23T13:40:38Z</time>
      </trkpt>
      <trkpt lat="44.46952" lon="-1.15868">
        <ele>20</ele>
        <time>2016-04-23T13:40:40Z</time>
      </trkpt>
      <trkpt lat="44.46949" lon="-1.15874">
        <ele>20</ele>
        <time>2016-04-23T13:40:42Z</time>
      </trkpt>
      <trkpt lat="44.46946" lon="-1.1588">
        <ele>20</ele>
        <time>2016-04-23T13:40:44Z</time>
      </trkpt>
      <trkpt lat="44.46943" lon="-1.15885">
        <ele>20</ele>
        <time>2016-04-23T13:40:46Z</time>
      </trkpt>
      <trkpt lat="44.46939" lon="-1.15891">
        <ele>20</ele>
        <time>2016-04-23T13:40:48Z</time>
      </trkpt>
      <trkpt lat="44.46935" lon="-1.15897">
        <ele>20</ele>
        <time>2016-04-23T13:40:50Z</time>
      </trkpt>
      <trkpt lat="44.46932" lon="-1.15903">
        <ele>20</ele>
        <time>2016-04-23T13:40:52Z</time>
      </trkpt>
      <trkpt lat="44.46928" lon="-1.15909">
        <ele>20</ele>
        <time>2016-04-23T13:40:54Z</time>
      </trkpt>
      <trkpt lat="44.46925" lon="-1.15915">
        <ele>20</ele>
        <time>2016-04-23T13:40:56Z</time>
      </trkpt>
      <trkpt lat="44.46921" lon="-1.15921">
        <ele>20</ele>
        <time>2016-04-23T13:40:58Z</time>
      </trkpt>
      <trkpt lat="44.46918" lon="-1.15926">
        <ele>20</ele>
        <time>2016-04-23T13:41:00Z</time>
      </trkpt>
      <trkpt lat="44.46914" lon="-1.15933">
        <ele>20</ele>
        <time>2016-04-23T13:41:02Z</time>
      </trkpt>
      <trkpt lat="44.46911" lon="-1.15939">
        <ele>20</ele>
        <time>2016-04-23T13:41:04Z</time>
      </trkpt>
      <trkpt lat="44.46908" lon="-1.15945">
        <ele>20</ele>
        <time>2016-04-23T13:41:06Z</time>
      </trkpt>
      <trkpt lat="44.46905" lon="-1.15951">
        <ele>20</ele>
        <time>2016-04-23T13:41:08Z</time>
      </trkpt>
      <trkpt lat="44.46902" lon="-1.15957">
        <ele>20</ele>
        <time>2016-04-23T13:41:10Z</time>
      </trkpt>
      <trkpt lat="44.46899" lon="-1.15962">
        <ele>20</ele>
        <time>2016-04-23T13:41:12Z</time>
      </trkpt>
      <trkpt lat="44.46896" lon="-1.15969">
        <ele>20</ele>
        <time>2016-04-23T13:41:14Z</time>
      </trkpt>
      <trkpt lat="44.46894" lon="-1.15975">
        <ele>20</ele>
        <time>2016-04-23T13:41:16Z</time>
      </trkpt>
      <trkpt lat="44.46891" lon="-1.1598">
        <ele>20</ele>
        <time>2016-04-23T13:41:18Z</time>
      </trkpt>
      <trkpt lat="44.46888" lon="-1.15987">
        <ele>20</ele>
        <time>2016-04-23T13:41:20Z</time>
      </trkpt>
      <trkpt lat="44.46885" lon="-1.15993">
        <ele>20</ele>
        <time>2016-04-23T13:41:22Z</time>
      </trkpt>
      <trkpt lat="44.46882" lon="-1.15998">
        <ele>20</ele>
        <time>2016-04-23T13:41:24Z</time>
      </trkpt>
      <trkpt lat="44.46878" lon="-1.16004">
        <ele>20</ele>
        <time>2016-04-23T13:41:26Z</time>
      </trkpt>
      <trkpt lat="44.46875" lon="-1.1601">
        <ele>20</ele>
        <time>2016-04-23T13:41:28Z</time>
      </trkpt>
      <trkpt lat="44.46872" lon="-1.16015">
        <ele>20</ele>
        <time>2016-04-23T13:41:30Z</time>
      </trkpt>
      <trkpt lat="44.46868" lon="-1.16021">
        <ele>20</ele>
        <time>2016-04-23T13:41:32Z</time>
      </trkpt>
      <trkpt lat="44.46865" lon="-1.16026">
        <ele>20</ele>
        <time>2016-04-23T13:41:34Z</time>
      </trkpt>
      <trkpt lat="44.46862" lon="-1.16033">
        <ele>20</ele>
        <time>2016-04-23T13:41:36Z</time>
      </trkpt>
      <trkpt lat="44.46859" lon="-1.16039">
        <ele>20</ele>
        <time>2016-04-23T13:41:38Z</time>
      </trkpt>
      <trkpt lat="44.46857" lon="-1.16045">
        <ele>20</ele>
        <time>2016-04-23T13:41:40Z</time>
      </trkpt>
      <trkpt lat="44.46854" lon="-1.16051">
        <ele>20</ele>
        <time>2016-04-23T13:41:42Z</time>
      </trkpt>
      <trkpt lat="44.46851" lon="-1.16057">
        <ele>20</ele>
        <time>2016-04-23T13:41:44Z</time>
      </trkpt>
      <trkpt lat="44.46849" lon="-1.16062">
        <ele>20</ele>
        <time>2016-04-23T13:41:46Z</time>
      </trkpt>
      <trkpt lat="44.46845" lon="-1.16067">
        <ele>20</ele>
        <time>2016-04-23T13:41:48Z</time>
      </trkpt>
      <trkpt lat="44.46842" lon="-1.16072">
        <ele>20</ele>
        <time>2016-04-23T13:41:50Z</time>
      </trkpt>
      <trkpt lat="44.46839" lon="-1.16077">
        <ele>20</ele>
        <time>2016-04-23T13:41:52Z</time>
      </trkpt>
      <trkpt lat="44.46835" lon="-1.16082">
        <ele>20</ele>
        <time>2016-04-23T13:41:54Z</time>
      </trkpt>
      <trkpt lat="44.46832" lon="-1.16087">
        <ele>20</ele>
        <time>2016-04-23T13:41:56Z</time>
      </trkpt>
      <trkpt lat="44.46829" lon="-1.16092">
        <ele>20</ele>
        <time>2016-04-23T13:41:58Z</time>
      </trkpt>
      <trkpt lat="44.46825" lon="-1.16097">
        <ele>20</ele>
        <time>2016-04-23T13:42:00Z</time>
      </trkpt>
      <trkpt lat="44.46822" lon="-1.16102">
        <ele>20</ele>
        <time>2016-04-23T13:42:02Z</time>
      </trkpt>
      <trkpt lat="44.46818" lon="-1.16108">
        <ele>20</ele>
        <time>2016-04-23T13:42:04Z</time>
      </trkpt>
      <trkpt lat="44.46815" lon="-1.16112">
        <ele>20</ele>
        <time>2016-04-23T13:42:06Z</time>
      </trkpt>
      <trkpt lat="44.46811" lon="-1.16118">
        <ele>20</ele>
        <time>2016-04-23T13:42:08Z</time>
      </trkpt>
      <trkpt lat="44.46808" lon="-1.16124">
        <ele>20</ele>
        <time>2016-04-23T13:42:10Z</time>
      </trkpt>
      <trkpt lat="44.46805" lon="-1.16129">
        <ele>20</ele>
        <time>2016-04-23T13:42:12Z</time>
      </trkpt>
      <trkpt lat="44.46802" lon="-1.16134">
        <ele>20</ele>
        <time>2016-04-23T13:42:14Z</time>
      </trkpt>
      <trkpt lat="44.46797" lon="-1.16141">
        <ele>20</ele>
        <time>2016-04-23T13:42:17Z</time>
      </trkpt>
      <trkpt lat="44.46794" lon="-1.16146">
        <ele>20</ele>
        <time>2016-04-23T13:42:19Z</time>
      </trkpt>
      <trkpt lat="44.46791" lon="-1.16154">
        <ele>20</ele>
        <time>2016-04-23T13:42:22Z</time>
      </trkpt>
      <trkpt lat="44.46788" lon="-1.1616">
        <ele>20</ele>
        <time>2016-04-23T13:42:24Z</time>
      </trkpt>
      <trkpt lat="44.46786" lon="-1.16165">
        <ele>20</ele>
        <time>2016-04-23T13:42:26Z</time>
      </trkpt>
      <trkpt lat="44.46783" lon="-1.16171">
        <ele>20</ele>
        <time>2016-04-23T13:42:28Z</time>
      </trkpt>
      <trkpt lat="44.46781" lon="-1.16177">
        <ele>20</ele>
        <time>2016-04-23T13:42:30Z</time>
      </trkpt>
      <trkpt lat="44.46778" lon="-1.16183">
        <ele>20</ele>
        <time>2016-04-23T13:42:32Z</time>
      </trkpt>
      <trkpt lat="44.46776" lon="-1.16189">
        <ele>20</ele>
        <time>2016-04-23T13:42:34Z</time>
      </trkpt>
      <trkpt lat="44.46773" lon="-1.16194">
        <ele>20</ele>
        <time>2016-04-23T13:42:36Z</time>
      </trkpt>
      <trkpt lat="44.46771" lon="-1.162">
        <ele>20</ele>
        <time>2016-04-23T13:42:38Z</time>
      </trkpt>
      <trkpt lat="44.46767" lon="-1.16208">
        <ele>20</ele>
        <time>2016-04-23T13:42:41Z</time>
      </trkpt>
      <trkpt lat="44.46764" lon="-1.16216">
        <ele>20</ele>
        <time>2016-04-23T13:42:44Z</time>
      </trkpt>
      <trkpt lat="44.46761" lon="-1.16221">
        <ele>20</ele>
        <time>2016-04-23T13:42:46Z</time>
      </trkpt>
      <trkpt lat="44.46758" lon="-1.16227">
        <ele>20</ele>
        <time>2016-04-23T13:42:48Z</time>
      </trkpt>
      <trkpt lat="44.46755" lon="-1.16232">
        <ele>20</ele>
        <time>2016-04-23T13:42:50Z</time>
      </trkpt>
      <trkpt lat="44.46752" lon="-1.16238">
        <ele>20</ele>
        <time>2016-04-23T13:42:52Z</time>
      </trkpt>
      <trkpt lat="44.46749" lon="-1.16244">
        <ele>20</ele>
        <time>2016-04-23T13:42:54Z</time>
      </trkpt>
      <trkpt lat="44.46746" lon="-1.1625">
        <ele>20</ele>
        <time>2016-04-23T13:42:56Z</time>
      </trkpt>
      <trkpt lat="44.46744" lon="-1.16257">
        <ele>20</ele>
        <time>2016-04-23T13:42:58Z</time>
      </trkpt>
      <trkpt lat="44.46741" lon="-1.16263">
        <ele>20</ele>
        <time>2016-04-23T13:43:00Z</time>
      </trkpt>
      <trkpt lat="44.46739" lon="-1.16268">
        <ele>20</ele>
        <time>2016-04-23T13:43:02Z</time>
      </trkpt>
      <trkpt lat="44.46736" lon="-1.16274">
        <ele>20</ele>
        <time>2016-04-23T13:43:04Z</time>
      </trkpt>
      <trkpt lat="44.46733" lon="-1.16279">
        <ele>20</ele>
        <time>2016-04-23T13:43:06Z</time>
      </trkpt>
      <trkpt lat="44.4673" lon="-1.16285">
        <ele>20</ele>
        <time>2016-04-23T13:43:08Z</time>
      </trkpt>
      <trkpt lat="44.46727" lon="-1.1629">
        <ele>20</ele>
        <time>2016-04-23T13:43:10Z</time>
      </trkpt>
      <trkpt lat="44.46724" lon="-1.16296">
        <ele>20</ele>
        <time>2016-04-23T13:43:12Z</time>
      </trkpt>
      <trkpt lat="44.4672" lon="-1.16302">
        <ele>20</ele>
        <time>2016-04-23T13:43:14Z</time>
      </trkpt>
      <trkpt lat="44.46717" lon="-1.16308">
        <ele>20</ele>
        <time>2016-04-23T13:43:16Z</time>
      </trkpt>
      <trkpt lat="44.46714" lon="-1.16313">
        <ele>20</ele>
        <time>2016-04-23T13:43:18Z</time>
      </trkpt>
      <trkpt lat="44.46711" lon="-1.16318">
        <ele>20</ele>
        <time>2016-04-23T13:43:20Z</time>
      </trkpt>
      <trkpt lat="44.46708" lon="-1.16324">
        <ele>20</ele>
        <time>2016-04-23T13:43:22Z</time>
      </trkpt>
      <trkpt lat="44.46706" lon="-1.1633">
        <ele>20</ele>
        <time>2016-04-23T13:43:24Z</time>
      </trkpt>
      <trkpt lat="44.46704" lon="-1.16336">
        <ele>20</ele>
        <time>2016-04-23T13:43:26Z</time>
      </trkpt>
      <trkpt lat="44.46701" lon="-1.16341">
        <ele>20</ele>
        <time>2016-04-23T13:43:28Z</time>
      </trkpt>
      <trkpt lat="44.46698" lon="-1.16346">
        <ele>20</ele>
        <time>2016-04-23T13:43:30Z</time>
      </trkpt>
      <trkpt lat="44.46696" lon="-1.16352">
        <ele>20</ele>
        <time>2016-04-23T13:43:32Z</time>
      </trkpt>
      <trkpt lat="44.46693" lon="-1.16358">
        <ele>20</ele>
        <time>2016-04-23T13:43:34Z</time>
      </trkpt>
      <trkpt lat="44.4669" lon="-1.16363">
        <ele>20</ele>
        <time>2016-04-23T13:43:36Z</time>
      </trkpt>
      <trkpt lat="44.46688" lon="-1.16368">
        <ele>20</ele>
        <time>2016-04-23T13:43:38Z</time>
      </trkpt>
      <trkpt lat="44.46685" lon="-1.16374">
        <ele>20</ele>
        <time>2016-04-23T13:43:40Z</time>
      </trkpt>
      <trkpt lat="44.46683" lon="-1.1638">
        <ele>20</ele>
        <time>2016-04-23T13:43:42Z</time>
      </trkpt>
      <trkpt lat="44.4668" lon="-1.16386">
        <ele>20</ele>
        <time>2016-04-23T13:43:44Z</time>
      </trkpt>
      <trkpt lat="44.46677" lon="-1.16392">
        <ele>20</ele>
        <time>2016-04-23T13:43:46Z</time>
      </trkpt>
      <trkpt lat="44.46675" lon="-1.16399">
        <ele>20</ele>
        <time>2016-04-23T13:43:48Z</time>
      </trkpt>
      <trkpt lat="44.46672" lon="-1.16405">
        <ele>20</ele>
        <time>2016-04-23T13:43:50Z</time>
      </trkpt>
      <trkpt lat="44.4667" lon="-1.1641">
        <ele>20</ele>
        <time>2016-04-23T13:43:52Z</time>
      </trkpt>
      <trkpt lat="44.46668" lon="-1.16417">
        <ele>20</ele>
        <time>2016-04-23T13:43:54Z</time>
      </trkpt>
      <trkpt lat="44.46665" lon="-1.16423">
        <ele>20</ele>
        <time>2016-04-23T13:43:56Z</time>
      </trkpt>
      <trkpt lat="44.46662" lon="-1.16429">
        <ele>20</ele>
        <time>2016-04-23T13:43:58Z</time>
      </trkpt>
      <trkpt lat="44.4666" lon="-1.16434">
        <ele>20</ele>
        <time>2016-04-23T13:44:00Z</time>
      </trkpt>
      <trkpt lat="44.46657" lon="-1.16441">
        <ele>20</ele>
        <time>2016-04-23T13:44:02Z</time>
      </trkpt>
      <trkpt lat="44.46655" lon="-1.16446">
        <ele>20</ele>
        <time>2016-04-23T13:44:04Z</time>
      </trkpt>
      <trkpt lat="44.46652" lon="-1.16455">
        <ele>20</ele>
        <time>2016-04-23T13:44:07Z</time>
      </trkpt>
      <trkpt lat="44.4665" lon="-1.1646">
        <ele>20</ele>
        <time>2016-04-23T13:44:09Z</time>
      </trkpt>
      <trkpt lat="44.46647" lon="-1.16467">
        <ele>20</ele>
        <time>2016-04-23T13:44:11Z</time>
      </trkpt>
      <trkpt lat="44.46644" lon="-1.16473">
        <ele>20</ele>
        <time>2016-04-23T13:44:13Z</time>
      </trkpt>
      <trkpt lat="44.46641" lon="-1.16479">
        <ele>20</ele>
        <time>2016-04-23T13:44:15Z</time>
      </trkpt>
      <trkpt lat="44.46639" lon="-1.16485">
        <ele>20</ele>
        <time>2016-04-23T13:44:17Z</time>
      </trkpt>
      <trkpt lat="44.46636" lon="-1.16491">
        <ele>20</ele>
        <time>2016-04-23T13:44:19Z</time>
      </trkpt>
      <trkpt lat="44.46633" lon="-1.16498">
        <ele>20</ele>
        <time>2016-04-23T13:44:21Z</time>
      </trkpt>
      <trkpt lat="44.46631" lon="-1.16504">
        <ele>20</ele>
        <time>2016-04-23T13:44:23Z</time>
      </trkpt>
      <trkpt lat="44.46628" lon="-1.16511">
        <ele>20</ele>
        <time>2016-04-23T13:44:25Z</time>
      </trkpt>
      <trkpt lat="44.46625" lon="-1.16517">
        <ele>20</ele>
        <time>2016-04-23T13:44:27Z</time>
      </trkpt>
      <trkpt lat="44.46623" lon="-1.16523">
        <ele>20</ele>
        <time>2016-04-23T13:44:29Z</time>
      </trkpt>
      <trkpt lat="44.4662" lon="-1.16529">
        <ele>20</ele>
        <time>2016-04-23T13:44:31Z</time>
      </trkpt>
      <trkpt lat="44.46618" lon="-1.16535">
        <ele>20</ele>
        <time>2016-04-23T13:44:33Z</time>
      </trkpt>
      <trkpt lat="44.46616" lon="-1.16542">
        <ele>20</ele>
        <time>2016-04-23T13:44:35Z</time>
      </trkpt>
      <trkpt lat="44.46613" lon="-1.16548">
        <ele>20</ele>
        <time>2016-04-23T13:44:37Z</time>
      </trkpt>
      <trkpt lat="44.4661" lon="-1.16555">
        <ele>20</ele>
        <time>2016-04-23T13:44:39Z</time>
      </trkpt>
      <trkpt lat="44.46608" lon="-1.16561">
        <ele>20</ele>
        <time>2016-04-23T13:44:41Z</time>
      </trkpt>
      <trkpt lat="44.46605" lon="-1.16568">
        <ele>20</ele>
        <time>2016-04-23T13:44:43Z</time>
      </trkpt>
      <trkpt lat="44.46603" lon="-1.16574">
        <ele>20</ele>
        <time>2016-04-23T13:44:45Z</time>
      </trkpt>
      <trkpt lat="44.466" lon="-1.1658">
        <ele>20</ele>
        <time>2016-04-23T13:44:47Z</time>
      </trkpt>
      <trkpt lat="44.46598" lon="-1.16586">
        <ele>20</ele>
        <time>2016-04-23T13:44:49Z</time>
      </trkpt>
      <trkpt lat="44.46595" lon="-1.16592">
        <ele>20</ele>
        <time>2016-04-23T13:44:51Z</time>
      </trkpt>
      <trkpt lat="44.46593" lon="-1.16598">
        <ele>20</ele>
        <time>2016-04-23T13:44:53Z</time>
      </trkpt>
      <trkpt lat="44.4659" lon="-1.16604">
        <ele>20</ele>
        <time>2016-04-23T13:44:55Z</time>
      </trkpt>
      <trkpt lat="44.46588" lon="-1.1661">
        <ele>20</ele>
        <time>2016-04-23T13:44:57Z</time>
      </trkpt>
      <trkpt lat="44.46585" lon="-1.16617">
        <ele>20</ele>
        <time>2016-04-23T13:44:59Z</time>
      </trkpt>
      <trkpt lat="44.46583" lon="-1.16623">
        <ele>20</ele>
        <time>2016-04-23T13:45:01Z</time>
      </trkpt>
      <trkpt lat="44.46581" lon="-1.16629">
        <ele>20</ele>
        <time>2016-04-23T13:45:03Z</time>
      </trkpt>
      <trkpt lat="44.46579" lon="-1.16635">
        <ele>20</ele>
        <time>2016-04-23T13:45:05Z</time>
      </trkpt>
      <trkpt lat="44.46575" lon="-1.16643">
        <ele>20</ele>
        <time>2016-04-23T13:45:08Z</time>
      </trkpt>
      <trkpt lat="44.46573" lon="-1.16649">
        <ele>20</ele>
        <time>2016-04-23T13:45:10Z</time>
      </trkpt>
      <trkpt lat="44.46569" lon="-1.16657">
        <ele>20</ele>
        <time>2016-04-23T13:45:13Z</time>
      </trkpt>
      <trkpt lat="44.46567" lon="-1.16663">
        <ele>20</ele>
        <time>2016-04-23T13:45:15Z</time>
      </trkpt>
      <trkpt lat="44.46565" lon="-1.16669">
        <ele>20</ele>
        <time>2016-04-23T13:45:17Z</time>
      </trkpt>
      <trkpt lat="44.46563" lon="-1.16675">
        <ele>20</ele>
        <time>2016-04-23T13:45:19Z</time>
      </trkpt>
      <trkpt lat="44.4656" lon="-1.16681">
        <ele>20</ele>
        <time>2016-04-23T13:45:21Z</time>
      </trkpt>
      <trkpt lat="44.46558" lon="-1.16688">
        <ele>20</ele>
        <time>2016-04-23T13:45:23Z</time>
      </trkpt>
      <trkpt lat="44.46555" lon="-1.16694">
        <ele>20</ele>
        <time>2016-04-23T13:45:25Z</time>
      </trkpt>
      <trkpt lat="44.46552" lon="-1.167">
        <ele>20</ele>
        <time>2016-04-23T13:45:27Z</time>
      </trkpt>
      <trkpt lat="44.46549" lon="-1.16706">
        <ele>20</ele>
        <time>2016-04-23T13:45:29Z</time>
      </trkpt>
      <trkpt lat="44.46546" lon="-1.16712">
        <ele>20</ele>
        <time>2016-04-23T13:45:31Z</time>
      </trkpt>
      <trkpt lat="44.46543" lon="-1.16719">
        <ele>20</ele>
        <time>2016-04-23T13:45:33Z</time>
      </trkpt>
      <trkpt lat="44.46541" lon="-1.16726">
        <ele>20</ele>
        <time>2016-04-23T13:45:35Z</time>
      </trkpt>
      <trkpt lat="44.46538" lon="-1.16732">
        <ele>20</ele>
        <time>2016-04-23T13:45:37Z</time>
      </trkpt>
      <trkpt lat="44.46536" lon="-1.16738">
        <ele>20</ele>
        <time>2016-04-23T13:45:39Z</time>
      </trkpt>
      <trkpt lat="44.46533" lon="-1.16745">
        <ele>20</ele>
        <time>2016-04-23T13:45:41Z</time>
      </trkpt>
      <trkpt lat="44.46531" lon="-1.16751">
        <ele>20</ele>
        <time>2016-04-23T13:45:43Z</time>
      </trkpt>
      <trkpt lat="44.46529" lon="-1.16758">
        <ele>20</ele>
        <time>2016-04-23T13:45:45Z</time>
      </trkpt>
      <trkpt lat="44.46526" lon="-1.16764">
        <ele>20</ele>
        <time>2016-04-23T13:45:47Z</time>
      </trkpt>
      <trkpt lat="44.46524" lon="-1.1677">
        <ele>20</ele>
        <time>2016-04-23T13:45:49Z</time>
      </trkpt>
      <trkpt lat="44.46522" lon="-1.16777">
        <ele>20</ele>
        <time>2016-04-23T13:45:51Z</time>
      </trkpt>
      <trkpt lat="44.4652" lon="-1.16784">
        <ele>20</ele>
        <time>2016-04-23T13:45:53Z</time>
      </trkpt>
      <trkpt lat="44.46517" lon="-1.16791">
        <ele>20</ele>
        <time>2016-04-23T13:45:55Z</time>
      </trkpt>
      <trkpt lat="44.46515" lon="-1.16798">
        <ele>20</ele>
        <time>2016-04-23T13:45:57Z</time>
      </trkpt>
      <trkpt lat="44.46513" lon="-1.16805">
        <ele>20</ele>
        <time>2016-04-23T13:45:59Z</time>
      </trkpt>
      <trkpt lat="44.4651" lon="-1.16812">
        <ele>20</ele>
        <time>2016-04-23T13:46:01Z</time>
      </trkpt>
      <trkpt lat="44.46507" lon="-1.16819">
        <ele>20</ele>
        <time>2016-04-23T13:46:03Z</time>
      </trkpt>
      <trkpt lat="44.46505" lon="-1.16825">
        <ele>20</ele>
        <time>2016-04-23T13:46:05Z</time>
      </trkpt>
      <trkpt lat="44.46502" lon="-1.16831">
        <ele>20</ele>
        <time>2016-04-23T13:46:07Z</time>
      </trkpt>
      <trkpt lat="44.46499" lon="-1.16838">
        <ele>20</ele>
        <time>2016-04-23T13:46:09Z</time>
      </trkpt>
      <trkpt lat="44.46496" lon="-1.16845">
        <ele>20</ele>
        <time>2016-04-23T13:46:11Z</time>
      </trkpt>
      <trkpt lat="44.46494" lon="-1.16851">
        <ele>20</ele>
        <time>2016-04-23T13:46:13Z</time>
      </trkpt>
      <trkpt lat="44.46491" lon="-1.16858">
        <ele>20</ele>
        <time>2016-04-23T13:46:15Z</time>
      </trkpt>
      <trkpt lat="44.46488" lon="-1.16864">
        <ele>20</ele>
        <time>2016-04-23T13:46:17Z</time>
      </trkpt>
      <trkpt lat="44.46486" lon="-1.1687">
        <ele>20</ele>
        <time>2016-04-23T13:46:19Z</time>
      </trkpt>
      <trkpt lat="44.46483" lon="-1.16876">
        <ele>20</ele>
        <time>2016-04-23T13:46:21Z</time>
      </trkpt>
      <trkpt lat="44.4648" lon="-1.16882">
        <ele>20</ele>
        <time>2016-04-23T13:46:23Z</time>
      </trkpt>
      <trkpt lat="44.46478" lon="-1.16888">
        <ele>20</ele>
        <time>2016-04-23T13:46:25Z</time>
      </trkpt>
      <trkpt lat="44.46475" lon="-1.16895">
        <ele>20</ele>
        <time>2016-04-23T13:46:27Z</time>
      </trkpt>
      <trkpt lat="44.46471" lon="-1.16901">
        <ele>20</ele>
        <time>2016-04-23T13:46:29Z</time>
      </trkpt>
      <trkpt lat="44.46468" lon="-1.16908">
        <ele>20</ele>
        <time>2016-04-23T13:46:31Z</time>
      </trkpt>
      <trkpt lat="44.46464" lon="-1.16915">
        <ele>20</ele>
        <time>2016-04-23T13:46:33Z</time>
      </trkpt>
      <trkpt lat="44.46461" lon="-1.16921">
        <ele>20</ele>
        <time>2016-04-23T13:46:35Z</time>
      </trkpt>
      <trkpt lat="44.46457" lon="-1.16928">
        <ele>20</ele>
        <time>2016-04-23T13:46:37Z</time>
      </trkpt>
      <trkpt lat="44.46454" lon="-1.16935">
        <ele>20</ele>
        <time>2016-04-23T13:46:39Z</time>
      </trkpt>
      <trkpt lat="44.46451" lon="-1.16941">
        <ele>20</ele>
        <time>2016-04-23T13:46:41Z</time>
      </trkpt>
      <trkpt lat="44.46447" lon="-1.16948">
        <ele>20</ele>
        <time>2016-04-23T13:46:43Z</time>
      </trkpt>
      <trkpt lat="44.46445" lon="-1.16955">
        <ele>20</ele>
        <time>2016-04-23T13:46:45Z</time>
      </trkpt>
      <trkpt lat="44.46443" lon="-1.16962">
        <ele>20</ele>
        <time>2016-04-23T13:46:47Z</time>
      </trkpt>
      <trkpt lat="44.4644" lon="-1.16969">
        <ele>20</ele>
        <time>2016-04-23T13:46:49Z</time>
      </trkpt>
      <trkpt lat="44.46438" lon="-1.16977">
        <ele>20</ele>
        <time>2016-04-23T13:46:51Z</time>
      </trkpt>
      <trkpt lat="44.46435" lon="-1.16984">
        <ele>20</ele>
        <time>2016-04-23T13:46:53Z</time>
      </trkpt>
      <trkpt lat="44.46433" lon="-1.16991">
        <ele>20</ele>
        <time>2016-04-23T13:46:55Z</time>
      </trkpt>
      <trkpt lat="44.4643" lon="-1.16998">
        <ele>20</ele>
        <time>2016-04-23T13:46:57Z</time>
      </trkpt>
      <trkpt lat="44.46427" lon="-1.17004">
        <ele>20</ele>
        <time>2016-04-23T13:46:59Z</time>
      </trkpt>
      <trkpt lat="44.46424" lon="-1.1701">
        <ele>20</ele>
        <time>2016-04-23T13:47:01Z</time>
      </trkpt>
      <trkpt lat="44.46421" lon="-1.17016">
        <ele>20</ele>
        <time>2016-04-23T13:47:03Z</time>
      </trkpt>
      <trkpt lat="44.46417" lon="-1.17022">
        <ele>20</ele>
        <time>2016-04-23T13:47:05Z</time>
      </trkpt>
      <trkpt lat="44.46413" lon="-1.17027">
        <ele>20</ele>
        <time>2016-04-23T13:47:07Z</time>
      </trkpt>
      <trkpt lat="44.46409" lon="-1.17033">
        <ele>20</ele>
        <time>2016-04-23T13:47:09Z</time>
      </trkpt>
      <trkpt lat="44.46405" lon="-1.17038">
        <ele>20</ele>
        <time>2016-04-23T13:47:11Z</time>
      </trkpt>
      <trkpt lat="44.46401" lon="-1.17044">
        <ele>20</ele>
        <time>2016-04-23T13:47:13Z</time>
      </trkpt>
      <trkpt lat="44.46397" lon="-1.1705">
        <ele>20</ele>
        <time>2016-04-23T13:47:15Z</time>
      </trkpt>
      <trkpt lat="44.46394" lon="-1.17055">
        <ele>20</ele>
        <time>2016-04-23T13:47:17Z</time>
      </trkpt>
      <trkpt lat="44.4639" lon="-1.1706">
        <ele>20</ele>
        <time>2016-04-23T13:47:19Z</time>
      </trkpt>
      <trkpt lat="44.46387" lon="-1.17066">
        <ele>20</ele>
        <time>2016-04-23T13:47:21Z</time>
      </trkpt>
      <trkpt lat="44.46383" lon="-1.17071">
        <ele>20</ele>
        <time>2016-04-23T13:47:23Z</time>
      </trkpt>
      <trkpt lat="44.46379" lon="-1.17077">
        <ele>20</ele>
        <time>2016-04-23T13:47:25Z</time>
      </trkpt>
      <trkpt lat="44.46375" lon="-1.17083">
        <ele>20</ele>
        <time>2016-04-23T13:47:27Z</time>
      </trkpt>
      <trkpt lat="44.4637" lon="-1.17088">
        <ele>20</ele>
        <time>2016-04-23T13:47:29Z</time>
      </trkpt>
      <trkpt lat="44.46367" lon="-1.17093">
        <ele>20</ele>
        <time>2016-04-23T13:47:31Z</time>
      </trkpt>
      <trkpt lat="44.46363" lon="-1.17098">
        <ele>20</ele>
        <time>2016-04-23T13:47:33Z</time>
      </trkpt>
      <trkpt lat="44.46359" lon="-1.17104">
        <ele>20</ele>
        <time>2016-04-23T13:47:35Z</time>
      </trkpt>
      <trkpt lat="44.46356" lon="-1.1711">
        <ele>20</ele>
        <time>2016-04-23T13:47:37Z</time>
      </trkpt>
      <trkpt lat="44.46352" lon="-1.17115">
        <ele>20</ele>
        <time>2016-04-23T13:47:39Z</time>
      </trkpt>
      <trkpt lat="44.46348" lon="-1.17122">
        <ele>20</ele>
        <time>2016-04-23T13:47:41Z</time>
      </trkpt>
      <trkpt lat="44.46343" lon="-1.17129">
        <ele>20</ele>
        <time>2016-04-23T13:47:43Z</time>
      </trkpt>
      <trkpt lat="44.46339" lon="-1.17135">
        <ele>20</ele>
        <time>2016-04-23T13:47:45Z</time>
      </trkpt>
      <trkpt lat="44.46336" lon="-1.17142">
        <ele>20</ele>
        <time>2016-04-23T13:47:47Z</time>
      </trkpt>
      <trkpt lat="44.46332" lon="-1.17148">
        <ele>20</ele>
        <time>2016-04-23T13:47:49Z</time>
      </trkpt>
      <trkpt lat="44.46328" lon="-1.17155">
        <ele>20</ele>
        <time>2016-04-23T13:47:51Z</time>
      </trkpt>
      <trkpt lat="44.46324" lon="-1.17161">
        <ele>20</ele>
        <time>2016-04-23T13:47:53Z</time>
      </trkpt>
      <trkpt lat="44.4632" lon="-1.17167">
        <ele>20</ele>
        <time>2016-04-23T13:47:55Z</time>
      </trkpt>
      <trkpt lat="44.46316" lon="-1.17174">
        <ele>20</ele>
        <time>2016-04-23T13:47:57Z</time>
      </trkpt>
      <trkpt lat="44.46312" lon="-1.1718">
        <ele>20</ele>
        <time>2016-04-23T13:47:59Z</time>
      </trkpt>
      <trkpt lat="44.46308" lon="-1.17187">
        <ele>20</ele>
        <time>2016-04-23T13:48:01Z</time>
      </trkpt>
      <trkpt lat="44.46305" lon="-1.17193">
        <ele>20</ele>
        <time>2016-04-23T13:48:03Z</time>
      </trkpt>
      <trkpt lat="44.46301" lon="-1.17199">
        <ele>20</ele>
        <time>2016-04-23T13:48:05Z</time>
      </trkpt>
      <trkpt lat="44.46296" lon="-1.17205">
        <ele>20</ele>
        <time>2016-04-23T13:48:07Z</time>
      </trkpt>
      <trkpt lat="44.46292" lon="-1.1721">
        <ele>20</ele>
        <time>2016-04-23T13:48:09Z</time>
      </trkpt>
      <trkpt lat="44.46287" lon="-1.17216">
        <ele>20</ele>
        <time>2016-04-23T13:48:11Z</time>
      </trkpt>
      <trkpt lat="44.46283" lon="-1.17222">
        <ele>20</ele>
        <time>2016-04-23T13:48:13Z</time>
      </trkpt>
      <trkpt lat="44.46278" lon="-1.17228">
        <ele>20</ele>
        <time>2016-04-23T13:48:15Z</time>
      </trkpt>
      <trkpt lat="44.46274" lon="-1.17234">
        <ele>20</ele>
        <time>2016-04-23T13:48:17Z</time>
      </trkpt>
      <trkpt lat="44.46269" lon="-1.17241">
        <ele>20</ele>
        <time>2016-04-23T13:48:19Z</time>
      </trkpt>
      <trkpt lat="44.46266" lon="-1.17247">
        <ele>20</ele>
        <time>2016-04-23T13:48:21Z</time>
      </trkpt>
      <trkpt lat="44.46262" lon="-1.17253">
        <ele>20</ele>
        <time>2016-04-23T13:48:23Z</time>
      </trkpt>
      <trkpt lat="44.46259" lon="-1.1726">
        <ele>20</ele>
        <time>2016-04-23T13:48:25Z</time>
      </trkpt>
      <trkpt lat="44.46255" lon="-1.17266">
        <ele>20</ele>
        <time>2016-04-23T13:48:27Z</time>
      </trkpt>
      <trkpt lat="44.46252" lon="-1.17272">
        <ele>20</ele>
        <time>2016-04-23T13:48:29Z</time>
      </trkpt>
      <trkpt lat="44.46248" lon="-1.17278">
        <ele>20</ele>
        <time>2016-04-23T13:48:31Z</time>
      </trkpt>
      <trkpt lat="44.46244" lon="-1.17285">
        <ele>20</ele>
        <time>2016-04-23T13:48:33Z</time>
      </trkpt>
      <trkpt lat="44.4624" lon="-1.17291">
        <ele>20</ele>
        <time>2016-04-23T13:48:35Z</time>
      </trkpt>
      <trkpt lat="44.46236" lon="-1.17297">
        <ele>20</ele>
        <time>2016-04-23T13:48:37Z</time>
      </trkpt>
      <trkpt lat="44.46233" lon="-1.17304">
        <ele>20</ele>
        <time>2016-04-23T13:48:39Z</time>
      </trkpt>
      <trkpt lat="44.4623" lon="-1.1731">
        <ele>20</ele>
        <time>2016-04-23T13:48:41Z</time>
      </trkpt>
      <trkpt lat="44.46226" lon="-1.17316">
        <ele>20</ele>
        <time>2016-04-23T13:48:43Z</time>
      </trkpt>
      <trkpt lat="44.46222" lon="-1.17323">
        <ele>20</ele>
        <time>2016-04-23T13:48:45Z</time>
      </trkpt>
      <trkpt lat="44.46218" lon="-1.17329">
        <ele>20</ele>
        <time>2016-04-23T13:48:47Z</time>
      </trkpt>
      <trkpt lat="44.46214" lon="-1.17336">
        <ele>20</ele>
        <time>2016-04-23T13:48:49Z</time>
      </trkpt>
      <trkpt lat="44.46209" lon="-1.17342">
        <ele>20</ele>
        <time>2016-04-23T13:48:51Z</time>
      </trkpt>
      <trkpt lat="44.46206" lon="-1.17348">
        <ele>20</ele>
        <time>2016-04-23T13:48:53Z</time>
      </trkpt>
      <trkpt lat="44.46202" lon="-1.17355">
        <ele>20</ele>
        <time>2016-04-23T13:48:55Z</time>
      </trkpt>
      <trkpt lat="44.46198" lon="-1.17361">
        <ele>20</ele>
        <time>2016-04-23T13:48:57Z</time>
      </trkpt>
      <trkpt lat="44.46194" lon="-1.17367">
        <ele>20</ele>
        <time>2016-04-23T13:48:59Z</time>
      </trkpt>
      <trkpt lat="44.46189" lon="-1.17372">
        <ele>20</ele>
        <time>2016-04-23T13:49:01Z</time>
      </trkpt>
      <trkpt lat="44.46184" lon="-1.17378">
        <ele>20</ele>
        <time>2016-04-23T13:49:03Z</time>
      </trkpt>
      <trkpt lat="44.4618" lon="-1.17384">
        <ele>20</ele>
        <time>2016-04-23T13:49:05Z</time>
      </trkpt>
      <trkpt lat="44.46176" lon="-1.17389">
        <ele>20</ele>
        <time>2016-04-23T13:49:07Z</time>
      </trkpt>
      <trkpt lat="44.46171" lon="-1.17395">
        <ele>20</ele>
        <time>2016-04-23T13:49:09Z</time>
      </trkpt>
      <trkpt lat="44.46167" lon="-1.174">
        <ele>20</ele>
        <time>2016-04-23T13:49:11Z</time>
      </trkpt>
      <trkpt lat="44.46162" lon="-1.17406">
        <ele>20</ele>
        <time>2016-04-23T13:49:13Z</time>
      </trkpt>
      <trkpt lat="44.46158" lon="-1.17412">
        <ele>20</ele>
        <time>2016-04-23T13:49:15Z</time>
      </trkpt>
      <trkpt lat="44.46153" lon="-1.17418">
        <ele>20</ele>
        <time>2016-04-23T13:49:17Z</time>
      </trkpt>
      <trkpt lat="44.46149" lon="-1.17425">
        <ele>20</ele>
        <time>2016-04-23T13:49:19Z</time>
      </trkpt>
      <trkpt lat="44.46145" lon="-1.17431">
        <ele>20</ele>
        <time>2016-04-23T13:49:21Z</time>
      </trkpt>
      <trkpt lat="44.46141" lon="-1.17436">
        <ele>20</ele>
        <time>2016-04-23T13:49:23Z</time>
      </trkpt>
      <trkpt lat="44.46136" lon="-1.17441">
        <ele>20</ele>
        <time>2016-04-23T13:49:25Z</time>
      </trkpt>
      <trkpt lat="44.46131" lon="-1.17447">
        <ele>20</ele>
        <time>2016-04-23T13:49:27Z</time>
      </trkpt>
      <trkpt lat="44.46126" lon="-1.17452">
        <ele>20</ele>
        <time>2016-04-23T13:49:29Z</time>
      </trkpt>
      <trkpt lat="44.46121" lon="-1.17457">
        <ele>20</ele>
        <time>2016-04-23T13:49:31Z</time>
      </trkpt>
      <trkpt lat="44.46116" lon="-1.17461">
        <ele>20</ele>
        <time>2016-04-23T13:49:33Z</time>
      </trkpt>
      <trkpt lat="44.46111" lon="-1.17467">
        <ele>20</ele>
        <time>2016-04-23T13:49:35Z</time>
      </trkpt>
      <trkpt lat="44.46106" lon="-1.17471">
        <ele>20</ele>
        <time>2016-04-23T13:49:37Z</time>
      </trkpt>
      <trkpt lat="44.46101" lon="-1.17477">
        <ele>20</ele>
        <time>2016-04-23T13:49:39Z</time>
      </trkpt>
      <trkpt lat="44.46097" lon="-1.17483">
        <ele>20</ele>
        <time>2016-04-23T13:49:41Z</time>
      </trkpt>
      <trkpt lat="44.46093" lon="-1.17489">
        <ele>20</ele>
        <time>2016-04-23T13:49:43Z</time>
      </trkpt>
      <trkpt lat="44.46088" lon="-1.17495">
        <ele>20</ele>
        <time>2016-04-23T13:49:45Z</time>
      </trkpt>
      <trkpt lat="44.46084" lon="-1.175">
        <ele>20</ele>
        <time>2016-04-23T13:49:47Z</time>
      </trkpt>
      <trkpt lat="44.4608" lon="-1.17505">
        <ele>20</ele>
        <time>2016-04-23T13:49:49Z</time>
      </trkpt>
      <trkpt lat="44.46076" lon="-1.1751">
        <ele>20</ele>
        <time>2016-04-23T13:49:51Z</time>
      </trkpt>
      <trkpt lat="44.46072" lon="-1.17515">
        <ele>20</ele>
        <time>2016-04-23T13:49:53Z</time>
      </trkpt>
      <trkpt lat="44.46067" lon="-1.1752">
        <ele>20</ele>
        <time>2016-04-23T13:49:55Z</time>
      </trkpt>
      <trkpt lat="44.46062" lon="-1.17526">
        <ele>20</ele>
        <time>2016-04-23T13:49:57Z</time>
      </trkpt>
      <trkpt lat="44.46058" lon="-1.17531">
        <ele>20</ele>
        <time>2016-04-23T13:49:59Z</time>
      </trkpt>
      <trkpt lat="44.46053" lon="-1.17536">
        <ele>20</ele>
        <time>2016-04-23T13:50:01Z</time>
      </trkpt>
      <trkpt lat="44.46048" lon="-1.17542">
        <ele>20</ele>
        <time>2016-04-23T13:50:03Z</time>
      </trkpt>
      <trkpt lat="44.46043" lon="-1.17546">
        <ele>20</ele>
        <time>2016-04-23T13:50:05Z</time>
      </trkpt>
      <trkpt lat="44.46039" lon="-1.17552">
        <ele>20</ele>
        <time>2016-04-23T13:50:07Z</time>
      </trkpt>
      <trkpt lat="44.46035" lon="-1.17557">
        <ele>20</ele>
        <time>2016-04-23T13:50:09Z</time>
      </trkpt>
      <trkpt lat="44.4603" lon="-1.17562">
        <ele>20</ele>
        <time>2016-04-23T13:50:11Z</time>
      </trkpt>
      <trkpt lat="44.46026" lon="-1.17568">
        <ele>20</ele>
        <time>2016-04-23T13:50:13Z</time>
      </trkpt>
      <trkpt lat="44.46022" lon="-1.17573">
        <ele>20</ele>
        <time>2016-04-23T13:50:15Z</time>
      </trkpt>
      <trkpt lat="44.46018" lon="-1.17579">
        <ele>20</ele>
        <time>2016-04-23T13:50:17Z</time>
      </trkpt>
      <trkpt lat="44.46014" lon="-1.17584">
        <ele>20</ele>
        <time>2016-04-23T13:50:19Z</time>
      </trkpt>
      <trkpt lat="44.4601" lon="-1.17589">
        <ele>20</ele>
        <time>2016-04-23T13:50:21Z</time>
      </trkpt>
      <trkpt lat="44.46005" lon="-1.17595">
        <ele>20</ele>
        <time>2016-04-23T13:50:23Z</time>
      </trkpt>
      <trkpt lat="44.46001" lon="-1.176">
        <ele>20</ele>
        <time>2016-04-23T13:50:25Z</time>
      </trkpt>
      <trkpt lat="44.45997" lon="-1.17606">
        <ele>20</ele>
        <time>2016-04-23T13:50:27Z</time>
      </trkpt>
      <trkpt lat="44.45992" lon="-1.1761">
        <ele>20</ele>
        <time>2016-04-23T13:50:29Z</time>
      </trkpt>
      <trkpt lat="44.45988" lon="-1.17616">
        <ele>20</ele>
        <time>2016-04-23T13:50:31Z</time>
      </trkpt>
      <trkpt lat="44.45983" lon="-1.17621">
        <ele>20</ele>
        <time>2016-04-23T13:50:33Z</time>
      </trkpt>
      <trkpt lat="44.45979" lon="-1.17626">
        <ele>20</ele>
        <time>2016-04-23T13:50:35Z</time>
      </trkpt>
      <trkpt lat="44.45974" lon="-1.17632">
        <ele>20</ele>
        <time>2016-04-23T13:50:37Z</time>
      </trkpt>
      <trkpt lat="44.4597" lon="-1.17637">
        <ele>20</ele>
        <time>2016-04-23T13:50:39Z</time>
      </trkpt>
      <trkpt lat="44.45966" lon="-1.17643">
        <ele>20</ele>
        <time>2016-04-23T13:50:41Z</time>
      </trkpt>
      <trkpt lat="44.45961" lon="-1.17649">
        <ele>20</ele>
        <time>2016-04-23T13:50:43Z</time>
      </trkpt>
      <trkpt lat="44.45957" lon="-1.17654">
        <ele>20</ele>
        <time>2016-04-23T13:50:45Z</time>
      </trkpt>
      <trkpt lat="44.45953" lon="-1.1766">
        <ele>20</ele>
        <time>2016-04-23T13:50:47Z</time>
      </trkpt>
      <trkpt lat="44.45948" lon="-1.17666">
        <ele>20</ele>
        <time>2016-04-23T13:50:49Z</time>
      </trkpt>
      <trkpt lat="44.45943" lon="-1.17671">
        <ele>20</ele>
        <time>2016-04-23T13:50:51Z</time>
      </trkpt>
      <trkpt lat="44.45939" lon="-1.17677">
        <ele>20</ele>
        <time>2016-04-23T13:50:53Z</time>
      </trkpt>
      <trkpt lat="44.45934" lon="-1.17683">
        <ele>20</ele>
        <time>2016-04-23T13:50:55Z</time>
      </trkpt>
      <trkpt lat="44.4593" lon="-1.17689">
        <ele>20</ele>
        <time>2016-04-23T13:50:57Z</time>
      </trkpt>
      <trkpt lat="44.45926" lon="-1.17694">
        <ele>20</ele>
        <time>2016-04-23T13:50:59Z</time>
      </trkpt>
      <trkpt lat="44.45922" lon="-1.177">
        <ele>20</ele>
        <time>2016-04-23T13:51:01Z</time>
      </trkpt>
      <trkpt lat="44.45918" lon="-1.17706">
        <ele>20</ele>
        <time>2016-04-23T13:51:03Z</time>
      </trkpt>
      <trkpt lat="44.45914" lon="-1.17713">
        <ele>20</ele>
        <time>2016-04-23T13:51:05Z</time>
      </trkpt>
      <trkpt lat="44.45911" lon="-1.17719">
        <ele>20</ele>
        <time>2016-04-23T13:51:07Z</time>
      </trkpt>
      <trkpt lat="44.45907" lon="-1.17725">
        <ele>20</ele>
        <time>2016-04-23T13:51:09Z</time>
      </trkpt>
      <trkpt lat="44.45904" lon="-1.17731">
        <ele>20</ele>
        <time>2016-04-23T13:51:11Z</time>
      </trkpt>
      <trkpt lat="44.459" lon="-1.17738">
        <ele>20</ele>
        <time>2016-04-23T13:51:13Z</time>
      </trkpt>
      <trkpt lat="44.45895" lon="-1.17743">
        <ele>20</ele>
        <time>2016-04-23T13:51:15Z</time>
      </trkpt>
      <trkpt lat="44.45892" lon="-1.17749">
        <ele>20</ele>
        <time>2016-04-23T13:51:17Z</time>
      </trkpt>
      <trkpt lat="44.45887" lon="-1.17755">
        <ele>20</ele>
        <time>2016-04-23T13:51:19Z</time>
      </trkpt>
      <trkpt lat="44.45883" lon="-1.17761">
        <ele>20</ele>
        <time>2016-04-23T13:51:21Z</time>
      </trkpt>
      <trkpt lat="44.45879" lon="-1.17767">
        <ele>20</ele>
        <time>2016-04-23T13:51:23Z</time>
      </trkpt>
      <trkpt lat="44.45875" lon="-1.17774">
        <ele>20</ele>
        <time>2016-04-23T13:51:25Z</time>
      </trkpt>
      <trkpt lat="44.45871" lon="-1.1778">
        <ele>20</ele>
        <time>2016-04-23T13:51:27Z</time>
      </trkpt>
      <trkpt lat="44.45867" lon="-1.17786">
        <ele>20</ele>
        <time>2016-04-23T13:51:29Z</time>
      </trkpt>
      <trkpt lat="44.45863" lon="-1.17792">
        <ele>20</ele>
        <time>2016-04-23T13:51:31Z</time>
      </trkpt>
      <trkpt lat="44.45858" lon="-1.17797">
        <ele>20</ele>
        <time>2016-04-23T13:51:33Z</time>
      </trkpt>
      <trkpt lat="44.45854" lon="-1.17803">
        <ele>20</ele>
        <time>2016-04-23T13:51:35Z</time>
      </trkpt>
      <trkpt lat="44.45849" lon="-1.17808">
        <ele>20</ele>
        <time>2016-04-23T13:51:37Z</time>
      </trkpt>
      <trkpt lat="44.45844" lon="-1.17814">
        <ele>20</ele>
        <time>2016-04-23T13:51:39Z</time>
      </trkpt>
      <trkpt lat="44.45839" lon="-1.17818">
        <ele>20</ele>
        <time>2016-04-23T13:51:41Z</time>
      </trkpt>
      <trkpt lat="44.45834" lon="-1.17823">
        <ele>20</ele>
        <time>2016-04-23T13:51:43Z</time>
      </trkpt>
      <trkpt lat="44.45829" lon="-1.17827">
        <ele>20</ele>
        <time>2016-04-23T13:51:45Z</time>
      </trkpt>
      <trkpt lat="44.45824" lon="-1.17833">
        <ele>20</ele>
        <time>2016-04-23T13:51:47Z</time>
      </trkpt>
      <trkpt lat="44.45819" lon="-1.17839">
        <ele>20</ele>
        <time>2016-04-23T13:51:49Z</time>
      </trkpt>
      <trkpt lat="44.45815" lon="-1.17844">
        <ele>20</ele>
        <time>2016-04-23T13:51:51Z</time>
      </trkpt>
      <trkpt lat="44.4581" lon="-1.17849">
        <ele>20</ele>
        <time>2016-04-23T13:51:53Z</time>
      </trkpt>
      <trkpt lat="44.45806" lon="-1.17854">
        <ele>20</ele>
        <time>2016-04-23T13:51:55Z</time>
      </trkpt>
      <trkpt lat="44.45802" lon="-1.1786">
        <ele>20</ele>
        <time>2016-04-23T13:51:57Z</time>
      </trkpt>
      <trkpt lat="44.45798" lon="-1.17865">
        <ele>20</ele>
        <time>2016-04-23T13:51:59Z</time>
      </trkpt>
      <trkpt lat="44.45793" lon="-1.17871">
        <ele>20</ele>
        <time>2016-04-23T13:52:01Z</time>
      </trkpt>
      <trkpt lat="44.45789" lon="-1.17877">
        <ele>20</ele>
        <time>2016-04-23T13:52:03Z</time>
      </trkpt>
      <trkpt lat="44.45785" lon="-1.17884">
        <ele>20</ele>
        <time>2016-04-23T13:52:05Z</time>
      </trkpt>
      <trkpt lat="44.45781" lon="-1.17891">
        <ele>20</ele>
        <time>2016-04-23T13:52:07Z</time>
      </trkpt>
      <trkpt lat="44.45777" lon="-1.17897">
        <ele>20</ele>
        <time>2016-04-23T13:52:09Z</time>
      </trkpt>
      <trkpt lat="44.45773" lon="-1.17904">
        <ele>20</ele>
        <time>2016-04-23T13:52:11Z</time>
      </trkpt>
      <trkpt lat="44.4577" lon="-1.17911">
        <ele>20</ele>
        <time>2016-04-23T13:52:13Z</time>
      </trkpt>
      <trkpt lat="44.45766" lon="-1.17918">
        <ele>20</ele>
        <time>2016-04-23T13:52:15Z</time>
      </trkpt>
      <trkpt lat="44.45763" lon="-1.17924">
        <ele>20</ele>
        <time>2016-04-23T13:52:17Z</time>
      </trkpt>
      <trkpt lat="44.45759" lon="-1.1793">
        <ele>20</ele>
        <time>2016-04-23T13:52:19Z</time>
      </trkpt>
      <trkpt lat="44.45755" lon="-1.17937">
        <ele>20</ele>
        <time>2016-04-23T13:52:21Z</time>
      </trkpt>
      <trkpt lat="44.45751" lon="-1.17943">
        <ele>20</ele>
        <time>2016-04-23T13:52:23Z</time>
      </trkpt>
      <trkpt lat="44.45746" lon="-1.17949">
        <ele>20</ele>
        <time>2016-04-23T13:52:25Z</time>
      </trkpt>
      <trkpt lat="44.45741" lon="-1.17955">
        <ele>20</ele>
        <time>2016-04-23T13:52:27Z</time>
      </trkpt>
      <trkpt lat="44.45737" lon="-1.17961">
        <ele>20</ele>
        <time>2016-04-23T13:52:29Z</time>
      </trkpt>
      <trkpt lat="44.45732" lon="-1.17968">
        <ele>20</ele>
        <time>2016-04-23T13:52:31Z</time>
      </trkpt>
      <trkpt lat="44.45728" lon="-1.17974">
        <ele>20</ele>
        <time>2016-04-23T13:52:33Z</time>
      </trkpt>
      <trkpt lat="44.45723" lon="-1.1798">
        <ele>20</ele>
        <time>2016-04-23T13:52:35Z</time>
      </trkpt>
      <trkpt lat="44.45719" lon="-1.17986">
        <ele>20</ele>
        <time>2016-04-23T13:52:37Z</time>
      </trkpt>
      <trkpt lat="44.45715" lon="-1.17992">
        <ele>20</ele>
        <time>2016-04-23T13:52:39Z</time>
      </trkpt>
      <trkpt lat="44.4571" lon="-1.17998">
        <ele>20</ele>
        <time>2016-04-23T13:52:41Z</time>
      </trkpt>
      <trkpt lat="44.45706" lon="-1.18005">
        <ele>20</ele>
        <time>2016-04-23T13:52:43Z</time>
      </trkpt>
      <trkpt lat="44.45701" lon="-1.18011">
        <ele>20</ele>
        <time>2016-04-23T13:52:45Z</time>
      </trkpt>
      <trkpt lat="44.45697" lon="-1.18018">
        <ele>20</ele>
        <time>2016-04-23T13:52:47Z</time>
      </trkpt>
      <trkpt lat="44.45693" lon="-1.18024">
        <ele>20</ele>
        <time>2016-04-23T13:52:49Z</time>
      </trkpt>
      <trkpt lat="44.45688" lon="-1.18031">
        <ele>20</ele>
        <time>2016-04-23T13:52:51Z</time>
      </trkpt>
      <trkpt lat="44.45684" lon="-1.18037">
        <ele>20</ele>
        <time>2016-04-23T13:52:53Z</time>
      </trkpt>
      <trkpt lat="44.45679" lon="-1.18043">
        <ele>20</ele>
        <time>2016-04-23T13:52:55Z</time>
      </trkpt>
      <trkpt lat="44.45673" lon="-1.18049">
        <ele>20</ele>
        <time>2016-04-23T13:52:57Z</time>
      </trkpt>
      <trkpt lat="44.45667" lon="-1.18053">
        <ele>20</ele>
        <time>2016-04-23T13:52:59Z</time>
      </trkpt>
      <trkpt lat="44.45662" lon="-1.18056">
        <ele>20</ele>
        <time>2016-04-23T13:53:01Z</time>
      </trkpt>
      <trkpt lat="44.45656" lon="-1.1806">
        <ele>20</ele>
        <time>2016-04-23T13:53:03Z</time>
      </trkpt>
      <trkpt lat="44.45651" lon="-1.18065">
        <ele>20</ele>
        <time>2016-04-23T13:53:05Z</time>
      </trkpt>
      <trkpt lat="44.45645" lon="-1.18069">
        <ele>20</ele>
        <time>2016-04-23T13:53:07Z</time>
      </trkpt>
      <trkpt lat="44.45639" lon="-1.18071">
        <ele>20</ele>
        <time>2016-04-23T13:53:09Z</time>
      </trkpt>
      <trkpt lat="44.45632" lon="-1.18073">
        <ele>20</ele>
        <time>2016-04-23T13:53:11Z</time>
      </trkpt>
      <trkpt lat="44.45626" lon="-1.18075">
        <ele>20</ele>
        <time>2016-04-23T13:53:13Z</time>
      </trkpt>
      <trkpt lat="44.4562" lon="-1.18077">
        <ele>20</ele>
        <time>2016-04-23T13:53:15Z</time>
      </trkpt>
      <trkpt lat="44.45613" lon="-1.18079">
        <ele>20</ele>
        <time>2016-04-23T13:53:17Z</time>
      </trkpt>
      <trkpt lat="44.45607" lon="-1.18082">
        <ele>20</ele>
        <time>2016-04-23T13:53:19Z</time>
      </trkpt>
      <trkpt lat="44.45601" lon="-1.18084">
        <ele>20</ele>
        <time>2016-04-23T13:53:21Z</time>
      </trkpt>
      <trkpt lat="44.45595" lon="-1.18086">
        <ele>20</ele>
        <time>2016-04-23T13:53:23Z</time>
      </trkpt>
      <trkpt lat="44.45589" lon="-1.18087">
        <ele>20</ele>
        <time>2016-04-23T13:53:25Z</time>
      </trkpt>
      <trkpt lat="44.45582" lon="-1.1809">
        <ele>20</ele>
        <time>2016-04-23T13:53:27Z</time>
      </trkpt>
      <trkpt lat="44.45576" lon="-1.18092">
        <ele>20</ele>
        <time>2016-04-23T13:53:29Z</time>
      </trkpt>
      <trkpt lat="44.45571" lon="-1.18094">
        <ele>20</ele>
        <time>2016-04-23T13:53:31Z</time>
      </trkpt>
      <trkpt lat="44.45566" lon="-1.18097">
        <ele>20</ele>
        <time>2016-04-23T13:53:33Z</time>
      </trkpt>
      <trkpt lat="44.4556" lon="-1.181">
        <ele>20</ele>
        <time>2016-04-23T13:53:35Z</time>
      </trkpt>
      <trkpt lat="44.45555" lon="-1.18104">
        <ele>20</ele>
        <time>2016-04-23T13:53:37Z</time>
      </trkpt>
      <trkpt lat="44.45549" lon="-1.18108">
        <ele>20</ele>
        <time>2016-04-23T13:53:39Z</time>
      </trkpt>
      <trkpt lat="44.45543" lon="-1.18111">
        <ele>20</ele>
        <time>2016-04-23T13:53:41Z</time>
      </trkpt>
      <trkpt lat="44.45537" lon="-1.18115">
        <ele>20</ele>
        <time>2016-04-23T13:53:43Z</time>
      </trkpt>
      <trkpt lat="44.45531" lon="-1.18118">
        <ele>20</ele>
        <time>2016-04-23T13:53:45Z</time>
      </trkpt>
      <trkpt lat="44.45524" lon="-1.18121">
        <ele>20</ele>
        <time>2016-04-23T13:53:47Z</time>
      </trkpt>
      <trkpt lat="44.45519" lon="-1.18124">
        <ele>20</ele>
        <time>2016-04-23T13:53:49Z</time>
      </trkpt>
      <trkpt lat="44.45513" lon="-1.18127">
        <ele>20</ele>
        <time>2016-04-23T13:53:51Z</time>
      </trkpt>
      <trkpt lat="44.45506" lon="-1.18131">
        <ele>20</ele>
        <time>2016-04-23T13:53:53Z</time>
      </trkpt>
      <trkpt lat="44.455" lon="-1.18135">
        <ele>20</ele>
        <time>2016-04-23T13:53:55Z</time>
      </trkpt>
      <trkpt lat="44.45495" lon="-1.18139">
        <ele>20</ele>
        <time>2016-04-23T13:53:57Z</time>
      </trkpt>
      <trkpt lat="44.45489" lon="-1.18144">
        <ele>20</ele>
        <time>2016-04-23T13:53:59Z</time>
      </trkpt>
      <trkpt lat="44.45483" lon="-1.18147">
        <ele>20</ele>
        <time>2016-04-23T13:54:01Z</time>
      </trkpt>
      <trkpt lat="44.45477" lon="-1.1815">
        <ele>20</ele>
        <time>2016-04-23T13:54:03Z</time>
      </trkpt>
      <trkpt lat="44.45472" lon="-1.18152">
        <ele>20</ele>
        <time>2016-04-23T13:54:05Z</time>
      </trkpt>
      <trkpt lat="44.45465" lon="-1.18155">
        <ele>20</ele>
        <time>2016-04-23T13:54:07Z</time>
      </trkpt>
      <trkpt lat="44.45459" lon="-1.18158">
        <ele>20</ele>
        <time>2016-04-23T13:54:09Z</time>
      </trkpt>
      <trkpt lat="44.45454" lon="-1.1816">
        <ele>20</ele>
        <time>2016-04-23T13:54:11Z</time>
      </trkpt>
      <trkpt lat="44.45449" lon="-1.18162">
        <ele>20</ele>
        <time>2016-04-23T13:54:13Z</time>
      </trkpt>
      <trkpt lat="44.45444" lon="-1.18163">
        <ele>20</ele>
        <time>2016-04-23T13:54:15Z</time>
      </trkpt>
      <trkpt lat="44.45439" lon="-1.18163">
        <ele>20</ele>
        <time>2016-04-23T13:54:17Z</time>
      </trkpt>
      <trkpt lat="44.45435" lon="-1.18164">
        <ele>20</ele>
        <time>2016-04-23T13:54:19Z</time>
      </trkpt>
      <trkpt lat="44.4543" lon="-1.18166">
        <ele>20</ele>
        <time>2016-04-23T13:54:21Z</time>
      </trkpt>
      <trkpt lat="44.45424" lon="-1.1817">
        <ele>20</ele>
        <time>2016-04-23T13:54:24Z</time>
      </trkpt>
      <trkpt lat="44.45418" lon="-1.18175">
        <ele>20</ele>
        <time>2016-04-23T13:54:27Z</time>
      </trkpt>
      <trkpt lat="44.45414" lon="-1.18178">
        <ele>20</ele>
        <time>2016-04-23T13:54:29Z</time>
      </trkpt>
      <trkpt lat="44.45409" lon="-1.18182">
        <ele>20</ele>
        <time>2016-04-23T13:54:31Z</time>
      </trkpt>
      <trkpt lat="44.45406" lon="-1.18188">
        <ele>20</ele>
        <time>2016-04-23T13:54:33Z</time>
      </trkpt>
      <trkpt lat="44.45403" lon="-1.18193">
        <ele>20</ele>
        <time>2016-04-23T13:54:35Z</time>
      </trkpt>
      <trkpt lat="44.45399" lon="-1.18199">
        <ele>20</ele>
        <time>2016-04-23T13:54:37Z</time>
      </trkpt>
      <trkpt lat="44.45396" lon="-1.18204">
        <ele>20</ele>
        <time>2016-04-23T13:54:39Z</time>
      </trkpt>
      <trkpt lat="44.45392" lon="-1.18209">
        <ele>20</ele>
        <time>2016-04-23T13:54:41Z</time>
      </trkpt>
      <trkpt lat="44.45389" lon="-1.18216">
        <ele>20</ele>
        <time>2016-04-23T13:54:43Z</time>
      </trkpt>
      <trkpt lat="44.45387" lon="-1.18223">
        <ele>20</ele>
        <time>2016-04-23T13:54:45Z</time>
      </trkpt>
      <trkpt lat="44.45384" lon="-1.1823">
        <ele>20</ele>
        <time>2016-04-23T13:54:47Z</time>
      </trkpt>
      <trkpt lat="44.4538" lon="-1.18236">
        <ele>20</ele>
        <time>2016-04-23T13:54:49Z</time>
      </trkpt>
      <trkpt lat="44.45376" lon="-1.18241">
        <ele>20</ele>
        <time>2016-04-23T13:54:51Z</time>
      </trkpt>
      <trkpt lat="44.45372" lon="-1.18247">
        <ele>20</ele>
        <time>2016-04-23T13:54:53Z</time>
      </trkpt>
      <trkpt lat="44.45368" lon="-1.18253">
        <ele>20</ele>
        <time>2016-04-23T13:54:55Z</time>
      </trkpt>
      <trkpt lat="44.45364" lon="-1.18259">
        <ele>20</ele>
        <time>2016-04-23T13:54:57Z</time>
      </trkpt>
      <trkpt lat="44.45359" lon="-1.18265">
        <ele>20</ele>
        <time>2016-04-23T13:54:59Z</time>
      </trkpt>
      <trkpt lat="44.45355" lon="-1.18271">
        <ele>20</ele>
        <time>2016-04-23T13:55:01Z</time>
      </trkpt>
      <trkpt lat="44.4535" lon="-1.18277">
        <ele>20</ele>
        <time>2016-04-23T13:55:03Z</time>
      </trkpt>
      <trkpt lat="44.45346" lon="-1.18282">
        <ele>20</ele>
        <time>2016-04-23T13:55:05Z</time>
      </trkpt>
      <trkpt lat="44.45341" lon="-1.18288">
        <ele>20</ele>
        <time>2016-04-23T13:55:07Z</time>
      </trkpt>
      <trkpt lat="44.45336" lon="-1.18293">
        <ele>20</ele>
        <time>2016-04-23T13:55:09Z</time>
      </trkpt>
      <trkpt lat="44.45332" lon="-1.18299">
        <ele>20</ele>
        <time>2016-04-23T13:55:11Z</time>
      </trkpt>
      <trkpt lat="44.45328" lon="-1.18305">
        <ele>20</ele>
        <time>2016-04-23T13:55:13Z</time>
      </trkpt>
      <trkpt lat="44.45323" lon="-1.18311">
        <ele>20</ele>
        <time>2016-04-23T13:55:15Z</time>
      </trkpt>
      <trkpt lat="44.45319" lon="-1.18318">
        <ele>20</ele>
        <time>2016-04-23T13:55:17Z</time>
      </trkpt>
      <trkpt lat="44.45314" lon="-1.18323">
        <ele>20</ele>
        <time>2016-04-23T13:55:19Z</time>
      </trkpt>
      <trkpt lat="44.45309" lon="-1.18328">
        <ele>20</ele>
        <time>2016-04-23T13:55:21Z</time>
      </trkpt>
      <trkpt lat="44.45304" lon="-1.18334">
        <ele>20</ele>
        <time>2016-04-23T13:55:23Z</time>
      </trkpt>
      <trkpt lat="44.45299" lon="-1.18339">
        <ele>20</ele>
        <time>2016-04-23T13:55:25Z</time>
      </trkpt>
      <trkpt lat="44.45294" lon="-1.18344">
        <ele>20</ele>
        <time>2016-04-23T13:55:27Z</time>
      </trkpt>
      <trkpt lat="44.45289" lon="-1.18349">
        <ele>20</ele>
        <time>2016-04-23T13:55:29Z</time>
      </trkpt>
      <trkpt lat="44.45284" lon="-1.18354">
        <ele>20</ele>
        <time>2016-04-23T13:55:31Z</time>
      </trkpt>
      <trkpt lat="44.45279" lon="-1.18358">
        <ele>20</ele>
        <time>2016-04-23T13:55:33Z</time>
      </trkpt>
      <trkpt lat="44.45273" lon="-1.18362">
        <ele>20</ele>
        <time>2016-04-23T13:55:35Z</time>
      </trkpt>
      <trkpt lat="44.45268" lon="-1.18367">
        <ele>20</ele>
        <time>2016-04-23T13:55:37Z</time>
      </trkpt>
      <trkpt lat="44.45262" lon="-1.18373">
        <ele>20</ele>
        <time>2016-04-23T13:55:39Z</time>
      </trkpt>
      <trkpt lat="44.45257" lon="-1.18378">
        <ele>20</ele>
        <time>2016-04-23T13:55:41Z</time>
      </trkpt>
      <trkpt lat="44.45251" lon="-1.18383">
        <ele>20</ele>
        <time>2016-04-23T13:55:43Z</time>
      </trkpt>
      <trkpt lat="44.45246" lon="-1.18388">
        <ele>20</ele>
        <time>2016-04-23T13:55:45Z</time>
      </trkpt>
      <trkpt lat="44.45241" lon="-1.18394">
        <ele>20</ele>
        <time>2016-04-23T13:55:47Z</time>
      </trkpt>
      <trkpt lat="44.45237" lon="-1.18401">
        <ele>20</ele>
        <time>2016-04-23T13:55:49Z</time>
      </trkpt>
      <trkpt lat="44.45233" lon="-1.18407">
        <ele>20</ele>
        <time>2016-04-23T13:55:51Z</time>
      </trkpt>
      <trkpt lat="44.45229" lon="-1.18411">
        <ele>20</ele>
        <time>2016-04-23T13:55:53Z</time>
      </trkpt>
      <trkpt lat="44.45224" lon="-1.18413">
        <ele>20</ele>
        <time>2016-04-23T13:55:55Z</time>
      </trkpt>
      <trkpt lat="44.45218" lon="-1.18417">
        <ele>20</ele>
        <time>2016-04-23T13:55:57Z</time>
      </trkpt>
      <trkpt lat="44.45213" lon="-1.1842">
        <ele>20</ele>
        <time>2016-04-23T13:55:59Z</time>
      </trkpt>
      <trkpt lat="44.45207" lon="-1.18424">
        <ele>20</ele>
        <time>2016-04-23T13:56:01Z</time>
      </trkpt>
      <trkpt lat="44.45202" lon="-1.18428">
        <ele>20</ele>
        <time>2016-04-23T13:56:03Z</time>
      </trkpt>
      <trkpt lat="44.45195" lon="-1.18432">
        <ele>20</ele>
        <time>2016-04-23T13:56:05Z</time>
      </trkpt>
      <trkpt lat="44.4519" lon="-1.18436">
        <ele>20</ele>
        <time>2016-04-23T13:56:07Z</time>
      </trkpt>
      <trkpt lat="44.45185" lon="-1.1844">
        <ele>20</ele>
        <time>2016-04-23T13:56:09Z</time>
      </trkpt>
      <trkpt lat="44.45179" lon="-1.18443">
        <ele>20</ele>
        <time>2016-04-23T13:56:11Z</time>
      </trkpt>
      <trkpt lat="44.45174" lon="-1.18447">
        <ele>20</ele>
        <time>2016-04-23T13:56:13Z</time>
      </trkpt>
      <trkpt lat="44.45169" lon="-1.1845">
        <ele>20</ele>
        <time>2016-04-23T13:56:15Z</time>
      </trkpt>
      <trkpt lat="44.45163" lon="-1.18453">
        <ele>20</ele>
        <time>2016-04-23T13:56:17Z</time>
      </trkpt>
      <trkpt lat="44.45157" lon="-1.18455">
        <ele>20</ele>
        <time>2016-04-23T13:56:19Z</time>
      </trkpt>
      <trkpt lat="44.45151" lon="-1.18458">
        <ele>20</ele>
        <time>2016-04-23T13:56:21Z</time>
      </trkpt>
      <trkpt lat="44.45146" lon="-1.18461">
        <ele>20</ele>
        <time>2016-04-23T13:56:23Z</time>
      </trkpt>
      <trkpt lat="44.45139" lon="-1.18464">
        <ele>20</ele>
        <time>2016-04-23T13:56:25Z</time>
      </trkpt>
      <trkpt lat="44.45133" lon="-1.18466">
        <ele>20</ele>
        <time>2016-04-23T13:56:27Z</time>
      </trkpt>
      <trkpt lat="44.45127" lon="-1.18468">
        <ele>20</ele>
        <time>2016-04-23T13:56:29Z</time>
      </trkpt>
      <trkpt lat="44.4512" lon="-1.18471">
        <ele>20</ele>
        <time>2016-04-23T13:56:31Z</time>
      </trkpt>
      <trkpt lat="44.45114" lon="-1.18472">
        <ele>20</ele>
        <time>2016-04-23T13:56:33Z</time>
      </trkpt>
      <trkpt lat="44.45108" lon="-1.18474">
        <ele>20</ele>
        <time>2016-04-23T13:56:35Z</time>
      </trkpt>
      <trkpt lat="44.45102" lon="-1.18478">
        <ele>20</ele>
        <time>2016-04-23T13:56:37Z</time>
      </trkpt>
      <trkpt lat="44.45096" lon="-1.18481">
        <ele>20</ele>
        <time>2016-04-23T13:56:39Z</time>
      </trkpt>
      <trkpt lat="44.45091" lon="-1.18485">
        <ele>20</ele>
        <time>2016-04-23T13:56:41Z</time>
      </trkpt>
      <trkpt lat="44.45085" lon="-1.18489">
        <ele>20</ele>
        <time>2016-04-23T13:56:43Z</time>
      </trkpt>
      <trkpt lat="44.45081" lon="-1.18493">
        <ele>20</ele>
        <time>2016-04-23T13:56:45Z</time>
      </trkpt>
      <trkpt lat="44.45076" lon="-1.18497">
        <ele>20</ele>
        <time>2016-04-23T13:56:47Z</time>
      </trkpt>
      <trkpt lat="44.4507" lon="-1.18501">
        <ele>20</ele>
        <time>2016-04-23T13:56:49Z</time>
      </trkpt>
      <trkpt lat="44.45065" lon="-1.18504">
        <ele>20</ele>
        <time>2016-04-23T13:56:51Z</time>
      </trkpt>
      <trkpt lat="44.45059" lon="-1.18507">
        <ele>20</ele>
        <time>2016-04-23T13:56:53Z</time>
      </trkpt>
      <trkpt lat="44.45054" lon="-1.1851">
        <ele>20</ele>
        <time>2016-04-23T13:56:55Z</time>
      </trkpt>
      <trkpt lat="44.45048" lon="-1.18514">
        <ele>20</ele>
        <time>2016-04-23T13:56:57Z</time>
      </trkpt>
      <trkpt lat="44.45042" lon="-1.18516">
        <ele>20</ele>
        <time>2016-04-23T13:56:59Z</time>
      </trkpt>
      <trkpt lat="44.45036" lon="-1.18519">
        <ele>20</ele>
        <time>2016-04-23T13:57:01Z</time>
      </trkpt>
      <trkpt lat="44.4503" lon="-1.18521">
        <ele>20</ele>
        <time>2016-04-23T13:57:03Z</time>
      </trkpt>
      <trkpt lat="44.45023" lon="-1.18523">
        <ele>20</ele>
        <time>2016-04-23T13:57:05Z</time>
      </trkpt>
      <trkpt lat="44.45017" lon="-1.18525">
        <ele>20</ele>
        <time>2016-04-23T13:57:07Z</time>
      </trkpt>
      <trkpt lat="44.45011" lon="-1.18526">
        <ele>20</ele>
        <time>2016-04-23T13:57:09Z</time>
      </trkpt>
      <trkpt lat="44.45004" lon="-1.18527">
        <ele>20</ele>
        <time>2016-04-23T13:57:11Z</time>
      </trkpt>
      <trkpt lat="44.44997" lon="-1.18528">
        <ele>20</ele>
        <time>2016-04-23T13:57:13Z</time>
      </trkpt>
      <trkpt lat="44.44991" lon="-1.18528">
        <ele>20</ele>
        <time>2016-04-23T13:57:15Z</time>
      </trkpt>
      <trkpt lat="44.44984" lon="-1.18529">
        <ele>20</ele>
        <time>2016-04-23T13:57:17Z</time>
      </trkpt>
      <trkpt lat="44.44978" lon="-1.18529">
        <ele>20</ele>
        <time>2016-04-23T13:57:19Z</time>
      </trkpt>
      <trkpt lat="44.44971" lon="-1.18529">
        <ele>20</ele>
        <time>2016-04-23T13:57:21Z</time>
      </trkpt>
      <trkpt lat="44.44963" lon="-1.1853">
        <ele>20</ele>
        <time>2016-04-23T13:57:23Z</time>
      </trkpt>
      <trkpt lat="44.44956" lon="-1.18529">
        <ele>20</ele>
        <time>2016-04-23T13:57:25Z</time>
      </trkpt>
      <trkpt lat="44.44949" lon="-1.18529">
        <ele>20</ele>
        <time>2016-04-23T13:57:27Z</time>
      </trkpt>
      <trkpt lat="44.44942" lon="-1.18528">
        <ele>20</ele>
        <time>2016-04-23T13:57:29Z</time>
      </trkpt>
      <trkpt lat="44.44935" lon="-1.18527">
        <ele>20</ele>
        <time>2016-04-23T13:57:31Z</time>
      </trkpt>
      <trkpt lat="44.44928" lon="-1.18527">
        <ele>20</ele>
        <time>2016-04-23T13:57:33Z</time>
      </trkpt>
      <trkpt lat="44.44921" lon="-1.18527">
        <ele>20</ele>
        <time>2016-04-23T13:57:35Z</time>
      </trkpt>
      <trkpt lat="44.44915" lon="-1.18528">
        <ele>20</ele>
        <time>2016-04-23T13:57:37Z</time>
      </trkpt>
      <trkpt lat="44.44908" lon="-1.18529">
        <ele>20</ele>
        <time>2016-04-23T13:57:39Z</time>
      </trkpt>
      <trkpt lat="44.44901" lon="-1.1853">
        <ele>20</ele>
        <time>2016-04-23T13:57:41Z</time>
      </trkpt>
      <trkpt lat="44.44895" lon="-1.18532">
        <ele>20</ele>
        <time>2016-04-23T13:57:43Z</time>
      </trkpt>
      <trkpt lat="44.44888" lon="-1.18534">
        <ele>20</ele>
        <time>2016-04-23T13:57:45Z</time>
      </trkpt>
      <trkpt lat="44.44882" lon="-1.18535">
        <ele>20</ele>
        <time>2016-04-23T13:57:47Z</time>
      </trkpt>
      <trkpt lat="44.44875" lon="-1.18537">
        <ele>20</ele>
        <time>2016-04-23T13:57:49Z</time>
      </trkpt>
      <trkpt lat="44.44869" lon="-1.18538">
        <ele>20</ele>
        <time>2016-04-23T13:57:51Z</time>
      </trkpt>
      <trkpt lat="44.44863" lon="-1.18539">
        <ele>20</ele>
        <time>2016-04-23T13:57:53Z</time>
      </trkpt>
      <trkpt lat="44.44857" lon="-1.18541">
        <ele>20</ele>
        <time>2016-04-23T13:57:55Z</time>
      </trkpt>
      <trkpt lat="44.44851" lon="-1.18543">
        <ele>20</ele>
        <time>2016-04-23T13:57:57Z</time>
      </trkpt>
      <trkpt lat="44.44845" lon="-1.18545">
        <ele>20</ele>
        <time>2016-04-23T13:57:59Z</time>
      </trkpt>
      <trkpt lat="44.44839" lon="-1.18546">
        <ele>20</ele>
        <time>2016-04-23T13:58:01Z</time>
      </trkpt>
      <trkpt lat="44.44833" lon="-1.18548">
        <ele>20</ele>
        <time>2016-04-23T13:58:03Z</time>
      </trkpt>
      <trkpt lat="44.44828" lon="-1.18549">
        <ele>20</ele>
        <time>2016-04-23T13:58:05Z</time>
      </trkpt>
      <trkpt lat="44.44822" lon="-1.18552">
        <ele>20</ele>
        <time>2016-04-23T13:58:07Z</time>
      </trkpt>
      <trkpt lat="44.44817" lon="-1.18555">
        <ele>20</ele>
        <time>2016-04-23T13:58:09Z</time>
      </trkpt>
      <trkpt lat="44.44811" lon="-1.18558">
        <ele>20</ele>
        <time>2016-04-23T13:58:11Z</time>
      </trkpt>
      <trkpt lat="44.44805" lon="-1.18561">
        <ele>20</ele>
        <time>2016-04-23T13:58:13Z</time>
      </trkpt>
      <trkpt lat="44.44799" lon="-1.18564">
        <ele>20</ele>
        <time>2016-04-23T13:58:15Z</time>
      </trkpt>
      <trkpt lat="44.44794" lon="-1.18567">
        <ele>20</ele>
        <time>2016-04-23T13:58:17Z</time>
      </trkpt>
      <trkpt lat="44.44788" lon="-1.1857">
        <ele>20</ele>
        <time>2016-04-23T13:58:19Z</time>
      </trkpt>
      <trkpt lat="44.44782" lon="-1.18573">
        <ele>20</ele>
        <time>2016-04-23T13:58:21Z</time>
      </trkpt>
      <trkpt lat="44.44776" lon="-1.18576">
        <ele>20</ele>
        <time>2016-04-23T13:58:23Z</time>
      </trkpt>
      <trkpt lat="44.4477" lon="-1.1858">
        <ele>20</ele>
        <time>2016-04-23T13:58:25Z</time>
      </trkpt>
      <trkpt lat="44.44764" lon="-1.18583">
        <ele>20</ele>
        <time>2016-04-23T13:58:27Z</time>
      </trkpt>
      <trkpt lat="44.44758" lon="-1.18586">
        <ele>20</ele>
        <time>2016-04-23T13:58:29Z</time>
      </trkpt>
      <trkpt lat="44.44753" lon="-1.18589">
        <ele>20</ele>
        <time>2016-04-23T13:58:31Z</time>
      </trkpt>
      <trkpt lat="44.44747" lon="-1.18593">
        <ele>20</ele>
        <time>2016-04-23T13:58:33Z</time>
      </trkpt>
      <trkpt lat="44.44742" lon="-1.18596">
        <ele>20</ele>
        <time>2016-04-23T13:58:35Z</time>
      </trkpt>
      <trkpt lat="44.44736" lon="-1.18599">
        <ele>20</ele>
        <time>2016-04-23T13:58:37Z</time>
      </trkpt>
      <trkpt lat="44.4473" lon="-1.18603">
        <ele>20</ele>
        <time>2016-04-23T13:58:39Z</time>
      </trkpt>
      <trkpt lat="44.44724" lon="-1.18606">
        <ele>20</ele>
        <time>2016-04-23T13:58:41Z</time>
      </trkpt>
      <trkpt lat="44.44718" lon="-1.1861">
        <ele>20</ele>
        <time>2016-04-23T13:58:43Z</time>
      </trkpt>
      <trkpt lat="44.44712" lon="-1.18613">
        <ele>20</ele>
        <time>2016-04-23T13:58:45Z</time>
      </trkpt>
      <trkpt lat="44.44706" lon="-1.18618">
        <ele>20</ele>
        <time>2016-04-23T13:58:47Z</time>
      </trkpt>
      <trkpt lat="44.44701" lon="-1.18622">
        <ele>20</ele>
        <time>2016-04-23T13:58:49Z</time>
      </trkpt>
      <trkpt lat="44.44695" lon="-1.18626">
        <ele>20</ele>
        <time>2016-04-23T13:58:51Z</time>
      </trkpt>
      <trkpt lat="44.4469" lon="-1.1863">
        <ele>20</ele>
        <time>2016-04-23T13:58:53Z</time>
      </trkpt>
      <trkpt lat="44.44684" lon="-1.18634">
        <ele>20</ele>
        <time>2016-04-23T13:58:55Z</time>
      </trkpt>
      <trkpt lat="44.44679" lon="-1.18637">
        <ele>20</ele>
        <time>2016-04-23T13:58:57Z</time>
      </trkpt>
      <trkpt lat="44.44674" lon="-1.18641">
        <ele>20</ele>
        <time>2016-04-23T13:58:59Z</time>
      </trkpt>
      <trkpt lat="44.44669" lon="-1.18645">
        <ele>20</ele>
        <time>2016-04-23T13:59:01Z</time>
      </trkpt>
      <trkpt lat="44.44663" lon="-1.1865">
        <ele>20</ele>
        <time>2016-04-23T13:59:03Z</time>
      </trkpt>
      <trkpt lat="44.44658" lon="-1.18654">
        <ele>20</ele>
        <time>2016-04-23T13:59:05Z</time>
      </trkpt>
      <trkpt lat="44.44653" lon="-1.18658">
        <ele>20</ele>
        <time>2016-04-23T13:59:07Z</time>
      </trkpt>
      <trkpt lat="44.44647" lon="-1.18662">
        <ele>20</ele>
        <time>2016-04-23T13:59:09Z</time>
      </trkpt>
      <trkpt lat="44.44642" lon="-1.18666">
        <ele>20</ele>
        <time>2016-04-23T13:59:11Z</time>
      </trkpt>
      <trkpt lat="44.44635" lon="-1.18669">
        <ele>20</ele>
        <time>2016-04-23T13:59:13Z</time>
      </trkpt>
      <trkpt lat="44.44629" lon="-1.18673">
        <ele>20</ele>
        <time>2016-04-23T13:59:15Z</time>
      </trkpt>
      <trkpt lat="44.44624" lon="-1.18678">
        <ele>20</ele>
        <time>2016-04-23T13:59:17Z</time>
      </trkpt>
      <trkpt lat="44.44618" lon="-1.18682">
        <ele>20</ele>
        <time>2016-04-23T13:59:19Z</time>
      </trkpt>
      <trkpt lat="44.44612" lon="-1.18686">
        <ele>20</ele>
        <time>2016-04-23T13:59:21Z</time>
      </trkpt>
      <trkpt lat="44.44607" lon="-1.18689">
        <ele>20</ele>
        <time>2016-04-23T13:59:23Z</time>
      </trkpt>
      <trkpt lat="44.44601" lon="-1.18693">
        <ele>20</ele>
        <time>2016-04-23T13:59:25Z</time>
      </trkpt>
      <trkpt lat="44.44596" lon="-1.18696">
        <ele>20</ele>
        <time>2016-04-23T13:59:27Z</time>
      </trkpt>
      <trkpt lat="44.44591" lon="-1.18698">
        <ele>20</ele>
        <time>2016-04-23T13:59:29Z</time>
      </trkpt>
      <trkpt lat="44.44585" lon="-1.187">
        <ele>20</ele>
        <time>2016-04-23T13:59:31Z</time>
      </trkpt>
      <trkpt lat="44.4458" lon="-1.18703">
        <ele>20</ele>
        <time>2016-04-23T13:59:33Z</time>
      </trkpt>
      <trkpt lat="44.44575" lon="-1.18706">
        <ele>20</ele>
        <time>2016-04-23T13:59:35Z</time>
      </trkpt>
      <trkpt lat="44.4457" lon="-1.18709">
        <ele>20</ele>
        <time>2016-04-23T13:59:37Z</time>
      </trkpt>
      <trkpt lat="44.44564" lon="-1.18712">
        <ele>20</ele>
        <time>2016-04-23T13:59:39Z</time>
      </trkpt>
      <trkpt lat="44.44559" lon="-1.18715">
        <ele>20</ele>
        <time>2016-04-23T13:59:41Z</time>
      </trkpt>
      <trkpt lat="44.44554" lon="-1.18718">
        <ele>20</ele>
        <time>2016-04-23T13:59:43Z</time>
      </trkpt>
      <trkpt lat="44.44549" lon="-1.18721">
        <ele>20</ele>
        <time>2016-04-23T13:59:45Z</time>
      </trkpt>
      <trkpt lat="44.44544" lon="-1.18724">
        <ele>20</ele>
        <time>2016-04-23T13:59:47Z</time>
      </trkpt>
      <trkpt lat="44.44539" lon="-1.18727">
        <ele>20</ele>
        <time>2016-04-23T13:59:49Z</time>
      </trkpt>
      <trkpt lat="44.44534" lon="-1.1873">
        <ele>20</ele>
        <time>2016-04-23T13:59:51Z</time>
      </trkpt>
      <trkpt lat="44.44528" lon="-1.18734">
        <ele>20</ele>
        <time>2016-04-23T13:59:53Z</time>
      </trkpt>
      <trkpt lat="44.44523" lon="-1.18737">
        <ele>20</ele>
        <time>2016-04-23T13:59:55Z</time>
      </trkpt>
      <trkpt lat="44.44518" lon="-1.18739">
        <ele>20</ele>
        <time>2016-04-23T13:59:57Z</time>
      </trkpt>
      <trkpt lat="44.44513" lon="-1.18741">
        <ele>20</ele>
        <time>2016-04-23T13:59:59Z</time>
      </trkpt>
      <trkpt lat="44.44508" lon="-1.18743">
        <ele>20</ele>
        <time>2016-04-23T14:00:01Z</time>
      </trkpt>
      <trkpt lat="44.44502" lon="-1.18745">
        <ele>20</ele>
        <time>2016-04-23T14:00:03Z</time>
      </trkpt>
      <trkpt lat="44.44497" lon="-1.18746">
        <ele>20</ele>
        <time>2016-04-23T14:00:05Z</time>
      </trkpt>
      <trkpt lat="44.44492" lon="-1.18747">
        <ele>20</ele>
        <time>2016-04-23T14:00:07Z</time>
      </trkpt>
      <trkpt lat="44.44486" lon="-1.18748">
        <ele>20</ele>
        <time>2016-04-23T14:00:09Z</time>
      </trkpt>
      <trkpt lat="44.4448" lon="-1.1875">
        <ele>20</ele>
        <time>2016-04-23T14:00:11Z</time>
      </trkpt>
      <trkpt lat="44.44474" lon="-1.18753">
        <ele>20</ele>
        <time>2016-04-23T14:00:13Z</time>
      </trkpt>
      <trkpt lat="44.44469" lon="-1.18755">
        <ele>20</ele>
        <time>2016-04-23T14:00:15Z</time>
      </trkpt>
      <trkpt lat="44.44463" lon="-1.18757">
        <ele>20</ele>
        <time>2016-04-23T14:00:17Z</time>
      </trkpt>
      <trkpt lat="44.44457" lon="-1.18759">
        <ele>20</ele>
        <time>2016-04-23T14:00:19Z</time>
      </trkpt>
      <trkpt lat="44.4445" lon="-1.18761">
        <ele>20</ele>
        <time>2016-04-23T14:00:21Z</time>
      </trkpt>
      <trkpt lat="44.44444" lon="-1.18763">
        <ele>20</ele>
        <time>2016-04-23T14:00:23Z</time>
      </trkpt>
      <trkpt lat="44.44439" lon="-1.18765">
        <ele>20</ele>
        <time>2016-04-23T14:00:25Z</time>
      </trkpt>
      <trkpt lat="44.44434" lon="-1.18765">
        <ele>20</ele>
        <time>2016-04-23T14:00:27Z</time>
      </trkpt>
      <trkpt lat="44.44428" lon="-1.18766">
        <ele>20</ele>
        <time>2016-04-23T14:00:29Z</time>
      </trkpt>
      <trkpt lat="44.44423" lon="-1.18766">
        <ele>20</ele>
        <time>2016-04-23T14:00:31Z</time>
      </trkpt>
      <trkpt lat="44.44418" lon="-1.18767">
        <ele>20</ele>
        <time>2016-04-23T14:00:33Z</time>
      </trkpt>
      <trkpt lat="44.44412" lon="-1.18767">
        <ele>20</ele>
        <time>2016-04-23T14:00:35Z</time>
      </trkpt>
      <trkpt lat="44.44407" lon="-1.18767">
        <ele>20</ele>
        <time>2016-04-23T14:00:37Z</time>
      </trkpt>
      <trkpt lat="44.44402" lon="-1.18767">
        <ele>20</ele>
        <time>2016-04-23T14:00:39Z</time>
      </trkpt>
      <trkpt lat="44.44396" lon="-1.18767">
        <ele>20</ele>
        <time>2016-04-23T14:00:41Z</time>
      </trkpt>
      <trkpt lat="44.44391" lon="-1.18767">
        <ele>20</ele>
        <time>2016-04-23T14:00:43Z</time>
      </trkpt>
      <trkpt lat="44.44387" lon="-1.18767">
        <ele>20</ele>
        <time>2016-04-23T14:00:45Z</time>
      </trkpt>
      <trkpt lat="44.4438" lon="-1.18767">
        <ele>20</ele>
        <time>2016-04-23T14:00:48Z</time>
      </trkpt>
      <trkpt lat="44.44373" lon="-1.18767">
        <ele>20</ele>
        <time>2016-04-23T14:00:51Z</time>
      </trkpt>
      <trkpt lat="44.44367" lon="-1.18768">
        <ele>20</ele>
        <time>2016-04-23T14:00:54Z</time>
      </trkpt>
      <trkpt lat="44.44361" lon="-1.18768">
        <ele>20</ele>
        <time>2016-04-23T14:00:57Z</time>
      </trkpt>
      <trkpt lat="44.44356" lon="-1.18768">
        <ele>20</ele>
        <time>2016-04-23T14:00:59Z</time>
      </trkpt>
      <trkpt lat="44.44351" lon="-1.18769">
        <ele>20</ele>
        <time>2016-04-23T14:01:01Z</time>
      </trkpt>
      <trkpt lat="44.44341" lon="-1.18769">
        <ele>20</ele>
        <time>2016-04-23T14:01:05Z</time>
      </trkpt>
      <trkpt lat="44.44336" lon="-1.18769">
        <ele>20</ele>
        <time>2016-04-23T14:01:07Z</time>
      </trkpt>
      <trkpt lat="44.44331" lon="-1.18768">
        <ele>20</ele>
        <time>2016-04-23T14:01:09Z</time>
      </trkpt>
      <trkpt lat="44.44326" lon="-1.18768">
        <ele>20</ele>
        <time>2016-04-23T14:01:11Z</time>
      </trkpt>
      <trkpt lat="44.44322" lon="-1.18769">
        <ele>20</ele>
        <time>2016-04-23T14:01:13Z</time>
      </trkpt>
      <trkpt lat="44.44316" lon="-1.18769">
        <ele>20</ele>
        <time>2016-04-23T14:01:15Z</time>
      </trkpt>
      <trkpt lat="44.44311" lon="-1.18769">
        <ele>20</ele>
        <time>2016-04-23T14:01:17Z</time>
      </trkpt>
      <trkpt lat="44.44306" lon="-1.18768">
        <ele>20</ele>
        <time>2016-04-23T14:01:19Z</time>
      </trkpt>
      <trkpt lat="44.443" lon="-1.18767">
        <ele>20</ele>
        <time>2016-04-23T14:01:21Z</time>
      </trkpt>
      <trkpt lat="44.44295" lon="-1.18766">
        <ele>20</ele>
        <time>2016-04-23T14:01:23Z</time>
      </trkpt>
      <trkpt lat="44.44289" lon="-1.18765">
        <ele>20</ele>
        <time>2016-04-23T14:01:25Z</time>
      </trkpt>
      <trkpt lat="44.44284" lon="-1.18765">
        <ele>20</ele>
        <time>2016-04-23T14:01:27Z</time>
      </trkpt>
      <trkpt lat="44.44279" lon="-1.18765">
        <ele>20</ele>
        <time>2016-04-23T14:01:29Z</time>
      </trkpt>
      <trkpt lat="44.44273" lon="-1.18765">
        <ele>20</ele>
        <time>2016-04-23T14:01:31Z</time>
      </trkpt>
      <trkpt lat="44.44268" lon="-1.18766">
        <ele>20</ele>
        <time>2016-04-23T14:01:33Z</time>
      </trkpt>
      <trkpt lat="44.44263" lon="-1.18768">
        <ele>20</ele>
        <time>2016-04-23T14:01:35Z</time>
      </trkpt>
      <trkpt lat="44.44256" lon="-1.18769">
        <ele>20</ele>
        <time>2016-04-23T14:01:38Z</time>
      </trkpt>
      <trkpt lat="44.44252" lon="-1.18771">
        <ele>20</ele>
        <time>2016-04-23T14:01:40Z</time>
      </trkpt>
      <trkpt lat="44.44247" lon="-1.18772">
        <ele>20</ele>
        <time>2016-04-23T14:01:42Z</time>
      </trkpt>
      <trkpt lat="44.44242" lon="-1.18774">
        <ele>20</ele>
        <time>2016-04-23T14:01:44Z</time>
      </trkpt>
      <trkpt lat="44.44236" lon="-1.18777">
        <ele>20</ele>
        <time>2016-04-23T14:01:47Z</time>
      </trkpt>
      <trkpt lat="44.44231" lon="-1.18781">
        <ele>20</ele>
        <time>2016-04-23T14:01:50Z</time>
      </trkpt>
      <trkpt lat="44.44222" lon="-1.18786">
        <ele>20</ele>
        <time>2016-04-23T14:01:54Z</time>
      </trkpt>
      <trkpt lat="44.44216" lon="-1.18789">
        <ele>20</ele>
        <time>2016-04-23T14:01:57Z</time>
      </trkpt>
      <trkpt lat="44.44212" lon="-1.18792">
        <ele>20</ele>
        <time>2016-04-23T14:01:59Z</time>
      </trkpt>
      <trkpt lat="44.44208" lon="-1.18794">
        <ele>20</ele>
        <time>2016-04-23T14:02:01Z</time>
      </trkpt>
      <trkpt lat="44.44201" lon="-1.18797">
        <ele>20</ele>
        <time>2016-04-23T14:02:04Z</time>
      </trkpt>
      <trkpt lat="44.44195" lon="-1.188">
        <ele>20</ele>
        <time>2016-04-23T14:02:07Z</time>
      </trkpt>
      <trkpt lat="44.44191" lon="-1.18803">
        <ele>20</ele>
        <time>2016-04-23T14:02:09Z</time>
      </trkpt>
      <trkpt lat="44.44186" lon="-1.18806">
        <ele>20</ele>
        <time>2016-04-23T14:02:12Z</time>
      </trkpt>
      <trkpt lat="44.44181" lon="-1.18809">
        <ele>20</ele>
        <time>2016-04-23T14:02:15Z</time>
      </trkpt>
      <trkpt lat="44.44176" lon="-1.18812">
        <ele>20</ele>
        <time>2016-04-23T14:02:18Z</time>
      </trkpt>
      <trkpt lat="44.44172" lon="-1.18815">
        <ele>20</ele>
        <time>2016-04-23T14:02:21Z</time>
      </trkpt>
      <trkpt lat="44.44167" lon="-1.18819">
        <ele>21</ele>
        <time>2016-04-23T14:02:24Z</time>
      </trkpt>
      <trkpt lat="44.44163" lon="-1.18822">
        <ele>21</ele>
        <time>2016-04-23T14:02:27Z</time>
      </trkpt>
      <trkpt lat="44.44159" lon="-1.18825">
        <ele>21</ele>
        <time>2016-04-23T14:02:30Z</time>
      </trkpt>
      <trkpt lat="44.44154" lon="-1.1883">
        <ele>21</ele>
        <time>2016-04-23T14:02:34Z</time>
      </trkpt>
      <trkpt lat="44.4415" lon="-1.18841">
        <ele>21</ele>
        <time>2016-04-23T14:02:52Z</time>
      </trkpt>
      <trkpt lat="44.44122" lon="-1.1883">
        <ele>22</ele>
        <time>2016-04-23T14:04:39Z</time>
      </trkpt>
      <trkpt lat="44.44127" lon="-1.18833">
        <ele>22</ele>
        <time>2016-04-23T14:04:43Z</time>
      </trkpt>
      <trkpt lat="44.44132" lon="-1.18836">
        <ele>22</ele>
        <time>2016-04-23T14:04:48Z</time>
      </trkpt>
      <trkpt lat="44.44136" lon="-1.18838">
        <ele>21</ele>
        <time>2016-04-23T14:04:53Z</time>
      </trkpt>
      <trkpt lat="44.44141" lon="-1.18839">
        <ele>21</ele>
        <time>2016-04-23T14:05:00Z</time>
      </trkpt>
      <trkpt lat="44.44146" lon="-1.18839">
        <ele>21</ele>
        <time>2016-04-23T14:05:08Z</time>
      </trkpt>
      <trkpt lat="44.44148" lon="-1.18839">
        <ele>21</ele>
        <time>2016-04-23T14:28:12Z</time>
      </trkpt>
    </trkseg>
  </trk>
</gpx>